GFSWCAN_sfc_30mbdewp_000.txt.gz
Dewpoint
49 48 49 51 51 51 51 50 49 50 50 50 50 50 51 49 48 51 51 50 46 40 40 41 39 38 37 37 37 40 39 41 40 35 35 35 34 33 30 29 28 26 29 29 30 28 26 31 31 33 36 38 39 39
48 49 49 49 50 51 51 50 50 50 51 50 50 50 51 49 49 50 49 49 49 45 43 49 48 44 43 39 39 42 39 39 41 39 38 36 32 33 35 28 31 28 29 27 30 30 32 34 35 37 39 39 39 39
46 47 48 49 49 49 50 50 50 51 51 51 50 50 50 50 48 50 50 49 47 44 45 46 45 47 49 45 45 41 42 41 40 42 41 39 32 37 31 33 33 32 34 33 33 33 34 37 38 40 41 40 39 38
45 46 47 48 49 49 49 50 50 50 50 51 51 50 50 50 48 49 50 48 47 43 36 43 43 44 46 49 48 46 43 44 43 43 38 35 34 37 36 34 34 33 34 33 34 37 37 36 40 41 40 40 39 34
45 45 46 46 47 48 48 49 50 49 50 50 50 50 50 50 49 52 53 51 50 47 40 43 44 44 45 48 47 46 45 44 44 39 37 37 41 39 39 38 36 35 32 35 35 38 38 38 39 39 40 38 32 27
45 45 45 46 46 47 48 48 49 49 49 49 50 50 50 50 50 52 48 51 52 51 43 39 44 43 43 45 47 46 46 47 46 43 40 42 42 39 35 34 37 37 38 40 38 39 39 39 39 38 34 28 26 23
45 45 45 46 46 46 47 48 49 49 49 49 50 50 50 50 53 49 46 48 49 51 43 40 41 41 41 43 43 44 46 46 45 44 41 42 42 40 37 33 36 38 37 38 39 38 37 35 34 32 29 25 25 26
45 45 45 45 45 46 47 47 47 49 49 49 50 50 50 49 49 49 51 49 50 47 44 38 37 39 41 40 39 40 40 43 44 43 40 40 40 41 35 36 35 33 35 36 36 37 36 33 31 28 26 26 25 22
45 45 44 44 45 45 46 47 47 47 48 49 48 49 49 48 47 47 48 49 49 46 40 38 34 32 41 38 38 38 40 37 40 37 37 39 36 35 37 35 33 34 36 35 33 32 30 28 26 25 24 20 19 20
43 43 44 44 44 44 46 47 47 47 48 48 48 46 42 43 47 48 46 45 44 42 41 39 41 37 40 36 35 37 36 36 33 34 35 33 33 33 30 34 34 35 34 33 31 29 28 25 19 18 20 21 22 21
44 44 44 44 45 44 46 47 47 47 47 44 39 38 42 46 43 40 39 38 36 35 36 36 36 36 38 36 35 35 33 33 30 31 32 31 30 33 32 35 34 33 32 30 26 23 20 20 19 21 23 23 26 27
44 44 44 44 45 44 46 46 47 45 43 43 42 43 42 39 36 34 33 32 32 32 33 34 35 36 36 39 35 31 31 30 27 30 29 26 28 29 30 30 30 30 25 20 20 19 20 22 25 26 25 25 27 29
39 44 44 44 45 44 46 46 46 45 44 43 38 34 33 32 30 30 28 29 30 33 34 34 33 34 34 35 31 31 28 28 28 26 25 26 28 29 29 29 30 26 24 24 20 21 24 26 26 27 26 28 29 29
39 42 44 44 44 45 45 45 45 43 40 35 33 30 31 29 30 31 32 33 33 34 34 34 31 32 31 30 29 28 26 26 24 22 23 25 24 21 23 26 22 19 19 21 23 25 27 27 27 28 27 28 28 28
38 43 44 44 42 43 44 43 41 40 35 32 32 28 29 30 32 32 33 33 33 35 34 32 31 31 28 26 27 25 23 21 22 21 23 25 21 22 24 22 21 21 22 23 24 26 27 27 27 28 29 30 30 29
40 44 43 43 42 41 41 40 39 35 32 29 28 28 29 30 30 32 33 32 34 33 33 32 29 28 26 26 24 23 20 17 20 26 27 24 24 25 26 25 22 22 23 24 24 26 27 28 28 28 29 29 29 29
41 41 43 42 40 38 38 35 35 28 28 26 28 30 29 30 31 32 34 33 35 32 29 27 26 25 24 23 22 21 19 22 25 24 23 24 25 26 25 25 25 26 25 25 26 27 28 29 30 29 29 27 29 30
39 42 42 40 37 38 36 33 32 30 25 27 27 29 30 30 31 31 33 34 33 29 26 24 21 20 19 19 19 23 24 26 24 23 21 23 24 27 27 25 24 23 24 25 28 29 28 29 29 27 26 26 27 28
40 42 42 39 36 34 32 32 29 24 25 27 28 29 29 30 29 29 31 32 33 29 26 26 23 20 19 20 23 26 26 25 20 20 21 23 24 25 25 24 25 24 25 27 27 27 28 28 29 27 27 27 26 27
42 42 39 36 35 32 29 29 30 25 23 26 28 28 28 28 28 29 31 33 32 32 29 26 25 25 25 24 24 25 23 24 23 23 21 22 24 25 25 25 24 24 26 26 28 29 28 29 29 29 28 28 27 28
37 39 38 36 32 30 29 28 28 27 27 26 26 27 26 28 27 27 29 31 30 29 26 27 29 29 28 26 25 25 25 25 23 24 24 22 23 25 25 25 25 26 27 28 30 29 29 30 30 29 30 29 28 30
36 39 35 33 30 28 27 27 27 26 25 26 26 25 26 25 24 25 27 26 25 25 26 26 25 25 26 25 25 26 25 25 25 26 26 26 26 25 26 27 27 29 30 31 30 31 31 30 30 30 29 28 28 30
36 33 29 27 25 25 24 27 24 23 22 23 24 23 23 24 23 24 23 22 23 25 25 25 25 26 24 24 25 25 25 25 24 25 27 27 27 28 29 29 30 30 30 30 29 30 31 30 29 30 30 29 29 27
30 27 25 23 24 22 26 23 24 23 23 21 20 17 19 21 22 21 20 22 23 25 24 25 25 23 23 25 23 21 22 25 25 25 28 27 26 25 26 28 29 30 30 28 30 31 30 30 30 29 29 28 27 26
24 23 23 21 23 21 20 21 21 20 19 19 18 18 19 19 19 19 19 20 24 24 25 23 21 22 21 22 23 23 24 24 23 23 25 28 28 29 28 28 29 30 29 29 29 30 30 29 29 28 27 27 25 26
19 22 20 20 20 18 19 17 18 18 18 17 18 18 17 20 18 15 17 22 25 25 25 25 24 21 20 20 20 20 22 26 26 25 25 27 27 28 29 28 28 28 30 30 29 28 27 26 25 25 25 25 24 25
17 20 22 21 20 18 17 17 18 18 17 16 19 17 18 15 15 17 20 22 22 24 24 24 24 22 22 23 24 25 27 27 27 27 28 28 29 29 29 27 27 29 30 30 29 28 26 24 24 25 25 24 24 24
22 22 18 21 21 20 17 18 17 17 19 18 19 16 16 15 14 20 21 20 20 22 23 24 24 22 23 24 25 26 26 26 26 28 29 28 28 28 26 26 26 25 27 28 28 27 27 26 25 24 24 24 24 24
23 22 22 19 20 20 20 18 18 19 20 19 18 17 18 18 17 16 15 15 17 17 17 16 17 18 19 19 21 21 21 20 19 19 20 21 25 20 20 21 21 22 22 23 24 25 25 25 23 23 23 23 22 22
23 24 22 19 18 18 22 23 24 23 21 22 21 20 19 15 13 13 13 12 12 13 13 14 14 14 14 14 15 17 17 17 16 15 14 14 14 16 17 16 17 17 18 19 20 21 22 21 21 21 19 19 17 16
23 23 22 21 21 24 23 18 19 19 21 23 23 23 22 13 11 11 10 11 11 11 10 10 11 13 13 12 12 12 12 14 13 13 13 14 14 14 13 13 14 14 15 16 17 18 17 18 16 15 13 11 10 10
22 22 21 19 21 20 18 19 20 20 21 19 20 17 15 15 9 7 8 9 8 7 7 8 9 10 12 13 12 12 11 11 10 10 9 10 10 10 10 10 10 11 13 13 14 14 13 12 11 11 10 8 6 6
18 18 18 18 19 20 17 15 14 13 14 14 14 14 11 10 4 6 8 8 8 7 7 8 9 10 12 11 10 10 10 10 9 8 6 6 5 5 6 7 7 9 10 10 10 9 8 7 7 6 4 3 2 1

GFSWCAN_sfc_30mbdewp_003.txt.gz
Dewpoint
48 48 50 51 51 51 50 50 49 49 49 49 50 50 50 48 48 51 51 51 49 44 41 41 40 39 39 35 40 40 39 42 43 37 38 37 37 32 30 26 29 29 32 30 32 29 26 30 31 34 34 36 39 39
48 48 48 49 50 51 50 50 50 49 50 49 49 49 50 49 48 49 48 48 50 45 44 48 47 46 45 40 38 42 37 40 40 40 41 41 35 37 36 28 28 26 29 29 31 28 29 34 39 39 38 38 39 40
46 47 48 49 48 49 50 50 50 50 50 50 50 49 50 50 48 50 50 50 48 50 45 44 42 47 45 45 46 41 44 40 41 43 43 41 34 38 32 33 31 30 29 31 33 31 31 35 38 39 41 40 40 40
45 45 46 47 48 48 49 50 50 50 50 50 51 50 50 50 48 50 50 50 48 46 40 45 45 46 47 48 46 46 42 46 44 44 41 37 35 37 38 33 30 32 32 32 33 32 33 35 40 40 39 40 40 37
44 45 45 45 46 47 48 49 50 49 50 50 50 50 50 50 49 53 52 51 52 48 42 46 45 45 46 48 46 45 44 44 45 42 38 37 42 40 40 39 35 33 31 33 33 36 38 39 41 39 38 37 37 30
45 45 45 45 46 46 47 48 49 49 49 49 50 50 50 51 50 52 46 52 52 53 46 41 46 44 45 46 47 45 44 44 43 43 41 41 40 39 37 35 33 33 34 35 37 40 41 40 38 38 35 32 29 26
45 45 44 45 45 46 47 48 48 49 49 49 50 50 50 51 53 49 46 50 50 53 46 41 44 43 43 45 46 45 47 45 45 44 44 43 41 40 40 34 32 33 36 37 39 39 38 39 36 34 32 29 27 26
45 45 44 44 45 45 46 47 47 48 49 49 50 50 50 50 50 50 52 50 51 49 48 41 40 42 43 43 43 43 44 45 44 42 43 41 40 41 37 35 34 35 35 36 37 40 38 34 32 29 27 24 21 17
43 43 44 44 44 44 45 46 47 47 49 49 49 49 50 50 48 51 48 51 52 49 43 39 37 35 42 41 41 41 42 38 42 40 40 41 38 35 36 35 36 35 36 37 34 32 31 28 25 23 19 16 16 16
42 42 44 44 43 44 45 46 47 47 48 48 48 46 43 44 48 49 49 48 46 46 45 39 42 38 39 38 37 37 39 37 34 36 36 34 34 38 37 36 35 35 35 34 31 30 29 26 19 17 17 18 18 18
43 43 44 44 45 45 46 46 47 47 47 45 41 40 43 47 44 43 41 40 39 37 38 41 41 37 41 36 35 36 35 35 32 33 33 32 31 34 35 35 34 33 32 31 29 25 19 17 17 17 19 21 24 24
43 43 44 44 45 45 46 47 47 45 44 43 43 44 43 40 37 37 35 34 34 35 35 34 36 39 37 40 35 32 32 31 29 33 31 28 30 33 33 35 33 31 29 23 19 17 17 17 19 23 25 24 24 27
39 42 44 44 44 44 46 45 45 45 46 41 36 34 33 32 30 30 28 30 31 33 34 34 33 34 35 36 32 32 29 29 32 28 26 27 29 30 32 31 30 26 23 21 17 16 18 19 23 28 27 29 30 29
38 42 44 44 43 45 45 45 44 43 40 33 32 30 30 29 30 31 32 32 34 35 35 34 32 32 32 32 31 30 29 30 26 25 26 27 28 28 29 30 28 24 22 21 20 20 23 28 29 31 30 30 29 29
39 42 43 43 43 45 42 43 42 41 38 33 33 28 29 31 32 32 33 33 34 36 36 35 34 35 31 29 30 28 25 24 25 24 26 26 26 24 26 24 22 24 25 23 20 21 26 28 30 30 31 32 32 33
40 43 42 42 43 42 42 42 41 38 34 31 32 30 31 31 31 32 32 32 35 35 36 35 31 30 29 30 26 26 26 22 25 28 30 26 24 24 24 23 25 24 23 21 20 22 24 29 30 30 31 32 31 32
40 39 43 42 41 40 39 39 37 31 32 30 29 33 32 33 32 32 34 34 37 35 31 32 28 28 28 27 26 25 24 27 30 29 25 24 24 24 26 27 28 27 26 24 24 25 27 30 31 32 30 29 29 30
37 40 43 41 40 40 38 37 35 32 29 29 30 31 32 33 33 33 34 35 34 31 29 28 25 24 24 23 23 28 26 27 26 22 21 23 23 23 23 24 25 23 23 24 27 29 29 31 31 29 26 24 26 27
38 40 42 39 39 37 35 34 34 30 29 29 30 31 32 31 32 33 34 34 33 31 29 28 27 23 22 23 26 30 29 26 22 22 22 23 23 24 24 23 24 25 24 25 26 26 25 26 27 27 27 28 28 29
41 42 40 38 36 34 32 32 32 27 27 28 30 30 30 30 31 31 32 34 32 32 30 28 26 26 26 24 25 26 24 25 25 24 22 20 20 23 25 25 25 24 25 24 25 26 28 29 28 27 28 29 30 29
39 40 39 38 35 32 30 30 29 28 27 27 28 28 28 29 29 29 30 33 32 29 25 26 29 31 29 28 27 26 26 26 21 21 22 22 22 23 23 24 25 26 26 27 31 31 31 31 31 30 33 33 32 32
38 38 35 36 33 31 29 30 28 28 27 27 28 27 27 26 27 27 28 27 26 26 26 26 26 25 26 28 26 26 25 25 25 25 25 25 25 25 24 24 25 28 29 33 32 33 35 33 32 33 33 32 32 31
36 35 32 32 29 29 26 29 27 25 24 25 26 25 25 25 25 25 24 24 25 26 26 25 25 27 27 25 24 25 25 24 23 21 23 25 25 26 29 29 30 32 33 31 30 31 32 33 33 32 32 32 31 30
35 30 28 27 28 24 28 25 25 24 24 23 22 22 21 23 23 22 21 22 23 23 24 24 25 22 22 24 20 17 18 20 22 23 25 27 26 25 24 25 27 31 31 31 32 32 33 32 32 31 31 30 29 28
28 25 27 23 25 23 22 22 22 21 20 22 21 21 22 22 21 19 20 19 26 29 29 25 23 20 19 20 20 20 22 23 23 21 23 25 27 29 29 28 28 29 31 33 31 30 31 31 31 30 28 28 27 26
22 24 23 23 22 21 21 20 20 20 20 20 21 21 23 21 19 17 16 26 29 28 28 28 27 24 22 21 22 22 24 27 27 26 25 26 28 29 29 28 27 29 31 33 32 30 29 29 28 27 27 27 28 26
20 21 23 23 22 22 21 22 21 21 19 18 20 20 20 16 15 16 23 24 25 24 25 26 26 24 24 23 24 24 25 25 26 26 27 27 28 27 28 28 27 29 29 30 30 29 28 28 27 27 27 27 27 27
23 23 20 23 23 22 20 20 20 19 20 20 21 19 17 16 17 23 21 20 21 22 22 22 22 21 21 21 21 22 21 21 20 22 23 24 29 24 24 24 26 25 26 27 27 27 27 27 26 27 25 25 26 27
24 25 23 21 22 23 22 20 20 20 20 22 21 19 22 21 18 18 17 18 19 19 18 17 18 18 18 18 18 21 18 17 15 13 14 15 16 17 19 19 20 21 21 22 23 25 25 25 24 23 24 24 23 23
24 26 23 21 20 20 26 25 28 29 25 26 26 22 19 17 14 15 15 15 15 15 15 15 15 15 15 14 14 17 17 15 14 12 11 11 13 15 16 16 16 17 18 19 19 21 24 23 23 24 21 19 17 16
25 25 24 23 23 26 27 26 26 26 26 27 27 25 21 14 13 12 12 13 12 12 12 12 13 13 12 11 11 11 10 12 12 12 11 11 12 12 13 12 14 14 15 16 17 18 17 18 19 17 15 13 11 11
24 24 23 21 22 25 25 24 25 25 25 24 23 21 18 17 12 10 10 11 11 10 9 10 10 10 12 13 13 13 12 12 11 10 10 9 9 9 9 10 11 12 12 13 15 15 14 14 13 12 11 9 7 7
21 21 20 20 20 21 22 21 19 18 20 18 17 16 14 14 8 8 9 10 9 8 8 9 9 10 12 13 11 11 10 10 11 10 9 7 7 7 6 7 6 7 9 11 12 11 10 9 8 7 6 4 3 1

GFSWCAN_sfc_30mbdewp_009.txt.gz
Dewpoint
50 50 50 49 49 49 49 49 49 49 49 50 49 50 50 49 48 54 51 53 53 44 43 46 47 40 40 42 38 41 39 40 41 32 29 32 34 30 30 31 29 24 26 28 30 26 21 31 31 27 33 40 40 38
50 50 49 49 49 49 49 49 49 49 50 49 49 49 50 50 49 52 51 52 54 49 47 50 48 46 45 45 43 42 32 43 42 37 39 40 33 37 33 26 33 27 29 29 30 27 30 33 32 36 40 40 39 39
49 49 50 50 50 50 49 49 49 49 50 50 50 50 50 50 49 52 52 52 54 49 45 45 44 48 48 47 49 40 44 44 44 46 41 39 28 38 30 32 30 30 34 32 33 34 33 35 40 41 41 40 39 38
46 47 48 49 50 50 50 50 50 50 50 50 51 50 50 51 50 52 53 53 51 47 37 45 46 47 47 48 47 48 46 49 48 43 39 38 29 39 33 29 31 30 33 31 32 34 35 40 41 40 39 39 39 39
46 46 46 47 47 48 49 50 50 50 50 49 49 49 49 51 51 53 54 53 53 48 36 46 46 46 47 48 47 48 46 46 46 41 36 33 37 39 41 39 36 35 32 31 29 36 37 40 40 40 39 39 40 38
45 45 45 46 46 47 48 48 49 49 48 49 49 49 49 50 51 54 50 53 51 55 42 35 47 45 46 46 46 46 47 47 46 40 38 42 44 35 37 36 37 38 37 35 34 41 41 40 39 38 37 33 29 27
44 44 44 45 45 46 47 47 48 49 48 48 49 49 50 50 52 49 47 50 50 53 41 40 43 44 44 46 47 47 48 47 45 43 42 41 41 41 37 35 37 36 33 37 41 40 39 38 37 38 31 29 28 25
43 43 44 44 44 45 46 47 48 48 49 48 48 50 51 50 50 51 52 50 51 50 46 38 40 41 44 44 43 45 44 45 45 44 44 41 41 39 36 38 38 38 37 39 39 39 38 39 37 31 29 22 17 19
43 43 44 44 45 45 45 46 47 48 49 49 50 51 52 50 48 51 49 51 54 49 41 40 35 32 44 41 42 40 43 40 43 41 41 41 39 36 37 38 38 37 35 37 38 38 37 36 27 22 19 19 20 22
43 44 44 45 45 45 45 45 47 48 48 49 49 48 44 46 47 49 48 46 45 48 43 40 41 39 41 39 39 38 38 37 36 37 40 36 36 38 38 37 37 37 38 37 36 34 30 25 20 19 21 23 24 24
44 44 44 45 45 45 46 47 47 48 48 45 43 42 43 46 48 45 40 40 40 38 42 41 41 39 41 37 37 38 35 36 31 32 34 31 31 34 36 38 37 37 36 34 30 29 25 20 20 22 24 25 25 25
44 44 44 45 45 45 46 46 46 45 43 43 43 43 42 39 38 39 38 38 38 35 37 38 39 40 40 41 36 35 34 33 29 36 32 27 32 36 37 35 35 30 28 24 24 21 21 24 24 23 23 23 26 28
43 44 44 45 45 44 43 44 44 44 43 40 37 35 36 32 31 31 30 31 32 33 35 35 35 36 37 37 34 34 32 30 35 31 28 31 33 35 34 26 24 24 23 22 22 23 22 21 21 20 21 25 27 28
41 43 44 45 45 44 43 40 42 43 38 35 33 30 31 29 30 29 30 31 32 33 34 34 32 34 33 34 32 30 31 31 27 26 26 34 36 35 31 24 21 20 20 19 20 22 21 22 23 26 28 28 28 27
41 43 43 42 43 42 41 41 41 42 38 33 33 28 29 31 32 32 32 32 33 35 34 33 32 33 31 29 31 29 26 25 27 27 30 33 33 31 28 26 21 19 20 24 24 21 21 22 24 25 27 29 30 30
39 41 43 43 41 41 41 42 40 39 35 33 31 29 31 31 31 32 32 32 34 33 34 34 31 30 28 29 27 27 26 25 28 31 31 30 29 27 26 25 26 26 26 25 25 25 25 24 24 26 29 30 30 30
39 41 43 41 40 40 40 39 37 34 32 30 30 33 32 32 31 32 33 34 37 34 30 32 28 26 30 27 27 29 27 29 32 31 29 27 26 27 27 27 28 27 27 27 28 27 26 27 27 28 27 28 29 30
40 42 42 42 42 41 38 38 34 33 29 31 30 31 32 33 32 32 34 36 35 32 33 29 30 28 26 25 27 30 30 32 31 26 25 25 25 25 25 24 26 26 26 25 25 26 26 26 27 27 29 30 30 30
41 42 42 40 39 38 33 33 35 28 30 30 31 31 31 31 33 34 34 34 32 32 30 29 27 26 26 26 29 31 29 27 24 25 26 26 25 25 25 25 24 24 25 26 27 27 28 28 28 28 28 28 29 29
41 41 41 41 40 35 32 31 35 31 28 30 30 30 30 29 30 31 33 33 31 31 29 27 28 30 28 28 31 32 31 28 26 25 26 25 25 26 26 26 26 28 28 28 28 28 29 29 30 29 29 29 30 31
40 39 38 38 36 36 33 31 31 31 30 29 31 29 27 28 28 29 31 33 31 31 28 30 31 32 30 29 28 28 28 27 27 26 25 24 26 25 24 25 26 27 28 27 28 28 28 28 29 30 31 31 32 32
38 38 35 36 32 32 31 32 31 30 29 27 28 29 26 25 26 27 29 27 27 29 30 28 28 29 31 30 30 30 29 26 26 26 25 26 25 26 27 27 27 26 26 27 28 28 28 29 30 32 31 31 32 31
36 36 33 32 30 29 28 32 27 26 23 25 27 26 24 24 26 27 24 24 25 28 28 28 29 29 28 27 25 25 26 25 25 26 27 27 27 27 28 28 29 28 28 29 29 30 30 30 32 31 30 30 29 30
36 32 29 29 29 26 30 28 30 28 25 23 23 21 24 24 24 22 21 23 28 30 30 29 27 26 26 24 27 28 28 29 27 27 27 27 27 28 28 27 27 26 28 28 28 28 29 30 31 30 30 27 27 28
28 26 27 24 29 25 23 24 25 24 22 23 22 21 23 23 21 21 20 26 26 27 27 27 28 27 26 26 27 25 24 23 23 22 23 24 21 21 21 23 24 24 23 22 22 24 24 25 26 26 27 27 27 27
23 25 23 25 25 25 24 22 23 23 21 21 23 24 23 21 20 19 23 25 25 25 25 25 24 24 23 24 22 22 22 21 19 19 19 20 22 21 18 17 17 17 19 21 20 19 19 20 22 23 24 26 26 26
22 22 26 28 28 28 26 27 26 23 21 20 22 21 20 17 17 22 23 23 23 24 26 24 22 21 21 21 20 23 19 18 17 17 19 22 20 17 16 14 14 15 16 18 17 17 17 18 19 19 21 23 23 24
26 27 22 25 27 27 23 23 22 20 20 23 22 19 18 17 19 21 21 22 22 25 25 21 20 21 21 22 23 17 15 14 13 11 14 20 15 13 12 13 15 13 12 15 14 15 16 16 18 19 20 21 22 19
25 27 23 21 23 24 22 22 21 23 27 23 20 20 20 17 18 19 20 21 21 20 18 17 17 18 16 16 19 17 13 10 7 6 6 6 6 7 10 11 10 9 10 12 12 13 14 16 17 17 19 18 15 13
23 26 23 21 21 22 25 27 27 27 28 29 24 20 17 15 16 18 18 16 15 16 18 18 14 13 13 12 11 11 15 13 11 9 6 5 7 10 9 8 8 7 8 9 8 9 10 15 15 18 14 13 12 8
25 24 21 21 23 26 26 25 26 26 27 27 27 20 14 12 13 13 13 17 14 11 11 11 11 11 9 10 11 10 8 10 12 13 10 10 10 8 7 7 5 6 8 6 5 6 8 12 13 12 9 8 7 5
24 23 23 22 23 25 24 23 22 22 22 21 21 19 16 15 10 11 11 13 11 10 10 9 9 9 10 12 10 10 13 10 7 6 10 10 8 7 5 4 5 6 6 4 4 4 9 8 7 6 5 3 2 1
20 20 19 19 19 19 21 20 19 18 20 19 19 17 13 12 8 11 13 13 9 8 8 8 7 9 11 5 7 6 5 4 5 10 8 10 5 4 4 5 6 6 3 2 3 7 6 5 2 1 0 -1 -2 -3

GFSWCAN_sfc_30mbdewp_012.txt.gz
Dewpoint
50 49 49 48 49 49 49 49 49 49 49 49 49 50 49 49 51 50 50 53 47 42 44 47 47 40 42 40 35 40 37 39 36 28 23 29 32 30 29 30 29 24 24 27 28 24 15 31 32 27 28 38 39 38
49 49 48 48 49 49 49 49 49 49 49 49 49 50 50 50 51 54 46 53 53 44 45 49 47 47 46 42 42 41 32 39 37 33 34 36 31 35 30 25 33 23 23 22 27 23 28 32 31 33 39 39 39 38
49 48 48 48 49 49 49 49 49 50 50 50 50 50 50 50 51 53 50 52 50 43 42 43 43 47 47 48 46 37 43 44 43 40 39 37 26 36 30 30 31 31 33 30 31 30 32 33 38 39 41 39 39 40
49 49 49 49 49 49 49 49 49 50 50 50 49 49 49 50 51 54 51 53 46 42 31 43 47 46 47 48 48 45 45 47 45 40 37 35 27 36 29 28 32 28 34 31 32 33 38 39 40 40 39 39 38 38
47 48 49 49 49 49 49 49 49 49 49 49 49 49 49 50 51 53 52 51 52 40 33 44 46 46 46 47 47 48 47 45 43 39 36 33 34 37 37 36 33 34 30 29 27 32 32 35 40 40 39 39 40 38
46 46 46 47 48 48 49 49 49 48 48 48 49 49 50 51 53 53 44 52 50 51 40 33 45 45 45 47 46 47 47 46 43 39 37 38 43 35 33 35 37 38 38 35 34 38 39 40 40 40 39 39 36 28
45 45 46 46 46 47 48 48 48 47 47 48 49 50 50 50 49 48 41 49 50 49 39 39 39 44 44 46 45 46 47 46 44 41 39 38 40 40 35 33 35 36 37 36 39 41 39 39 38 38 31 29 23 20
44 44 45 45 46 46 47 47 48 48 47 48 49 50 51 50 50 50 50 49 51 46 41 35 37 39 44 43 43 43 43 44 44 42 42 41 40 38 37 38 39 38 37 38 41 40 39 39 37 30 29 20 20 20
44 44 45 45 45 45 46 47 48 48 48 49 50 51 48 48 47 50 49 49 52 45 39 38 32 29 42 40 40 40 40 40 40 41 41 41 38 36 36 37 38 39 39 38 40 38 39 35 29 21 21 23 21 22
44 45 45 45 45 45 45 46 48 48 49 50 48 43 42 45 46 48 46 43 43 45 41 39 39 37 41 38 38 38 37 37 36 37 40 37 36 39 38 39 39 37 37 39 37 35 27 26 25 25 24 24 23 23
44 45 45 46 46 46 46 47 48 48 47 46 44 42 44 45 46 43 38 38 39 39 41 40 39 38 40 37 38 37 36 36 33 33 35 31 31 33 36 37 38 37 35 35 34 32 31 31 29 27 25 24 23 23
44 45 44 44 44 44 45 46 45 44 43 44 43 43 40 39 40 38 36 37 37 35 36 38 38 39 40 39 37 35 34 34 29 34 33 28 30 34 35 31 28 31 32 32 32 33 32 30 26 22 18 16 20 26
44 45 45 44 42 42 43 43 44 44 43 40 37 36 37 33 33 33 31 32 33 33 34 35 36 36 37 37 35 34 31 30 34 31 29 30 35 27 28 29 29 31 32 33 32 30 25 21 18 16 16 22 25 26
43 43 44 44 43 42 41 41 43 41 38 36 34 31 31 29 29 29 30 31 32 33 33 33 32 34 33 34 33 30 31 31 28 26 26 32 34 32 33 32 29 25 26 24 22 21 18 19 22 25 26 27 27 26
41 43 42 42 42 42 42 41 41 40 35 33 32 28 28 30 31 31 32 32 33 34 34 33 32 33 31 30 30 29 26 25 27 26 29 32 34 32 27 23 23 21 24 24 22 21 22 22 23 24 25 26 28 28
40 42 42 41 40 40 41 40 39 36 33 32 31 29 31 30 30 32 32 31 33 33 33 33 31 30 28 29 27 27 25 23 27 31 33 33 32 29 32 27 25 26 25 24 25 26 25 24 24 25 27 28 28 28
36 39 42 41 42 42 40 38 34 32 31 29 30 33 32 31 31 32 33 33 36 34 30 31 27 26 30 27 26 29 25 28 31 33 33 30 27 27 27 27 28 28 28 28 28 27 25 26 26 27 26 26 28 29
40 42 42 40 41 40 36 36 32 30 28 30 29 31 31 32 32 32 34 34 33 31 32 29 30 28 26 24 26 30 32 33 33 31 28 27 26 25 25 24 25 24 24 24 25 26 26 26 26 26 27 28 29 28
41 42 41 41 40 36 32 33 34 27 28 30 31 31 31 31 31 33 33 33 32 32 29 28 25 26 27 27 29 30 29 25 25 25 25 26 26 26 26 26 25 25 25 26 27 27 27 28 28 28 29 28 28 28
40 39 39 39 38 34 30 30 34 29 26 28 30 30 29 29 29 31 33 33 31 31 27 25 27 28 27 28 31 31 29 28 26 25 25 25 26 26 25 25 25 27 27 28 28 28 28 29 29 28 28 28 29 30
37 38 38 36 36 34 32 30 30 31 30 27 30 28 27 28 26 28 30 32 31 29 27 29 29 29 28 28 28 28 27 26 26 24 24 22 24 26 26 27 28 28 27 27 26 27 27 27 28 29 28 30 30 29
37 38 36 36 31 32 31 32 31 30 27 26 28 27 25 24 24 25 28 26 27 27 30 28 28 30 29 29 29 29 27 25 26 27 27 27 26 27 28 28 26 25 26 27 27 26 27 27 28 29 30 30 30 29
36 36 33 32 28 27 26 33 29 25 23 24 29 25 24 24 26 27 23 23 24 28 28 28 28 29 27 28 28 27 28 27 26 25 26 26 26 25 23 23 24 23 22 23 24 24 24 24 25 25 26 28 29 28
36 31 27 26 27 25 29 27 29 28 25 24 24 22 23 23 24 22 20 23 28 27 27 27 27 26 27 26 23 23 22 23 22 22 23 20 19 20 22 23 22 19 18 20 19 19 18 19 19 20 21 22 24 25
28 24 26 23 26 24 22 22 25 24 22 23 22 23 22 23 19 20 20 24 25 24 24 24 25 26 25 23 22 22 21 19 17 17 19 20 20 18 17 17 18 16 15 14 15 14 14 15 16 17 18 19 19 21
22 23 23 22 23 24 22 20 22 22 23 23 23 23 22 20 19 19 22 23 23 23 23 23 21 21 21 21 20 19 17 18 17 16 18 18 15 13 12 11 11 11 12 12 13 11 11 12 12 14 14 15 18 21
21 21 25 28 27 27 25 26 27 24 22 21 21 21 20 17 17 20 21 21 22 24 23 22 22 21 20 20 19 15 12 12 11 11 17 14 12 11 10 9 8 9 10 9 10 10 9 10 10 11 13 14 15 18
25 26 21 24 26 27 23 23 23 22 23 25 22 19 18 16 16 18 19 22 23 21 20 20 19 19 19 17 14 10 8 7 7 12 15 10 9 9 9 8 8 8 7 7 8 9 8 9 10 11 13 13 14 12
25 27 26 22 24 24 24 23 23 25 27 22 18 19 16 15 15 18 18 18 19 18 15 14 14 14 13 14 12 10 8 6 4 3 3 2 2 4 8 5 5 4 4 5 6 6 6 9 10 13 14 11 9 8
22 25 22 20 21 22 24 25 26 26 27 24 20 17 14 13 14 15 15 14 14 13 13 11 9 9 8 8 8 10 10 8 7 5 3 3 5 7 5 3 3 3 4 5 4 3 4 4 7 12 9 9 6 4
26 25 21 20 22 24 25 25 25 25 25 25 18 14 10 10 12 13 12 11 9 8 8 8 7 7 8 7 7 6 6 6 5 6 7 7 6 5 2 2 2 3 3 3 2 2 3 4 7 6 4 3 2 1
22 21 21 21 21 24 22 21 21 20 20 20 19 14 12 10 6 9 11 8 7 7 6 5 5 6 7 7 5 3 3 3 5 6 8 7 3 2 2 3 3 3 3 -1 -1 1 4 3 2 0 0 -1 -2 -3
18 17 17 16 17 19 19 18 16 17 18 17 15 13 10 8 5 8 12 7 6 6 4 4 4 5 5 3 1 1 2 3 4 4 5 7 4 3 3 3 2 -1 -3 -3 -2 -0 1 -0 -2 -3 -3 -4 -5 -5

GFSWCAN_sfc_30mbdewp_015.txt.gz
Dewpoint
49 48 48 48 48 48 49 49 49 49 49 49 50 49 50 51 51 48 50 52 44 41 45 47 45 40 41 39 34 39 36 37 33 28 22 24 28 29 28 29 29 27 26 26 24 20 13 27 31 27 27 31 38 38
48 48 48 48 48 49 48 49 49 49 49 49 50 50 50 51 53 50 48 53 50 43 44 48 47 48 46 40 40 40 34 37 35 30 29 32 29 33 29 22 31 24 23 20 24 19 27 31 31 33 34 35 39 39
48 48 48 48 48 48 48 49 49 49 49 48 48 48 49 51 52 50 51 52 44 41 42 42 44 47 47 47 45 37 40 42 39 38 36 35 25 34 27 29 30 31 31 26 28 26 29 30 32 36 38 38 39 39
48 48 48 48 48 48 49 49 50 49 48 48 48 48 49 51 52 52 51 51 42 38 34 42 47 45 47 49 48 43 44 45 42 38 34 32 24 34 29 29 31 31 33 30 31 32 35 37 37 37 40 40 39 39
48 48 48 48 48 48 49 49 48 48 48 48 49 49 50 52 52 51 50 50 50 35 34 42 45 46 46 48 47 47 45 43 41 37 35 33 32 34 35 34 31 34 28 27 23 28 32 32 38 40 39 39 39 37
48 48 49 49 49 49 49 48 47 47 48 48 49 49 50 52 54 45 37 49 50 47 37 36 44 44 45 47 47 46 46 44 41 39 37 36 38 35 33 34 34 36 36 32 29 33 34 36 39 40 39 39 40 30
46 47 48 48 48 48 48 48 47 47 48 49 49 50 49 49 48 43 36 48 49 46 36 38 39 42 44 45 44 45 46 45 43 40 37 36 40 38 35 31 32 34 36 37 39 40 39 40 39 40 38 34 27 22
45 46 46 47 47 47 48 48 48 47 48 48 50 50 50 50 50 48 49 48 48 42 38 32 35 38 43 42 42 42 42 43 42 41 40 40 39 36 36 36 37 37 37 37 38 40 39 40 38 31 24 21 21 23
45 45 45 45 46 47 47 48 48 47 48 49 50 47 46 46 46 49 48 48 48 41 36 35 29 29 41 39 39 40 39 40 40 40 40 40 37 36 37 37 38 38 38 38 40 40 39 37 31 22 24 28 30 30
45 45 45 45 44 45 47 47 48 47 48 48 46 40 40 45 46 47 44 41 41 43 40 37 37 36 41 38 38 38 36 37 36 37 40 37 36 38 37 36 37 39 39 40 38 37 30 24 27 32 33 33 32 24
45 45 45 45 46 46 47 48 48 48 47 45 43 42 45 45 43 40 37 36 39 38 39 38 37 37 40 38 38 36 36 35 32 33 35 32 31 32 34 30 31 33 35 35 33 32 32 33 33 33 32 29 23 23
44 43 43 43 45 46 46 46 45 44 44 44 43 42 39 38 38 36 34 36 36 35 36 38 37 39 39 38 37 36 34 34 30 34 33 28 29 27 30 32 33 34 34 34 35 35 35 35 35 33 26 21 22 26
44 44 43 43 42 43 44 45 44 43 42 40 38 37 37 35 35 33 32 32 33 33 34 35 36 36 37 37 35 35 32 30 34 30 29 30 30 32 32 33 34 35 35 35 35 36 34 27 22 19 20 22 25 24
42 42 42 41 41 42 42 43 42 40 39 36 35 32 32 30 29 30 30 31 32 32 33 34 33 34 33 35 33 31 31 31 28 26 25 30 31 32 34 33 32 32 31 30 26 22 22 23 23 25 24 26 26 25
42 41 41 41 42 41 41 40 40 38 34 33 31 28 28 29 31 31 32 32 32 34 33 33 32 33 31 30 30 29 26 25 26 24 29 31 32 32 31 31 30 26 25 23 22 23 22 22 23 24 25 26 27 27
41 40 42 42 42 40 40 39 37 34 32 31 30 29 31 30 30 31 32 31 34 33 33 33 31 29 28 29 27 26 24 22 25 29 33 33 32 31 33 31 27 27 27 27 27 27 26 25 24 25 26 26 26 26
40 40 41 40 41 39 38 36 33 31 30 28 29 33 32 32 31 32 33 33 36 33 29 30 27 26 29 27 26 28 25 28 31 32 34 32 33 33 32 30 29 28 28 27 25 24 25 26 26 26 25 26 27 28
39 41 41 40 39 36 35 35 31 29 27 30 29 30 31 32 32 32 33 33 32 31 31 28 30 27 25 24 26 29 31 32 33 32 32 30 28 26 26 24 24 24 24 25 25 26 27 26 27 27 28 28 28 28
39 39 39 39 38 33 31 33 32 27 27 31 31 31 31 30 31 32 32 33 32 31 28 27 24 25 26 28 29 30 31 30 30 26 26 26 26 26 26 25 25 26 26 27 28 28 28 28 28 28 28 28 27 27
38 38 38 38 37 31 28 29 32 27 26 28 30 30 29 29 29 30 31 32 31 30 27 25 26 27 26 26 28 29 28 26 25 25 25 25 26 26 27 27 27 27 27 27 27 27 26 26 26 27 27 26 26 27
36 37 37 35 35 33 31 30 29 31 29 28 29 28 27 28 27 28 30 32 30 27 25 28 28 29 28 28 28 27 27 26 25 24 23 24 27 27 26 25 25 25 25 25 24 24 24 24 24 25 25 25 25 26
36 37 34 33 30 30 30 32 31 30 28 28 28 27 25 24 25 26 28 25 26 26 29 28 28 29 28 29 28 27 27 27 26 26 26 26 24 21 22 24 22 20 22 21 20 19 19 20 21 19 20 21 23 24
35 35 32 30 27 26 25 32 29 26 24 24 29 26 25 25 26 27 24 23 25 28 28 28 28 28 26 25 23 22 24 23 22 22 22 23 22 22 21 20 18 16 15 15 17 17 15 16 15 15 16 17 17 18
34 29 26 25 25 23 25 26 28 27 27 25 25 23 23 24 25 24 20 23 27 26 25 26 27 26 25 23 21 19 19 19 20 19 20 20 19 19 18 17 15 13 11 11 13 12 11 10 11 12 12 13 13 14
24 22 25 22 25 23 21 21 23 24 21 22 23 22 22 23 20 18 19 23 23 23 23 24 25 24 22 21 21 19 17 18 18 17 17 16 12 11 12 12 13 11 9 7 6 8 8 8 8 9 9 10 10 12
20 22 22 21 21 21 20 19 20 21 21 22 23 23 22 21 18 17 20 21 22 21 22 22 21 20 19 20 18 15 12 14 16 15 13 12 10 7 6 5 5 5 8 7 5 4 5 6 6 6 7 8 9 10
21 21 24 28 26 26 24 25 25 23 21 21 20 21 21 17 16 17 20 20 21 21 22 23 22 20 19 15 12 10 9 10 10 14 12 10 9 7 5 3 2 4 6 5 4 3 3 3 3 4 5 7 10 10
24 25 21 24 25 26 23 23 22 22 23 24 22 19 18 16 14 16 18 20 20 20 18 17 18 16 14 11 9 7 5 9 14 12 10 7 6 7 6 5 4 5 3 2 2 4 4 3 3 4 6 8 7 7
24 26 25 22 23 24 23 22 22 24 25 24 20 17 13 13 12 14 16 17 18 16 13 12 12 12 11 10 9 7 5 4 2 1 1 1 1 3 5 0 0 1 1 1 2 4 5 6 6 7 9 8 6 4
21 24 22 19 20 21 23 24 23 25 25 20 18 15 12 11 12 13 14 13 11 9 8 7 6 7 6 7 6 5 5 5 4 3 2 1 3 4 1 0 1 0 -0 -0 0 -1 1 1 3 3 1 1 1 1
26 25 22 20 21 23 24 25 24 25 26 20 16 11 8 9 11 11 10 8 8 7 6 5 5 4 5 5 4 4 4 2 3 4 4 4 3 1 2 1 0 -1 -1 -2 -4 -3 -1 0 -1 -2 -3 -3 -3 -3
20 21 20 19 20 21 18 19 20 19 20 19 14 10 9 5 5 7 9 6 4 4 3 2 4 5 4 3 2 1 2 3 3 2 3 4 3 2 0 0 -0 -1 -5 -6 -5 -3 -2 -3 -4 -5 -5 -6 -6 -6
16 15 15 15 17 18 17 14 10 14 14 14 11 9 7 6 4 7 8 4 4 3 2 2 3 3 3 -1 -1 -0 1 1 1 3 3 4 3 1 -0 -2 -2 -4 -5 -6 -6 -5 -4 -5 -6 -7 -7 -7 -8 -8

GFSWCAN_sfc_30mbdewp_018.txt.gz
Dewpoint
48 48 48 48 47 48 49 49 49 49 49 49 50 50 51 51 49 50 50 52 43 42 45 47 44 38 39 38 33 39 36 36 31 27 22 22 24 25 26 26 29 24 25 24 22 19 13 25 31 26 26 29 34 36
48 48 47 47 48 48 48 48 49 49 49 48 48 49 51 50 50 49 49 53 49 43 44 48 47 48 46 39 39 40 35 36 34 30 26 29 27 31 28 19 31 24 25 20 22 18 24 29 32 32 32 30 36 36
48 47 47 48 48 48 48 48 49 48 48 48 48 49 50 52 50 51 51 49 43 41 42 43 44 47 48 47 44 36 37 40 36 35 31 30 21 32 23 27 29 31 30 25 26 24 26 30 30 32 34 34 37 39
47 47 48 48 48 48 48 48 47 47 48 48 49 50 51 51 51 51 49 50 39 38 37 42 46 45 47 49 47 43 42 41 40 37 32 30 22 33 28 28 29 30 31 29 29 29 31 32 35 34 34 38 38 39
47 48 48 48 48 49 48 47 47 47 48 48 49 50 51 51 50 50 50 50 48 32 34 41 44 45 47 48 46 45 41 40 38 35 33 29 30 32 34 32 29 33 27 25 22 25 26 27 30 37 38 38 39 39
48 47 48 48 48 48 47 47 47 48 48 48 49 49 51 52 48 37 36 48 49 44 37 35 43 43 45 46 46 46 45 42 40 38 36 35 36 33 32 32 32 33 33 31 27 31 32 33 37 39 39 40 39 35
48 48 48 48 48 47 47 47 47 47 48 49 49 48 48 48 48 38 35 47 47 45 35 37 39 40 43 44 44 44 45 44 41 39 37 36 39 36 33 31 32 33 34 35 37 38 37 39 38 40 40 33 26 23
47 48 48 48 48 48 47 46 47 47 48 49 49 49 49 49 48 47 48 47 47 39 36 30 34 39 42 41 41 41 41 42 41 40 38 37 37 36 35 36 38 38 39 39 39 39 39 39 38 31 27 23 23 29
45 46 47 47 47 48 48 47 46 47 49 49 46 46 45 46 46 47 47 46 45 39 32 33 27 28 42 39 38 39 39 39 39 39 39 39 36 35 36 34 35 36 37 38 40 40 39 33 24 24 27 31 34 34
45 44 45 46 47 47 48 48 46 48 48 46 44 39 40 45 46 45 41 40 40 41 40 35 36 35 41 38 37 37 36 36 34 37 39 37 36 35 31 32 32 33 35 38 38 33 26 31 33 34 34 34 34 32
44 45 46 46 46 47 47 47 48 47 46 43 41 41 45 43 42 38 37 36 38 36 38 37 37 36 39 37 38 36 35 34 31 32 35 33 31 28 32 33 34 34 34 34 34 34 34 34 34 34 34 32 30 28
43 43 44 45 46 47 46 45 45 44 43 43 43 41 38 38 37 34 33 36 35 34 35 37 37 39 37 37 36 36 34 33 29 34 32 28 27 31 33 33 34 34 34 33 33 33 34 34 34 33 31 29 27 28
42 42 42 42 43 44 44 43 43 43 41 40 38 37 36 35 34 31 30 32 32 33 34 35 36 35 37 36 35 35 33 31 33 30 29 28 32 34 32 33 32 34 33 31 30 29 28 28 28 27 25 25 27 27
42 42 42 42 41 42 43 42 41 39 39 37 36 34 32 31 30 30 31 31 31 32 33 34 33 34 33 35 33 32 31 31 28 25 25 29 30 31 32 33 33 31 30 29 27 26 26 28 27 27 26 27 27 26
41 41 40 41 41 40 40 39 39 37 35 33 31 28 28 30 31 31 32 32 32 34 33 33 33 33 32 31 30 29 26 24 24 23 28 30 31 31 31 30 26 25 24 23 24 25 24 24 24 24 25 26 26 26
39 39 40 41 41 39 39 36 35 34 32 30 30 28 30 29 29 31 32 31 33 33 33 33 31 29 28 29 27 25 24 22 24 29 32 32 31 32 32 29 27 29 29 28 28 27 25 24 24 25 26 26 26 26
40 39 41 41 40 37 37 34 32 30 29 28 29 33 32 32 31 32 33 33 35 33 30 30 27 26 29 26 25 28 25 27 31 32 33 33 32 33 33 33 30 28 27 25 25 26 26 27 26 27 27 28 28 28
37 38 40 40 38 34 34 33 29 28 28 31 29 30 31 32 32 32 32 32 31 31 30 28 29 27 25 23 24 28 30 32 33 32 33 33 33 30 28 25 24 25 26 27 27 28 27 27 27 26 27 27 26 26
38 38 38 39 36 32 31 32 29 26 29 31 31 31 31 30 30 32 32 32 31 29 29 26 24 24 25 28 29 30 31 31 31 31 28 27 26 26 26 27 27 27 27 27 26 26 25 26 26 25 25 24 23 24
36 37 37 37 35 30 28 29 30 27 26 29 30 29 28 28 29 30 31 31 31 29 27 24 25 26 25 26 27 28 30 28 27 25 24 26 27 27 26 25 25 25 25 25 23 21 21 21 20 20 18 19 20 20
35 36 35 34 33 31 30 29 28 30 28 28 29 28 27 28 27 28 29 31 28 26 25 27 27 28 27 27 27 27 26 26 24 24 24 25 25 24 23 23 22 22 20 19 18 18 17 16 17 17 15 15 16 18
34 35 32 30 29 28 29 31 29 29 27 29 28 27 25 24 25 26 28 26 25 26 28 27 28 28 28 26 26 27 26 25 25 25 23 22 20 21 20 19 17 16 16 15 16 15 13 13 13 12 12 12 14 15
34 32 28 26 23 24 25 30 27 26 21 24 28 25 25 25 26 28 25 26 26 28 28 28 27 27 25 24 22 21 21 20 19 20 21 21 20 19 17 14 12 9 9 9 11 12 11 9 9 8 9 9 9 9
31 27 25 24 23 22 24 23 26 25 25 23 24 22 23 24 25 24 20 22 26 26 26 27 26 24 24 21 18 17 18 20 18 18 19 19 16 15 15 13 11 9 7 6 6 5 5 5 6 5 5 5 6 7
19 22 22 21 23 21 19 19 21 22 20 20 22 21 22 23 20 19 18 22 22 21 22 25 25 24 21 20 18 16 15 18 17 14 13 11 9 8 9 8 9 8 7 4 2 2 2 2 2 3 2 3 4 5
19 21 20 20 20 20 19 18 19 20 20 21 21 22 22 21 18 17 18 19 20 20 21 21 21 19 18 19 16 14 12 12 16 12 10 8 6 3 1 0 0 1 5 4 1 -0 -0 1 1 1 1 2 4 6
19 21 22 25 25 25 23 23 24 22 21 20 21 20 20 17 15 15 19 19 19 19 19 20 22 18 15 12 9 9 11 12 13 11 10 8 7 5 3 1 0 2 4 3 0 -1 -1 -1 -1 -0 1 2 4 4
24 23 21 22 23 25 22 22 21 21 22 23 22 18 17 14 12 14 16 19 18 17 15 14 13 12 10 9 8 7 10 11 10 9 7 6 5 4 3 1 0 2 1 -0 -1 -1 -0 -0 1 2 3 4 3 2
23 24 23 21 21 22 21 20 21 23 24 23 19 16 12 11 11 12 14 15 15 14 11 10 9 10 8 7 5 4 3 3 1 -0 -1 -1 -0 2 3 -1 -1 -1 -2 -3 -1 1 3 5 4 3 -0 1 1 1
20 23 20 17 19 19 21 23 22 24 22 19 16 13 11 10 10 12 12 11 9 7 6 6 6 7 6 5 4 4 3 1 3 2 1 -0 1 2 0 -1 -1 -1 -4 -5 -6 -5 -2 -2 -3 -5 -5 -6 -6 -6
25 25 23 20 20 22 24 24 25 26 23 16 13 10 8 8 9 9 7 6 6 5 4 4 4 1 3 3 2 2 2 0 -0 1 1 0 0 1 0 -1 -2 -5 -6 -7 -7 -6 -5 -4 -6 -7 -7 -7 -8 -8
20 19 18 17 19 17 16 17 16 17 18 18 10 8 6 5 4 6 6 5 1 0 1 0 3 4 3 1 -1 -1 0 1 1 1 1 1 2 1 -1 -2 -5 -6 -6 -7 -8 -6 -6 -7 -7 -8 -9 -9 -10 -10
15 14 14 15 17 18 14 11 7 11 12 11 8 7 4 5 3 6 5 1 3 1 1 1 2 1 1 -1 -2 -1 -1 -1 -2 -1 1 1 0 0 -2 -4 -6 -6 -6 -6 -7 -8 -7 -7 -8 -9 -10 -11 -11 -12

GFSWCAN_sfc_30mbdewp_021.txt.gz
Dewpoint
48 48 48 48 47 48 49 49 49 49 49 49 49 49 49 48 50 51 51 51 42 43 45 46 41 38 38 38 34 38 36 35 30 26 24 23 22 22 22 24 27 22 23 23 21 18 11 24 31 23 23 29 29 35
48 47 47 47 47 48 49 49 49 48 47 48 50 50 48 48 48 52 49 52 48 44 45 47 47 47 46 39 40 40 35 36 33 30 27 27 27 29 26 20 31 22 26 22 22 18 24 26 31 32 33 30 31 35
47 47 47 48 48 48 49 49 47 47 47 48 50 50 48 47 49 51 49 49 44 42 43 44 45 47 48 47 44 37 36 39 35 35 29 28 20 30 23 26 28 30 30 26 25 24 26 28 29 30 32 32 34 36
47 47 47 48 48 48 47 47 47 48 48 49 50 50 50 50 51 46 47 48 41 40 38 42 45 45 47 49 46 42 40 40 38 36 30 28 21 32 27 27 28 29 31 29 28 28 29 29 32 33 34 35 35 38
47 47 48 48 47 47 47 47 47 48 49 50 50 51 51 51 50 50 50 49 47 35 38 41 44 44 47 46 44 42 40 38 36 32 29 26 30 31 33 32 27 32 28 26 23 25 27 27 29 34 35 36 38 39
47 48 47 47 47 46 47 47 47 48 48 49 51 51 50 50 47 43 40 47 47 44 40 38 42 42 44 45 45 45 43 41 39 36 35 34 36 33 31 28 30 32 33 32 28 32 32 33 35 37 38 39 40 38
48 47 47 46 46 46 47 47 48 48 48 48 48 49 49 48 48 36 35 45 46 44 35 37 39 40 42 43 43 44 45 42 41 39 36 36 38 34 33 31 36 37 38 38 38 38 37 38 38 40 34 27 27 28
48 48 48 47 47 46 46 47 48 48 48 48 48 48 48 48 48 47 48 46 46 36 34 31 35 39 42 41 40 41 41 42 41 38 37 36 37 36 35 35 33 33 34 39 38 40 39 34 29 25 27 32 34 34
47 47 48 48 47 46 47 47 48 47 46 45 46 47 45 46 45 46 46 45 44 37 30 30 26 29 41 38 38 39 39 39 39 38 38 39 35 33 30 31 32 33 33 34 35 28 29 30 31 33 35 34 32 32
46 46 47 47 48 47 47 47 48 47 46 44 42 39 40 45 45 44 40 38 39 40 40 33 35 34 40 38 37 37 37 35 33 36 39 37 33 30 33 33 34 33 34 34 33 30 33 33 33 33 33 33 33 32
45 46 46 47 47 47 47 47 46 45 45 42 41 42 45 43 40 37 35 34 36 36 37 36 37 35 39 37 37 35 35 34 31 32 35 33 29 28 33 34 34 35 35 35 35 35 35 34 33 32 32 32 31 31
44 44 45 46 46 45 46 47 46 44 43 43 43 41 39 37 35 34 33 35 34 33 35 37 37 38 37 38 36 35 33 33 29 34 33 29 28 32 32 33 32 32 32 32 33 32 32 30 29 29 30 30 29 29
43 43 43 44 44 43 42 41 42 42 41 40 38 36 35 34 32 29 30 31 31 33 34 35 35 35 36 36 35 34 32 30 33 30 29 28 31 32 32 32 32 30 30 29 29 30 30 29 28 28 26 27 28 28
41 41 42 42 42 42 42 42 39 40 39 35 35 32 31 31 31 31 31 32 31 33 34 35 34 34 34 35 33 32 31 31 28 26 25 29 30 31 32 33 32 30 30 27 25 25 25 26 26 26 26 27 27 26
40 40 40 41 41 41 40 41 39 38 36 33 32 27 27 29 30 31 32 32 32 33 34 34 33 34 32 31 30 29 26 24 24 23 27 30 31 31 32 30 25 25 24 25 27 27 25 25 24 25 26 27 26 26
39 37 38 41 39 39 37 36 35 34 33 32 31 28 31 29 29 31 32 31 34 33 34 34 31 30 28 29 27 26 24 22 23 29 31 31 30 31 31 28 28 29 28 28 26 26 26 26 26 27 27 27 26 27
35 35 39 40 38 36 36 33 32 30 29 29 30 32 32 31 30 31 32 32 34 33 30 30 28 26 28 26 25 27 25 26 30 31 32 32 32 32 33 33 30 27 25 26 27 28 27 26 25 25 24 25 24 25
35 37 39 39 35 34 34 31 28 28 29 30 29 29 31 31 32 32 32 31 31 31 30 28 28 26 25 23 24 27 29 31 33 32 32 33 33 33 32 25 26 27 27 27 26 25 25 24 22 22 21 19 20 20
37 37 37 37 34 31 30 30 28 26 29 30 30 30 30 30 31 31 32 31 30 28 28 25 24 23 25 27 28 28 29 30 31 31 28 27 27 27 27 28 27 27 25 24 22 21 21 20 19 18 15 15 15 16
35 35 35 36 33 28 27 29 29 26 26 29 30 28 28 28 29 30 31 31 30 28 26 24 24 25 25 26 26 29 31 30 27 25 25 26 25 24 24 23 23 22 19 19 19 17 15 15 14 14 12 12 12 12
32 34 33 32 31 31 29 28 27 28 28 28 29 27 27 28 27 28 29 30 28 26 25 27 26 27 27 27 27 27 26 26 25 25 25 24 23 21 20 20 19 16 15 15 15 13 12 11 11 10 10 10 10 11
33 33 29 28 26 28 28 30 29 28 27 28 27 27 24 23 25 27 29 27 26 27 28 27 28 28 26 25 24 25 25 25 24 23 22 21 20 18 15 14 13 12 11 10 11 11 9 9 8 7 7 7 8 8
31 28 25 23 22 23 24 28 25 25 20 24 26 24 24 24 26 27 24 26 26 27 28 28 26 26 24 24 22 21 20 20 20 20 20 19 18 15 13 11 9 8 7 6 6 5 5 5 5 4 5 5 5 6
28 25 22 21 20 21 22 22 24 24 23 22 23 21 23 23 24 23 19 23 25 25 26 26 25 22 22 20 18 19 19 18 17 16 17 16 14 14 12 11 8 6 4 4 3 2 2 2 2 2 2 2 3 4
17 21 19 19 20 19 18 18 20 19 19 19 20 20 21 22 20 19 18 19 19 20 21 24 25 23 18 17 17 16 17 19 15 12 11 11 10 9 6 4 7 5 4 3 2 1 0 0 0 0 1 1 2 3
18 21 20 19 20 20 18 18 18 19 19 19 19 19 20 20 17 14 14 16 18 18 18 20 19 17 15 17 15 14 13 15 12 10 8 6 4 3 1 -0 -0 1 4 3 -0 -1 -0 -1 -1 -0 0 1 2 2
19 19 22 25 24 23 20 20 21 20 19 19 20 20 19 16 12 13 18 17 17 16 16 16 19 16 13 12 11 12 12 12 11 9 8 6 5 3 2 0 -0 1 3 2 -1 -2 -3 -3 -2 -0 0 2 3 2
21 22 19 21 22 22 21 20 20 19 20 22 22 17 16 14 12 13 14 17 16 15 13 12 12 11 9 8 9 10 10 9 8 7 6 5 4 4 2 1 0 1 -1 -2 -2 -2 -2 -2 -1 1 1 0 -0 0
22 22 21 19 19 20 20 19 19 21 23 21 18 14 11 10 10 10 12 14 14 13 11 9 8 9 7 5 4 3 2 4 2 -1 -1 -0 -1 1 2 1 -1 -1 -3 -4 -3 -1 3 4 3 0 -3 -4 -4 -4
20 22 19 16 18 18 20 22 21 22 19 17 15 12 10 8 9 10 10 10 8 7 5 4 4 6 4 4 3 3 2 1 2 1 -0 -0 1 2 1 -1 -1 -2 -5 -5 -6 -5 -3 -3 -5 -6 -7 -7 -7 -7
23 23 21 19 18 20 19 17 23 23 18 13 11 9 6 7 8 7 6 5 4 4 4 3 3 0 3 2 1 1 1 0 -1 -1 -1 -1 -1 -1 -1 -1 -3 -5 -6 -6 -7 -6 -7 -6 -7 -8 -8 -8 -9 -10
17 17 16 16 17 15 13 15 15 16 16 13 7 6 5 4 3 5 5 3 1 1 0 -0 3 4 2 -0 -2 -2 -1 0 1 -1 -2 -1 -0 0 -1 -2 -5 -7 -6 -6 -7 -7 -8 -8 -8 -9 -9 -10 -11 -11
14 13 13 15 15 16 12 9 6 10 10 8 6 4 3 3 2 5 3 1 2 2 1 1 1 0 1 1 -1 -1 -2 -2 -4 -3 -2 -2 -3 -2 -2 -4 -6 -6 -6 -7 -7 -8 -8 -9 -8 -10 -11 -12 -12 -13

GFSWCAN_sfc_30mbdewp_024.txt.gz
Dewpoint
44 43 42 45 48 48 48 48 48 49 48 48 48 48 49 49 49 53 53 53 47 46 42 46 42 40 40 40 38 39 37 38 36 32 34 32 31 27 25 24 29 26 29 28 27 24 18 24 29 23 27 31 31 31
43 46 48 48 48 48 48 48 48 48 48 48 48 48 49 49 49 53 50 52 52 46 46 49 48 48 47 42 41 40 40 38 37 38 35 36 31 30 32 27 30 26 28 27 26 24 27 28 29 32 34 32 32 34
48 48 48 48 48 48 48 47 47 48 48 48 48 48 49 49 49 52 51 51 50 48 46 46 46 48 49 49 47 40 41 41 39 41 39 39 26 35 29 31 31 30 31 30 27 24 26 28 29 29 30 31 32 32
47 47 48 48 48 48 47 47 46 47 47 48 48 49 48 48 50 51 50 50 48 47 43 45 47 47 48 49 48 45 44 43 40 40 38 33 29 35 34 32 31 31 31 30 30 29 28 29 30 31 32 35 36 36
47 47 47 47 47 47 47 47 46 48 48 48 49 48 48 49 50 51 51 51 48 42 43 45 46 46 47 46 44 44 42 40 40 38 31 34 36 36 36 35 32 32 30 30 28 31 30 30 33 35 36 37 39 39
46 46 46 46 46 47 47 47 48 49 49 49 49 49 49 49 49 49 44 50 47 48 46 43 45 44 46 46 46 45 44 43 41 40 39 37 37 38 33 32 36 37 38 38 36 38 38 38 38 40 40 35 34 34
46 46 46 46 46 47 47 48 48 49 49 49 49 48 46 46 48 41 41 48 46 47 45 41 43 43 44 46 45 46 46 45 44 42 39 40 39 37 36 34 35 35 35 36 38 40 38 38 36 33 33 34 34 35
46 46 45 46 46 47 47 47 47 48 49 49 49 48 48 48 49 48 47 46 46 41 42 37 38 43 44 43 41 43 43 45 42 39 39 38 39 39 37 34 34 34 35 38 34 36 36 32 32 34 35 35 34 33
47 47 45 46 46 47 47 46 46 45 47 47 47 47 49 48 48 48 46 45 47 43 33 32 34 36 42 39 40 41 42 39 40 39 40 40 36 35 32 32 33 34 34 35 34 34 34 34 35 35 34 33 32 32
47 47 47 47 47 47 46 46 45 45 44 45 46 41 42 47 44 45 43 41 41 42 41 33 38 36 40 40 37 39 39 36 35 37 40 38 30 32 33 34 34 35 35 36 34 32 32 32 32 33 33 34 32 29
46 46 47 47 47 47 47 45 44 45 46 44 44 43 47 43 43 40 36 35 38 35 38 37 39 37 40 38 36 37 36 36 33 35 36 34 29 30 34 34 35 36 36 36 35 34 33 32 33 32 30 31 32 32
45 45 44 44 43 45 45 44 45 46 45 45 45 44 42 39 38 33 34 36 35 33 36 37 37 39 38 39 37 36 34 34 31 36 33 30 29 32 33 33 33 33 33 32 31 30 30 30 30 31 29 28 27 28
43 43 43 43 43 41 42 43 42 42 42 44 39 36 37 35 31 29 27 32 32 34 35 36 35 37 38 39 35 35 32 32 35 31 30 29 30 31 32 31 30 29 29 28 26 25 25 26 27 28 28 28 30 28
41 42 42 42 42 42 40 39 40 42 41 37 35 31 32 32 31 31 32 33 32 33 35 36 34 36 35 35 34 33 31 32 29 27 27 28 30 32 32 31 28 26 27 26 25 26 27 27 27 28 29 29 29 28
39 40 40 41 41 41 40 37 38 40 37 33 32 28 28 29 31 31 32 32 32 34 35 35 35 36 33 33 32 31 28 28 28 27 28 31 32 32 32 30 28 26 26 29 28 27 27 28 29 29 29 27 27 28
37 36 38 40 39 38 37 37 36 37 35 33 32 29 31 30 30 31 32 31 34 34 35 34 32 32 30 31 30 29 28 26 28 30 31 31 31 32 30 27 29 31 29 27 28 28 29 28 28 27 27 23 24 24
35 35 38 39 37 36 35 34 33 31 32 31 30 31 32 31 30 31 32 31 34 34 30 32 30 28 31 28 27 29 28 30 31 31 32 32 32 33 33 33 30 28 28 29 28 27 26 25 23 20 17 16 17 18
35 37 38 38 36 36 34 33 31 31 28 30 29 30 31 31 31 31 32 32 33 33 32 30 30 29 28 26 27 30 31 32 33 32 32 33 33 34 33 27 28 29 28 27 25 23 21 20 18 17 14 13 13 14
35 36 36 36 35 34 31 31 31 28 29 31 31 31 31 31 32 32 32 32 32 32 31 29 28 26 28 30 31 29 31 32 31 30 29 31 32 29 28 28 27 26 23 21 19 18 18 16 15 13 12 11 11 11
34 34 34 35 34 31 29 29 31 28 27 29 31 29 29 30 31 31 32 32 31 31 29 27 28 29 29 29 30 32 33 33 30 27 26 27 27 27 26 25 23 20 19 18 16 14 14 14 12 10 10 10 11 11
33 34 33 34 33 31 29 29 28 29 29 28 29 28 28 30 29 29 29 30 31 28 26 28 28 28 28 28 29 31 31 29 28 28 26 25 23 22 21 19 16 16 16 17 15 13 13 11 9 9 10 11 11 12
33 32 30 30 29 30 29 30 29 29 26 28 28 27 27 24 27 29 30 29 27 27 28 29 29 29 26 25 25 27 27 26 27 26 24 24 22 21 17 15 16 15 13 12 11 11 10 7 7 8 9 9 10 10
31 30 27 26 24 25 25 29 27 26 23 26 27 25 25 26 27 28 25 26 26 27 28 28 27 27 25 25 24 23 23 23 22 22 21 19 17 16 14 12 12 12 10 6 6 6 7 6 6 7 8 8 8 9
28 25 22 23 23 21 24 23 24 23 25 23 23 22 23 25 26 23 21 21 20 22 23 27 25 23 23 21 19 19 21 21 20 20 21 19 17 16 13 10 8 7 5 5 6 6 6 6 5 6 6 7 6 6
19 21 21 20 23 20 19 20 20 19 19 21 21 22 23 24 21 19 18 16 19 19 21 23 23 22 19 18 18 17 19 20 17 14 14 15 13 10 7 6 6 5 6 6 5 5 5 5 5 5 5 5 4 4
19 22 21 21 22 21 20 20 20 20 21 21 21 22 24 22 17 14 14 17 18 17 18 19 20 18 15 16 15 14 14 17 16 12 10 8 7 7 5 5 4 5 5 6 4 3 3 3 3 3 4 4 4 3
19 20 22 25 23 23 22 23 23 22 20 20 21 21 21 17 14 14 16 16 16 16 16 16 17 15 14 13 13 13 13 14 13 10 8 6 6 5 5 4 3 3 4 4 3 3 2 1 2 3 3 4 4 3
21 22 20 22 23 23 21 21 20 19 21 22 22 18 17 16 14 13 14 16 16 15 14 13 12 12 11 11 12 12 11 10 9 8 8 7 6 6 5 5 4 3 2 2 2 2 2 2 3 3 3 2 1 2
22 23 22 18 20 21 21 20 20 22 22 22 20 16 12 10 11 12 13 14 16 15 13 12 11 11 9 8 8 7 8 8 5 2 2 3 3 5 5 4 4 3 2 2 1 1 2 3 3 2 0 0 0 0
22 24 20 17 18 19 22 23 23 23 20 19 16 13 10 9 10 12 12 12 11 10 9 8 9 10 8 8 7 7 6 5 5 4 2 1 3 4 4 4 3 3 1 1 0 -0 -0 0 0 0 -1 -1 -1 -2
24 23 21 20 19 21 20 19 22 22 19 15 14 12 9 8 9 9 8 8 8 8 8 7 6 7 6 5 4 3 3 5 3 3 3 4 4 4 4 3 3 2 1 -0 -1 -1 -2 -2 -1 -2 -2 -4 -5 -5
19 17 18 16 19 18 17 19 19 19 17 15 10 9 8 8 6 7 7 8 8 6 3 5 6 6 6 5 3 4 0 3 4 3 3 3 4 4 4 3 3 2 0 -1 -1 -2 -3 -3 -3 -3 -4 -4 -6 -7
17 16 17 17 17 17 15 14 11 13 13 11 8 7 6 7 4 6 7 7 7 6 6 5 5 6 5 3 3 4 2 3 1 1 1 0 0 1 2 3 2 1 -1 -1 -2 -2 -3 -4 -4 -5 -5 -7 -8 -9

GFSWCAN_sfc_30mbdewp_027.txt.gz
Dewpoint
40 41 41 41 42 43 43 43 45 46 47 48 49 49 48 48 49 50 53 54 42 39 39 40 32 30 30 35 40 40 38 39 37 36 39 36 37 30 28 24 30 29 32 30 33 31 21 22 26 21 30 26 26 29
40 40 42 43 43 42 43 45 45 47 48 49 48 48 48 48 49 50 51 53 51 42 46 48 49 48 42 37 36 40 34 39 39 35 41 42 36 34 33 26 28 27 29 29 27 26 27 25 24 26 29 30 30 30
42 41 41 42 43 46 47 47 48 48 48 48 48 48 48 49 49 50 51 52 48 48 46 44 44 48 49 50 50 39 43 40 40 44 42 43 34 38 32 32 31 30 31 28 28 21 22 24 26 28 29 30 31 33
43 45 47 47 47 48 48 48 48 48 48 47 48 48 48 49 49 50 50 52 47 48 44 45 48 47 49 48 47 48 44 46 44 43 46 38 38 37 38 34 30 31 30 28 28 26 25 27 29 32 35 36 37 37
47 46 47 46 46 47 46 47 47 47 47 48 48 48 48 49 49 52 51 51 50 41 45 46 47 47 47 47 45 45 45 42 41 42 35 40 39 39 39 37 34 31 29 32 30 33 35 34 37 39 39 38 38 38
46 46 46 46 46 46 47 47 47 47 48 48 48 48 48 49 50 50 45 49 48 48 47 44 47 46 46 45 44 43 44 42 41 44 44 38 39 39 37 32 36 36 36 36 35 39 39 40 37 36 35 35 35 34
46 46 46 47 47 48 48 48 48 48 48 48 48 48 48 49 48 47 40 49 48 49 48 44 44 45 46 45 46 45 46 45 43 43 44 42 39 39 39 35 37 35 35 37 37 38 39 36 34 36 36 35 34 34
46 46 46 46 46 47 48 48 48 48 48 48 48 48 48 47 48 47 46 46 48 43 44 42 42 45 46 46 44 45 46 46 44 42 42 42 40 42 38 36 35 35 37 36 35 35 34 35 36 36 35 33 32 32
45 46 46 46 45 45 46 48 48 48 48 48 48 49 49 50 46 47 45 48 49 46 40 40 41 39 44 42 43 44 45 41 42 40 41 41 38 37 34 34 34 35 35 35 35 36 36 35 34 33 32 32 32 32
46 47 47 46 45 45 44 45 45 46 47 48 47 43 42 48 45 46 45 43 45 43 42 38 41 39 41 42 39 40 41 39 36 39 41 39 33 33 34 34 34 35 36 35 35 32 34 32 32 32 31 29 27 29
44 44 46 47 45 44 44 45 46 45 47 48 47 45 47 44 45 43 38 39 40 37 38 38 40 38 41 39 36 40 37 37 34 36 36 34 32 31 34 34 35 36 36 36 35 34 32 32 31 29 29 30 30 28
44 43 43 44 44 43 42 43 46 46 47 47 47 46 45 42 41 32 33 37 38 35 37 37 38 38 40 41 38 38 35 35 32 36 34 31 30 33 33 34 34 33 33 32 32 31 30 29 29 27 25 26 28 28
43 43 42 41 41 42 43 42 42 42 45 46 42 37 39 38 32 32 28 32 33 35 36 38 36 39 39 39 37 36 33 33 36 32 30 31 31 33 33 33 30 29 29 28 26 25 24 25 28 28 28 29 31 29
41 41 41 41 40 39 41 43 42 44 42 39 37 32 34 33 31 30 32 33 32 34 37 39 36 37 37 35 36 33 32 34 30 29 29 29 31 33 33 30 28 25 28 25 25 26 27 27 29 31 31 30 30 27
39 40 40 40 39 38 38 40 41 41 38 34 34 29 28 30 31 31 32 33 33 35 37 37 37 38 35 34 35 32 29 29 30 30 30 31 32 34 32 29 26 26 28 29 27 28 30 31 29 29 27 24 25 25
35 37 37 40 38 37 37 38 38 38 36 33 32 30 31 31 30 32 32 31 34 34 36 38 34 33 31 33 31 30 30 29 30 32 32 33 33 33 32 28 27 30 30 28 29 29 30 28 28 26 22 19 23 22
36 35 38 38 37 36 36 36 36 34 34 32 30 32 33 31 30 30 31 31 34 34 31 33 31 29 33 30 29 32 30 31 32 32 33 33 33 33 29 32 31 29 28 29 29 28 26 24 22 18 16 15 15 15
36 36 37 37 37 35 34 34 33 31 30 32 29 30 31 32 32 32 33 35 36 34 34 31 33 30 30 28 29 31 32 33 33 32 32 34 34 35 35 30 28 28 29 28 25 22 21 20 18 16 14 12 11 11
34 35 36 36 36 35 31 31 32 28 30 32 32 32 32 32 33 33 34 35 34 34 33 31 30 30 30 32 31 31 32 32 30 30 31 33 34 34 30 29 28 27 26 23 21 19 18 16 15 13 12 10 11 12
34 33 35 35 34 31 29 28 29 28 28 30 32 30 30 30 32 32 33 33 32 31 29 27 27 27 28 30 31 32 34 32 31 29 29 31 33 32 29 28 26 24 20 18 17 17 16 15 12 10 11 11 13 13
31 31 34 35 33 31 29 29 26 28 27 27 29 27 27 30 29 31 31 33 30 28 27 29 30 30 28 28 29 32 33 33 32 30 28 27 27 26 23 21 21 21 20 21 18 16 15 12 10 10 13 14 13 13
30 32 34 34 32 31 29 30 26 26 25 26 26 25 26 26 28 28 30 28 25 25 27 28 27 30 27 26 27 28 31 31 31 30 29 27 24 24 23 23 23 19 17 14 13 14 12 9 9 10 12 12 11 12
31 31 32 32 26 26 26 28 26 25 23 25 26 23 24 25 26 27 25 25 23 23 26 25 25 26 25 26 25 24 26 26 25 25 24 23 22 22 20 19 19 18 14 9 8 9 10 9 9 9 11 10 10 10
28 28 25 26 25 23 26 24 22 23 25 24 22 21 22 24 26 23 20 19 20 21 22 24 24 24 23 21 19 20 22 22 21 21 23 21 19 18 17 14 11 9 8 8 9 10 10 10 9 9 9 8 8 7
23 24 26 23 26 23 22 22 21 21 20 22 21 21 22 25 22 19 18 18 20 19 20 23 21 21 20 20 19 18 20 20 18 16 17 19 18 15 11 8 8 7 8 9 9 9 8 8 8 7 6 6 6 5
21 23 22 23 22 22 22 19 20 20 21 21 21 23 25 23 18 16 16 18 18 18 18 19 21 19 16 16 16 15 15 18 17 13 13 12 11 11 9 8 8 10 8 9 8 7 6 6 5 4 5 5 5 5
20 21 23 24 23 23 23 23 23 20 19 19 21 20 21 17 16 16 17 17 18 17 17 17 17 16 15 14 14 14 15 14 13 11 9 8 8 8 8 7 6 6 5 6 6 5 5 4 4 4 4 5 5 5
22 23 21 23 23 24 21 21 20 19 20 21 21 18 17 17 16 16 16 18 17 16 15 14 14 13 13 14 16 15 13 12 11 10 10 9 8 8 7 7 6 5 5 5 4 4 4 4 4 4 4 4 3 4
22 24 23 19 22 22 21 20 19 20 21 21 20 19 15 13 14 15 14 16 18 18 16 14 14 14 13 11 11 11 10 9 7 4 3 5 6 8 7 6 5 5 5 5 4 3 3 3 3 3 3 2 3 3
21 25 21 20 20 18 21 23 23 23 21 21 18 14 12 12 12 15 15 14 13 12 12 12 12 12 10 10 9 8 8 7 5 5 4 3 4 5 5 5 5 5 5 4 3 3 3 2 2 3 3 2 2 1
23 22 20 20 19 21 22 24 24 22 21 18 18 16 13 10 11 11 11 11 11 12 12 9 8 9 7 6 6 6 6 7 4 4 4 4 4 4 5 5 5 5 4 3 2 2 1 0 1 1 1 -0 -1 -2
21 20 18 16 19 21 22 20 20 22 19 17 14 13 12 12 9 9 10 12 11 9 7 8 7 7 7 7 6 6 3 5 4 4 3 3 4 4 5 4 5 4 3 2 1 1 1 -0 -1 -1 -1 -1 -2 -5
19 19 17 17 17 17 19 18 16 15 14 13 11 11 10 11 6 8 9 10 9 8 8 8 9 8 7 6 6 5 4 4 3 3 4 3 2 2 3 3 4 3 2 1 1 1 0 -1 -1 -2 -3 -4 -5 -6

GFSWCAN_sfc_30mbdewp_030.txt.gz
Dewpoint
37 37 38 39 40 41 41 42 43 43 44 45 45 45 45 45 44 44 47 51 52 47 38 37 32 31 33 40 41 41 39 39 41 36 37 37 37 32 26 27 33 32 34 32 34 33 25 23 25 22 32 30 29 29
38 38 38 38 40 42 42 42 44 44 44 45 46 46 45 45 44 49 46 50 52 52 48 50 49 47 44 40 43 43 38 39 41 37 39 41 38 36 35 27 26 26 31 33 33 31 31 23 24 25 28 29 30 32
40 40 41 41 41 41 42 43 43 41 44 45 47 47 47 48 49 49 47 50 53 48 46 44 45 49 49 50 51 42 42 39 39 42 46 45 37 41 32 34 31 29 31 31 29 23 24 25 26 27 32 35 35 36
39 39 39 39 42 42 42 41 42 42 46 47 47 47 48 49 49 49 48 50 54 48 44 47 48 47 48 48 48 50 45 47 48 49 48 39 40 39 40 33 33 32 31 28 27 28 29 30 37 39 39 39 39 39
40 39 40 41 41 42 42 43 44 46 47 48 48 48 48 49 49 50 51 53 53 42 45 46 47 47 46 47 46 48 48 46 46 45 33 39 41 42 42 39 35 33 30 32 33 37 37 38 37 38 37 36 36 35
41 42 42 42 43 44 46 47 47 47 47 48 48 48 48 49 49 50 50 50 51 49 47 44 47 46 45 45 44 45 46 44 43 47 45 41 41 43 36 34 35 36 36 37 37 38 39 38 37 37 36 36 35 34
46 46 46 47 47 46 47 47 47 47 47 47 48 48 48 49 50 50 45 49 47 51 48 44 43 46 46 46 47 45 45 45 44 45 46 43 39 43 40 35 36 35 35 37 36 38 37 36 36 36 35 34 34 33
46 47 47 47 47 47 47 47 47 47 47 47 48 49 49 49 49 49 48 46 47 44 47 42 42 44 47 46 45 47 47 46 45 43 44 44 42 44 39 37 35 35 37 36 35 35 36 36 35 34 34 33 32 32
45 45 46 47 47 47 47 47 47 47 47 48 48 49 49 48 48 46 45 48 52 46 42 41 40 39 45 43 44 45 46 41 43 41 42 42 39 38 36 35 35 36 36 36 36 36 35 34 33 32 32 31 31 31
45 44 44 44 45 47 48 48 48 48 48 48 48 43 45 49 46 45 46 44 42 44 43 40 43 40 43 42 40 40 42 39 36 40 42 40 34 34 34 35 35 36 36 37 35 33 33 32 31 30 29 30 31 30
44 44 44 44 44 44 44 46 48 48 48 48 45 45 48 46 47 43 38 38 39 40 38 40 41 40 43 39 37 41 37 38 34 37 37 35 33 33 34 34 35 36 37 36 35 33 33 31 30 31 29 28 27 29
43 43 42 43 44 43 44 46 47 47 48 47 47 48 47 44 42 34 35 37 39 36 37 37 39 39 41 41 38 39 34 36 32 37 35 32 32 33 34 34 34 33 33 32 32 31 30 30 28 26 27 28 30 31
41 41 42 41 42 43 43 44 45 45 46 46 41 39 40 38 33 32 29 33 32 35 36 38 36 39 40 39 36 35 32 33 36 32 30 32 33 33 34 32 31 31 31 30 29 28 27 29 30 30 30 31 31 30
40 40 39 40 40 42 42 42 43 43 43 39 37 33 34 32 30 30 31 32 32 34 38 37 36 37 38 35 36 32 33 34 31 29 30 30 32 33 33 31 29 28 27 24 25 28 29 30 30 30 30 29 26 24
38 38 38 38 39 39 40 42 41 40 38 34 34 28 28 30 31 32 33 33 33 36 37 37 38 38 35 33 34 32 30 29 31 30 30 32 33 34 31 29 28 29 30 29 28 30 30 30 29 27 24 24 24 24
37 36 37 38 38 37 39 39 41 40 36 33 32 30 31 31 30 31 31 31 34 34 37 38 34 32 31 33 31 31 30 29 30 31 32 33 34 34 33 29 29 29 30 30 30 30 30 29 27 24 20 20 24 19
35 35 38 38 37 36 37 37 37 34 34 32 29 32 32 31 29 30 31 32 35 34 32 34 31 29 33 31 29 31 28 30 31 31 33 34 34 35 33 32 31 30 30 30 30 29 27 24 21 19 17 15 14 16
35 35 38 37 37 35 34 36 35 33 29 31 28 30 31 32 32 32 33 36 36 34 34 31 34 30 29 28 28 30 31 31 33 33 33 35 35 34 33 33 30 30 29 28 26 23 22 21 19 17 15 11 12 13
34 36 36 36 35 34 31 32 33 29 30 31 32 33 33 33 33 34 35 37 35 36 36 34 29 27 27 28 29 31 32 31 30 31 32 34 35 35 34 31 30 28 27 25 23 21 18 16 14 13 13 12 14 14
32 33 36 34 33 31 29 29 31 30 28 30 32 30 30 30 33 33 35 35 31 29 26 25 25 26 26 28 29 31 33 32 31 30 30 32 34 32 32 32 28 24 21 19 19 19 18 17 13 12 14 14 15 14
29 31 34 35 32 31 30 29 28 29 28 28 29 27 27 31 31 31 31 31 27 27 25 27 28 28 30 28 28 30 30 33 33 33 30 31 32 31 29 26 27 27 26 25 21 17 17 13 12 12 15 16 15 15
29 32 35 36 33 31 29 31 28 27 27 27 27 26 27 27 27 28 29 24 22 24 27 25 25 26 25 24 26 28 30 29 30 29 31 30 28 27 26 26 24 22 20 19 17 16 14 11 11 12 13 13 13 13
32 33 34 34 26 26 26 27 25 24 21 23 25 22 22 24 26 27 24 22 23 25 28 28 25 25 25 25 24 24 26 26 24 24 24 23 22 22 20 20 22 21 17 12 11 12 12 11 12 11 12 11 11 12
31 30 27 27 26 24 27 23 22 22 23 21 21 20 22 23 26 21 19 20 22 21 23 23 24 27 21 19 18 19 23 23 21 22 23 20 18 18 18 17 16 13 12 12 12 12 12 12 10 10 11 9 9 9
23 24 27 23 27 23 22 20 21 20 19 21 23 22 23 24 21 19 18 20 19 19 20 23 20 20 21 20 19 18 21 20 18 16 18 21 19 18 14 11 10 9 10 11 10 10 9 9 9 8 6 7 7 7
21 23 21 21 21 21 20 18 19 20 19 21 20 22 25 23 19 17 17 19 18 18 18 19 20 18 15 16 15 14 15 19 18 14 12 12 13 14 11 10 12 10 9 10 8 7 7 7 6 5 6 6 6 8
20 21 22 24 23 23 22 22 23 22 20 20 22 22 21 19 16 16 17 18 17 18 17 18 17 16 15 15 15 15 13 12 11 10 9 9 9 9 9 8 7 6 6 7 6 5 4 5 5 5 5 7 8 8
22 23 20 22 22 23 20 20 20 21 21 20 22 19 18 16 14 17 17 19 19 17 15 15 14 14 14 15 15 15 15 14 14 13 13 11 10 10 9 9 9 7 7 8 6 6 5 5 4 4 6 5 5 6
21 24 22 20 20 20 20 21 21 22 21 20 20 19 15 13 15 17 16 19 21 20 17 16 17 18 15 12 12 11 10 9 8 6 5 7 8 10 8 7 7 7 7 6 7 6 6 6 5 5 4 3 4 5
20 23 20 19 19 18 22 24 24 24 21 21 18 15 13 13 14 16 16 15 14 14 14 14 14 12 11 12 10 11 9 7 6 5 4 4 4 6 7 7 7 7 7 6 5 5 4 5 3 4 5 6 4 4
21 21 19 18 19 22 23 23 25 23 21 19 19 16 12 11 12 13 12 15 13 14 14 12 9 9 8 8 7 7 9 9 6 5 4 4 5 6 7 8 7 7 6 6 5 3 3 3 2 2 2 2 2 2
19 18 18 16 21 22 21 21 21 23 21 19 15 14 14 15 10 9 11 14 13 10 9 10 9 9 8 8 8 8 6 6 6 6 4 4 4 4 5 6 6 6 6 5 3 3 3 3 2 1 1 1 1 -1
17 18 17 16 16 19 20 17 16 17 16 14 12 13 11 11 6 9 11 11 9 9 9 9 10 10 9 7 6 6 5 5 6 7 9 7 3 2 2 3 4 3 3 3 2 2 2 2 2 1 -1 -1 -2 -3

GFSWCAN_sfc_30mbdewp_033.txt.gz
Dewpoint
36 37 38 39 39 40 38 41 41 41 42 43 43 45 46 45 45 43 42 45 46 46 47 45 38 37 39 42 39 43 44 41 42 32 32 34 31 29 30 34 32 28 28 27 34 29 22 28 25 19 32 31 30 31
38 38 38 39 40 40 40 41 42 43 44 44 45 45 45 45 45 45 40 45 47 46 48 52 50 51 45 44 43 42 40 40 41 38 40 39 35 35 31 27 34 27 34 29 31 30 33 26 25 30 30 34 36 38
37 38 38 40 41 41 41 42 43 43 44 45 45 45 44 45 45 44 41 44 47 46 45 49 47 48 50 49 48 39 44 43 43 47 44 43 31 38 29 30 30 32 34 31 30 30 29 30 39 40 40 39 39 36
39 39 39 39 40 41 42 43 43 44 45 45 45 45 45 45 45 45 42 44 49 46 43 47 50 47 48 50 49 49 46 50 50 48 41 38 33 41 34 32 32 33 31 30 29 33 39 39 40 38 37 37 35 34
40 40 41 41 42 42 43 43 43 43 42 45 45 46 46 45 45 46 46 47 51 48 42 46 47 47 48 48 48 49 48 47 46 38 31 33 42 41 40 37 33 33 32 28 30 39 37 36 37 37 36 35 35 34
40 40 40 40 40 42 42 42 42 43 43 44 45 46 46 48 49 47 42 48 51 51 46 42 47 47 46 46 47 47 47 46 48 43 43 42 42 37 32 31 36 37 38 39 38 39 38 37 36 36 35 34 34 33
39 40 40 40 40 40 41 41 42 43 43 47 47 47 47 49 49 45 43 50 50 50 46 41 42 46 47 48 47 47 48 48 47 46 44 39 39 41 36 34 35 36 37 37 38 38 37 37 34 34 34 33 33 33
42 41 40 40 42 41 42 42 43 45 47 47 48 48 49 50 51 47 51 50 48 50 46 40 42 44 47 45 44 47 47 45 44 43 44 41 42 42 35 35 35 37 36 37 37 37 36 35 34 33 33 32 32 32
46 46 46 45 44 43 43 45 46 47 47 48 48 49 49 49 46 48 48 46 52 46 40 40 38 39 45 43 43 44 45 40 44 40 42 39 39 37 36 35 36 36 36 36 36 35 34 33 33 32 32 31 30 31
45 46 46 46 46 46 46 46 47 47 48 49 49 48 45 49 48 46 46 40 41 43 41 40 42 40 42 40 39 39 40 39 36 39 40 38 33 34 35 36 36 37 36 35 33 32 32 31 31 31 31 31 30 29
44 45 46 47 46 46 47 47 47 48 49 49 46 44 48 48 47 41 37 37 39 36 37 38 41 40 43 37 37 40 36 37 33 36 35 34 33 34 35 36 36 37 37 36 35 33 33 32 31 30 28 30 29 29
43 43 44 46 47 47 47 47 48 49 49 48 47 49 47 45 39 34 33 35 35 34 36 37 38 40 40 42 37 38 34 35 32 37 34 30 32 34 34 34 35 35 34 33 33 31 31 30 29 29 30 30 29 29
41 42 43 44 44 46 47 47 48 48 48 44 39 38 39 36 32 31 29 32 32 34 36 38 36 38 38 38 36 34 33 32 35 31 29 31 33 34 34 33 32 32 32 31 30 31 31 30 30 30 30 30 27 24
39 39 40 42 43 42 41 43 44 43 41 37 35 31 32 30 29 29 30 31 32 34 36 37 36 36 37 34 35 30 33 33 29 27 28 30 33 34 33 32 31 30 28 29 28 29 29 29 28 27 25 25 24 23
37 37 38 39 40 42 41 41 40 39 36 33 31 27 27 30 31 32 33 32 33 36 37 37 36 36 34 32 32 31 30 27 29 29 30 32 34 33 31 29 28 28 29 29 30 30 29 27 24 24 24 23 21 20
37 33 35 39 39 39 40 40 40 38 35 32 31 29 31 31 30 31 31 32 34 34 37 37 34 32 31 32 30 31 29 27 28 30 32 34 34 32 29 29 30 31 30 30 31 30 29 26 22 21 23 19 16 14
36 34 39 38 37 37 38 38 36 34 32 31 29 31 31 30 29 30 31 32 36 34 32 33 30 29 33 31 28 29 26 29 30 31 33 34 34 33 30 31 32 31 31 30 29 27 24 23 21 19 15 18 19 15
36 37 38 37 37 35 36 37 34 32 28 30 28 30 31 31 31 31 32 35 35 33 33 30 34 29 25 25 25 29 29 30 32 32 33 34 35 34 34 34 34 31 29 28 26 24 22 21 18 16 14 15 17 16
35 36 36 35 36 33 30 31 33 28 29 31 31 32 32 32 34 34 34 34 35 35 33 30 24 22 22 25 25 28 31 30 30 31 33 34 35 34 34 33 30 28 26 24 22 19 17 16 16 15 15 16 16 15
32 34 36 34 35 30 28 29 34 31 28 30 32 31 32 32 33 33 29 28 29 28 25 23 23 24 24 24 26 28 31 32 31 30 30 31 32 32 31 31 26 22 20 20 21 20 16 15 16 16 16 16 13 13
32 32 36 37 33 32 31 30 29 30 31 30 30 28 29 30 29 27 25 24 21 25 22 24 25 25 27 27 27 29 27 28 28 31 31 29 31 30 29 29 28 27 25 23 21 19 16 14 14 15 15 12 11 13
31 35 34 33 31 29 27 28 29 28 28 28 27 27 26 25 27 26 23 21 21 24 25 24 25 24 23 23 23 25 27 26 25 24 25 27 24 23 24 22 20 18 18 19 19 16 14 13 12 12 12 11 12 13
35 34 31 29 23 22 21 28 23 23 21 22 22 22 23 23 26 27 21 22 22 25 26 27 24 22 20 19 20 22 23 23 22 22 21 20 20 19 17 18 19 17 15 16 17 15 13 13 11 11 11 8 9 10
33 30 26 26 24 23 26 22 23 21 21 19 19 18 20 22 26 19 18 19 21 21 22 23 25 21 18 17 17 18 21 20 19 20 21 18 16 16 16 15 15 16 17 15 13 13 11 10 10 8 5 5 7 6
18 22 24 22 24 21 19 18 19 19 19 21 21 19 20 24 18 19 17 18 17 17 18 21 18 17 18 17 17 16 18 19 16 14 15 19 17 16 14 14 12 11 12 10 9 7 8 7 6 5 5 5 6 6
19 22 20 19 20 19 19 17 19 20 20 20 18 20 23 22 17 14 16 17 16 17 17 17 18 16 15 15 14 13 14 19 15 12 12 12 13 14 13 11 10 7 8 7 6 4 4 4 5 5 4 5 6 8
18 20 23 24 25 24 22 23 23 20 19 20 21 20 21 18 13 15 18 19 17 18 17 17 18 17 16 16 16 15 13 12 11 11 12 11 11 10 8 5 3 4 7 6 4 3 4 4 4 3 3 5 5 4
22 22 19 21 20 21 19 19 20 20 21 22 22 17 14 12 10 15 17 20 20 17 16 15 15 15 15 14 13 12 10 13 12 13 13 13 11 10 9 9 7 8 9 9 6 7 6 6 4 3 3 3 3 2
20 22 22 18 20 18 21 22 21 22 22 21 18 14 12 13 15 16 18 18 18 16 15 15 17 16 13 12 10 9 6 6 4 4 4 6 7 6 6 7 8 7 7 7 6 6 6 6 7 3 2 4 5 4
20 21 20 18 18 18 20 23 22 22 22 22 16 13 12 13 14 16 15 15 15 13 14 14 12 10 9 10 9 8 6 5 4 2 1 1 2 5 6 9 8 7 8 6 4 5 5 3 3 3 2 2 4 3
20 20 18 18 19 22 22 24 23 22 19 17 15 12 9 10 12 12 12 14 12 12 13 9 8 8 8 7 7 6 6 6 7 4 3 4 3 4 4 4 6 6 5 7 6 4 2 2 3 3 2 1 1 -0
18 17 17 18 20 20 19 19 20 22 19 17 14 13 13 12 7 8 11 12 10 9 10 9 8 8 6 6 7 6 6 7 8 5 5 5 4 3 2 1 2 4 2 1 2 3 2 1 1 2 2 1 -2 -3
18 18 17 15 16 19 19 16 18 17 15 13 13 14 10 8 5 9 14 12 9 9 8 9 11 11 10 6 4 5 6 4 4 6 5 5 5 3 2 2 -0 -1 -1 -1 -1 -1 -1 -0 0 1 1 -1 -2 -3

GFSWCAN_sfc_30mbdewp_036.txt.gz
Dewpoint
37 37 38 38 39 39 40 40 40 41 42 42 42 41 41 42 43 45 43 47 43 42 43 48 41 34 34 37 38 43 42 42 40 32 30 31 26 30 30 31 28 25 28 28 29 22 21 31 24 21 25 32 32 34
37 38 38 39 40 40 38 39 42 43 42 41 42 42 42 42 45 45 41 47 47 41 43 47 46 47 46 39 42 45 38 40 41 36 38 36 34 32 31 30 35 26 25 25 29 26 31 29 29 33 34 35 38 39
38 39 39 39 40 39 40 41 42 42 42 43 44 44 44 45 45 42 44 45 43 40 41 46 45 49 50 47 45 39 43 43 44 44 41 38 30 33 28 28 32 32 37 32 32 35 37 38 39 39 40 37 35 37
39 39 40 40 40 40 40 41 41 42 43 43 44 45 44 44 45 43 42 46 42 43 39 43 51 47 49 51 46 43 42 47 49 46 40 36 29 37 29 29 28 32 33 31 35 38 38 37 37 36 35 34 33 33
39 40 41 41 42 41 42 43 42 42 43 45 45 45 45 46 46 44 44 45 47 44 40 40 45 48 50 52 50 46 47 47 43 36 32 31 40 38 37 35 32 33 31 29 29 37 35 37 37 36 35 34 33 32
40 40 40 40 42 42 43 44 44 44 44 45 45 45 45 45 45 42 38 43 47 46 43 38 47 48 49 52 52 48 48 48 45 39 42 42 43 35 31 30 36 37 39 37 37 38 37 36 35 35 33 33 32 32
41 41 41 42 42 43 43 43 43 42 43 45 46 46 46 46 44 39 39 46 47 47 42 37 40 48 49 48 47 49 50 48 46 45 42 38 40 38 32 30 36 37 38 38 37 36 35 35 34 34 33 33 33 32
40 40 41 41 42 43 42 42 42 43 43 44 45 46 46 46 44 43 48 50 51 45 44 38 39 43 46 43 43 46 45 45 44 42 42 38 42 37 32 36 37 37 37 37 37 37 35 34 33 32 32 32 31 31
40 39 40 41 41 41 41 40 42 42 44 45 45 46 46 46 44 42 49 50 50 46 40 39 39 38 44 41 41 41 41 39 42 40 41 38 37 36 35 36 36 36 36 34 34 34 33 32 32 32 31 30 31 29
42 41 41 40 40 42 41 41 42 44 45 47 46 43 42 45 51 48 46 44 44 43 40 39 40 39 41 38 38 38 39 38 36 39 40 36 32 34 36 37 37 36 35 34 33 32 31 31 31 31 31 31 29 28
45 45 45 44 42 41 42 43 45 47 47 45 44 43 47 50 48 44 39 37 38 34 37 39 40 39 42 37 37 38 36 36 34 36 36 34 32 34 37 37 38 37 36 35 34 33 32 32 31 30 29 29 28 28
46 46 46 46 45 45 45 45 46 47 48 48 47 48 47 42 37 34 32 34 34 32 36 37 39 40 40 40 37 37 34 34 31 37 34 31 33 36 37 37 37 36 34 33 33 32 31 30 30 29 28 28 27 28
45 46 46 46 46 47 47 47 48 50 48 44 41 38 36 34 31 30 29 30 30 34 36 37 36 38 37 37 35 34 32 30 34 31 29 30 33 35 35 34 33 32 32 31 31 31 31 31 30 28 26 26 27 25
42 43 44 45 46 47 47 46 46 44 39 35 33 29 30 28 28 28 30 31 32 33 36 36 36 36 36 35 34 31 33 33 29 27 28 30 33 34 33 33 30 30 30 30 29 29 29 28 28 27 24 23 23 20
39 40 41 42 42 41 39 38 38 38 35 32 32 26 27 30 31 31 32 32 33 35 36 36 35 35 34 32 32 31 29 26 28 27 30 32 34 32 31 29 29 28 29 29 28 27 27 25 24 24 23 23 22 18
37 36 37 40 40 40 40 38 37 37 34 31 30 29 30 29 29 30 31 31 34 35 35 35 33 31 31 31 30 29 26 25 27 29 32 34 31 30 29 29 30 30 29 29 28 26 25 23 21 20 19 18 19 17
35 35 38 38 38 38 39 36 34 33 31 29 28 31 31 30 29 30 31 32 35 34 32 31 28 28 32 29 25 27 24 27 29 31 33 33 31 31 33 31 31 32 31 31 30 27 24 22 23 20 16 16 17 18
35 36 37 36 34 35 36 36 32 30 28 30 28 29 31 31 30 31 32 33 34 32 32 29 31 24 21 21 20 25 28 30 31 32 32 33 33 33 33 32 32 32 31 28 26 25 21 21 16 17 20 18 17 19
36 37 37 35 34 32 30 33 32 27 29 30 31 31 31 30 30 29 30 33 33 32 30 27 21 20 19 22 21 23 28 29 29 31 32 33 34 33 33 32 31 30 29 25 22 20 19 17 17 17 18 17 16 17
31 35 35 35 32 29 29 30 33 30 27 30 32 30 30 29 27 23 23 24 26 24 22 20 19 20 21 22 24 25 26 30 31 29 29 30 31 31 30 28 26 26 24 20 17 17 17 17 17 17 16 13 12 15
30 34 33 33 31 30 29 29 30 31 31 29 29 29 28 27 20 20 20 22 19 22 19 22 22 22 24 24 24 26 24 24 23 27 29 25 27 26 25 25 26 24 21 19 17 16 16 15 16 15 12 12 12 14
32 35 27 28 24 24 24 27 28 29 27 26 25 26 24 25 23 20 20 19 19 21 24 23 21 20 19 20 21 22 24 22 22 21 21 20 19 19 19 19 19 17 17 17 16 15 14 14 13 13 11 9 11 12
31 29 26 22 19 19 20 25 20 22 20 20 21 20 22 23 26 23 18 20 20 22 24 20 19 19 18 18 18 19 20 20 19 19 18 17 17 17 16 17 17 16 15 16 17 15 14 13 12 9 7 6 8 7
29 25 24 24 22 21 20 21 23 19 19 18 18 17 21 24 22 16 15 16 18 19 19 20 20 17 15 15 15 15 17 17 15 15 18 16 14 14 14 13 13 13 14 13 11 10 9 8 6 5 4 4 4 4
17 20 18 18 19 18 17 17 18 18 17 18 18 17 19 21 16 15 14 14 14 14 15 17 15 15 14 13 13 14 17 15 13 12 13 16 14 13 11 10 9 10 9 6 5 4 4 4 3 3 3 3 5 5
18 22 19 18 19 18 17 16 17 21 20 18 19 20 22 15 10 10 13 13 13 14 14 15 14 12 12 13 11 11 13 15 12 10 11 11 11 11 10 8 3 4 7 3 1 0 2 2 2 1 -0 3 4 3
17 19 22 26 25 22 20 20 20 18 18 17 20 19 16 10 9 12 16 17 15 15 16 16 16 14 13 13 14 14 13 13 12 11 11 10 9 7 4 2 3 4 7 4 3 3 4 3 2 2 1 1 2 2
21 21 17 18 18 19 16 16 17 17 18 20 18 12 9 8 7 13 15 17 17 17 15 15 15 13 10 7 6 6 8 12 12 11 9 8 6 5 6 7 8 9 8 8 6 6 5 5 5 3 2 2 2 1
18 21 18 18 16 17 19 19 18 20 21 20 13 9 8 10 12 13 15 16 16 14 12 12 12 11 8 6 5 4 2 1 1 0 -1 -1 -3 0 4 5 6 6 5 6 5 5 6 5 4 3 2 1 3 3
17 19 17 14 16 15 19 21 18 19 19 15 12 10 9 10 11 12 12 12 11 10 9 9 8 6 6 6 5 5 5 3 2 0 -1 -1 1 3 3 1 3 3 3 3 3 3 5 2 1 1 2 1 -1 -1
18 16 16 17 17 19 22 23 21 17 14 11 9 6 6 8 10 10 11 11 11 9 7 5 5 4 5 4 3 2 1 4 4 5 3 2 2 1 1 0 -0 0 -0 -1 -1 1 -0 -1 -1 -2 -1 -1 -1 -2
15 16 16 17 17 18 19 19 19 17 14 13 10 9 9 6 3 7 10 7 6 6 6 6 6 6 5 4 2 2 3 3 3 4 3 3 3 3 1 -0 -0 -1 -3 -3 -4 -3 -3 -4 -4 -4 -3 -3 -3 -4
16 12 11 12 15 16 16 15 17 12 11 10 10 9 7 4 2 7 10 8 5 4 2 3 5 7 6 2 -0 -1 0 -0 -0 1 2 3 1 1 -0 -1 -1 -2 -3 -3 -3 -5 -5 -5 -6 -7 -6 -6 -6 -8

GFSWCAN_sfc_30mbdewp_039.txt.gz
Dewpoint
40 41 41 41 40 40 39 39 39 39 38 38 40 40 41 40 40 43 39 44 43 39 39 45 44 39 38 35 32 40 40 42 39 35 32 28 28 29 28 29 27 29 30 29 26 24 25 28 27 17 21 31 31 31
37 38 38 39 39 38 38 38 38 39 39 39 40 41 41 42 42 42 38 42 47 40 40 43 43 45 44 39 35 42 38 39 39 36 36 34 28 31 30 25 34 25 28 29 29 28 30 32 27 31 33 31 34 35
39 39 39 39 39 39 39 39 39 39 40 40 41 41 41 41 42 42 40 45 43 39 38 39 42 45 48 47 47 36 42 44 42 44 39 37 30 32 28 29 32 32 33 27 30 34 35 37 37 37 38 37 38 40
40 40 40 40 40 40 40 40 41 41 41 42 41 42 41 42 42 43 41 45 41 41 36 39 48 45 50 51 50 46 42 49 47 45 39 35 30 35 29 29 31 32 34 34 35 38 37 37 36 35 34 34 34 34
39 39 39 39 41 41 42 41 42 43 42 42 42 42 42 42 42 42 45 45 45 39 37 39 44 46 51 52 50 46 46 46 43 39 35 32 38 36 36 34 30 34 32 31 29 37 32 36 36 35 33 33 33 33
40 40 39 40 41 41 42 41 41 42 42 43 43 42 42 43 45 41 36 39 46 46 39 35 43 44 50 52 49 45 45 46 43 37 39 42 43 36 32 30 34 37 37 34 32 39 37 36 35 34 33 32 32 31
41 41 41 41 41 43 44 44 43 43 43 44 45 45 45 44 42 37 34 41 43 45 39 35 36 42 50 49 48 49 49 46 46 43 40 39 41 36 32 28 35 38 38 37 36 36 34 34 33 33 33 33 32 32
41 41 41 43 43 43 43 43 44 44 44 44 44 44 44 43 41 37 46 44 44 40 40 35 35 41 47 44 44 46 44 45 44 43 41 39 41 36 33 36 37 37 36 36 36 37 35 33 33 32 32 32 31 31
42 42 42 43 43 42 42 42 42 43 44 45 44 44 44 41 38 38 49 49 50 44 37 37 35 35 44 41 42 41 42 40 42 40 41 39 36 35 36 36 36 37 36 34 33 33 33 32 31 31 31 30 29 29
41 42 42 43 42 42 42 42 42 43 45 45 43 41 36 39 45 45 43 39 43 43 42 38 40 39 41 38 37 39 39 38 37 39 38 37 36 35 36 37 36 35 34 33 32 31 31 31 30 30 30 28 28 27
40 41 41 41 41 41 41 42 42 44 45 42 39 39 46 47 41 39 35 35 36 35 37 38 40 39 41 37 36 37 36 35 34 36 37 33 33 34 36 36 36 35 35 37 35 34 33 31 30 30 29 28 27 27
40 41 40 40 41 41 41 41 43 42 43 41 45 47 44 40 37 33 31 33 33 32 36 37 38 40 39 40 37 36 34 33 32 36 35 32 33 35 37 37 37 36 35 34 34 33 32 32 31 29 27 27 27 28
43 42 40 40 41 42 42 42 44 46 46 45 40 36 36 32 30 30 28 30 31 33 35 36 36 37 36 36 34 32 30 30 33 32 31 30 34 36 36 35 34 34 34 32 31 31 30 29 28 27 27 27 26 24
46 45 44 43 42 43 43 44 45 46 42 36 32 28 29 26 27 27 29 30 32 32 34 36 35 35 35 34 33 30 32 32 28 25 25 30 34 35 33 33 32 31 31 31 30 30 28 26 25 26 26 23 20 19
43 43 44 45 46 45 45 45 45 41 35 32 31 25 27 30 31 31 32 32 33 34 35 36 35 35 33 32 32 31 29 27 27 25 29 32 33 32 31 30 30 29 29 29 29 28 27 24 23 23 23 20 17 17
40 39 41 43 43 43 41 39 37 35 32 30 29 28 29 29 29 30 31 31 34 34 34 34 31 30 30 31 29 26 25 24 25 28 31 32 31 31 30 30 30 30 29 28 28 27 26 25 22 22 22 18 16 15
37 36 39 40 39 38 38 35 32 31 30 28 28 31 30 30 28 29 30 30 34 34 30 31 28 26 31 26 23 25 22 25 28 30 32 31 31 31 31 31 30 30 28 27 26 26 25 22 19 18 18 18 16 16
36 37 39 36 35 36 35 34 30 29 27 29 27 29 27 27 26 27 29 31 32 32 30 25 27 20 18 17 18 21 24 30 30 30 31 31 31 32 32 31 31 31 30 29 27 23 22 19 18 17 18 19 17 17
36 36 36 35 34 33 31 31 31 27 28 30 30 31 29 27 27 27 26 29 30 30 28 24 18 17 16 19 19 21 22 26 29 30 30 31 32 32 32 31 31 29 28 27 23 20 18 18 19 19 17 17 18 17
31 33 33 34 32 29 29 29 33 29 27 29 29 22 23 21 22 21 21 22 23 23 20 17 16 17 18 20 21 22 22 24 29 28 26 26 28 27 27 27 25 23 22 21 21 20 18 18 17 16 14 15 15 15
29 31 28 30 28 28 28 29 30 31 31 29 29 28 26 21 17 16 17 19 17 20 17 19 19 20 22 22 22 23 21 21 19 23 24 20 22 22 21 22 21 20 19 18 16 16 16 15 16 16 14 13 14 14
29 30 23 22 21 22 24 25 27 27 25 25 24 25 24 22 18 19 16 15 16 18 19 19 19 19 17 17 18 20 21 20 20 19 18 18 16 16 16 18 17 16 15 15 15 13 13 15 15 13 12 11 13 9
29 27 25 21 19 19 20 23 20 20 18 20 19 19 22 22 22 19 15 16 16 19 21 20 17 16 16 16 16 17 17 16 16 16 16 15 15 14 14 14 15 14 13 13 15 13 12 12 11 9 7 7 7 6
24 20 20 19 19 18 17 19 21 20 20 17 17 19 21 22 18 13 11 12 15 16 16 16 16 14 12 12 13 14 15 15 14 14 16 13 11 11 11 10 10 10 11 10 9 7 6 5 5 5 4 3 3 3
17 19 17 17 17 16 15 15 16 17 16 17 16 18 21 17 13 11 10 11 12 12 13 14 13 13 11 11 12 13 15 13 11 10 11 14 12 11 9 7 7 7 5 2 1 2 2 2 1 -1 1 2 3 2
18 22 18 17 17 17 16 15 19 19 18 18 19 19 15 9 7 7 10 12 12 12 12 13 12 11 11 12 10 10 11 12 8 7 7 7 6 5 2 1 3 5 5 1 0 1 1 1 1 1 0 1 1 1
16 17 19 22 21 19 16 16 17 16 15 15 17 13 10 6 6 10 15 16 13 14 15 15 13 11 10 10 10 11 11 11 10 9 8 7 7 7 5 4 4 6 6 5 4 4 3 2 2 1 -0 -2 -1 -1
20 18 15 15 16 16 14 15 15 14 15 18 12 7 5 4 5 11 12 16 16 15 13 10 7 6 4 4 5 7 9 9 7 7 6 4 3 3 3 4 5 6 4 3 4 3 2 3 3 2 1 0 1 -1
19 19 17 16 14 16 17 16 15 17 20 16 8 6 5 7 8 9 12 14 14 12 9 7 7 7 5 5 3 2 1 -1 -3 -4 -4 -3 -3 -0 1 -0 -0 1 1 1 1 4 7 5 3 2 1 -0 -0 -2
17 15 14 13 13 13 17 16 15 14 13 10 9 7 7 7 9 11 11 9 7 6 6 5 4 3 3 3 3 3 2 1 2 0 -1 -2 -0 1 -1 -1 -2 -1 -1 -2 -2 -2 -0 -2 -2 -3 -3 -3 -3 -3
14 15 16 14 15 17 17 14 12 9 7 5 4 3 4 6 8 9 8 8 7 6 5 4 4 2 3 2 1 0 0 2 2 2 1 1 1 -0 -1 -1 -3 -5 -5 -5 -5 -5 -5 -5 -6 -6 -6 -6 -5 -5
14 14 15 14 15 17 18 17 16 12 10 9 6 5 5 1 2 5 8 5 3 3 3 2 4 4 1 -2 -2 -0 0 -0 -1 -0 0 -0 0 -0 -1 -1 -3 -5 -4 -5 -8 -7 -6 -7 -7 -9 -9 -9 -8 -7
12 9 9 13 14 15 13 13 12 10 9 8 7 6 4 1 0 4 6 3 0 -1 -2 1 -0 -0 0 -2 -2 -1 -1 -2 -3 -1 1 2 2 -0 -3 -4 -4 -4 -4 -5 -6 -7 -7 -8 -9 -10 -11 -11 -10 -10

GFSWCAN_sfc_30mbdewp_042.txt.gz
Dewpoint
43 43 42 42 42 43 44 43 43 43 43 42 42 40 40 41 42 38 36 41 38 38 39 43 42 36 35 35 32 34 32 35 39 33 33 32 29 30 30 30 31 29 29 28 26 25 24 26 25 19 22 27 28 30
40 41 42 42 42 42 42 43 43 42 42 41 41 41 41 41 41 39 35 41 42 38 40 43 42 42 40 40 35 37 33 36 35 36 35 32 30 31 29 27 31 29 30 29 30 29 31 30 25 27 29 29 30 30
38 39 40 41 41 42 42 42 42 42 42 41 40 41 41 41 41 39 38 41 39 37 37 38 37 45 44 43 44 34 39 43 41 41 36 35 31 32 26 27 30 31 32 28 29 31 32 35 36 37 36 34 36 37
39 39 39 39 39 39 40 40 40 40 39 38 39 40 41 41 40 39 38 42 38 40 33 33 44 43 49 48 46 45 40 48 46 44 37 35 32 35 30 30 29 31 32 31 31 35 37 36 36 35 35 36 36 34
40 40 40 40 40 39 39 39 39 39 40 40 40 40 40 41 41 40 41 41 44 39 34 37 41 43 46 51 50 49 46 45 43 40 37 34 37 35 35 34 31 34 31 28 24 30 29 31 35 35 35 35 34 33
39 40 41 41 40 40 40 41 40 40 40 40 40 40 41 41 41 39 36 41 42 44 37 33 41 41 46 51 50 49 47 45 42 38 37 40 43 37 32 29 31 34 36 35 30 37 36 36 34 34 34 33 33 33
40 40 40 40 39 40 42 43 42 41 41 41 41 41 41 42 40 36 35 40 45 45 38 33 35 40 48 49 48 48 47 45 44 41 40 40 40 37 33 29 33 38 38 37 36 36 34 34 33 33 32 32 32 31
41 41 42 43 43 42 43 43 43 43 42 41 42 42 42 42 40 38 42 45 45 41 39 32 34 39 46 43 43 45 43 43 43 41 39 39 39 36 33 35 37 36 36 36 35 35 35 33 33 32 32 31 31 31
41 42 42 43 43 43 43 42 43 44 42 42 41 41 43 39 36 35 45 46 44 39 32 34 34 32 42 40 41 41 41 39 41 40 39 39 36 35 35 36 37 36 36 34 33 33 33 32 31 31 31 31 30 30
42 43 42 42 42 43 43 44 43 44 43 43 42 39 33 37 45 45 43 39 39 40 42 35 39 38 40 36 37 38 38 38 37 39 40 36 36 36 35 36 37 35 34 33 32 31 31 30 30 30 30 30 30 30
43 42 42 42 42 42 43 44 44 44 42 40 37 36 41 46 40 38 33 33 35 34 37 38 39 39 41 35 35 36 35 34 34 36 34 33 34 35 37 37 36 35 34 35 35 33 32 31 30 29 29 29 30 30
42 42 42 41 41 42 42 43 44 42 39 40 42 43 42 38 35 31 31 32 32 32 35 36 38 40 39 40 35 35 33 33 31 36 35 32 33 35 36 36 36 36 35 34 34 32 32 31 30 29 29 28 28 27
41 41 41 41 41 41 41 42 43 44 44 43 38 35 34 33 30 29 27 29 30 32 34 36 35 36 37 36 34 32 31 31 34 33 30 29 34 36 36 35 35 35 34 34 33 32 31 30 30 29 28 28 26 24
41 41 40 41 42 42 42 43 43 44 40 33 32 27 27 25 27 27 28 30 31 32 33 35 34 35 35 34 32 31 32 32 27 26 26 30 33 33 33 33 32 32 32 31 30 30 29 28 27 28 27 25 23 22
41 41 41 41 42 42 43 44 43 40 34 31 30 25 26 30 31 31 32 32 32 34 34 35 34 35 32 31 31 32 29 25 25 24 27 31 32 32 31 31 30 30 30 29 28 26 26 26 25 22 20 20 21 20
44 43 43 43 44 44 43 42 40 37 32 31 29 26 29 28 26 28 29 30 33 33 34 32 31 30 30 30 26 23 24 19 23 27 30 32 31 31 30 30 30 30 29 28 28 27 26 24 22 19 18 18 18 17
39 39 44 44 43 42 41 37 34 31 30 28 26 27 26 27 24 25 27 28 32 34 30 29 22 21 25 22 18 20 18 22 24 29 31 31 30 30 30 29 29 29 28 28 27 26 24 23 20 17 15 15 15 16
37 41 43 43 41 39 37 36 30 29 27 28 23 25 24 24 22 22 26 28 31 30 26 23 23 16 14 14 14 18 20 22 29 29 30 30 31 31 31 30 29 29 28 27 26 25 24 23 22 19 17 16 17 17
38 40 41 41 40 35 30 31 30 25 25 27 25 26 24 22 22 23 25 27 26 26 24 21 15 13 14 16 16 18 19 20 24 26 25 27 30 30 30 29 29 27 26 25 24 23 22 21 19 19 19 19 18 14
33 33 35 40 39 31 28 29 32 28 26 24 21 17 17 17 18 17 17 18 19 19 16 14 14 15 16 17 18 19 19 21 24 23 20 20 23 23 23 23 22 22 21 21 20 20 18 17 17 17 17 18 16 14
26 28 26 29 27 28 28 29 29 30 30 27 29 25 20 17 14 13 14 15 12 16 13 16 17 18 19 19 19 21 19 19 17 19 19 16 19 19 19 19 19 18 16 16 15 14 15 14 15 14 14 14 14 14
28 28 21 22 21 23 22 24 26 25 23 24 22 24 23 19 16 16 13 12 13 16 17 16 16 17 16 16 17 18 19 18 17 16 15 15 13 13 14 15 14 13 13 13 13 12 12 12 12 12 11 11 12 10
27 25 22 20 19 19 19 22 18 20 18 18 18 20 20 17 19 15 11 12 14 17 18 18 17 15 14 14 14 14 15 14 13 13 12 12 11 11 10 10 11 11 9 10 11 10 8 9 8 7 7 7 6 5
22 18 18 17 17 16 15 17 20 19 18 17 18 18 19 17 14 9 8 10 13 14 14 14 14 12 11 11 11 12 13 12 11 12 12 10 8 8 7 6 5 6 7 6 5 4 4 3 2 2 2 2 1 2
16 19 15 15 15 14 14 15 17 15 15 16 17 18 18 13 9 8 7 10 11 10 11 12 11 11 9 9 10 10 12 10 8 7 7 10 9 7 6 5 5 5 4 1 0 0 1 -0 -1 -1 -1 -0 1 0
17 20 19 17 18 17 16 16 16 16 16 16 15 15 8 6 4 5 9 11 10 11 11 11 11 9 9 10 8 8 9 9 6 5 6 6 5 3 2 2 2 4 4 1 2 2 2 1 -0 -0 -1 -0 -1 -2
15 16 17 18 18 16 14 14 13 13 13 13 14 8 5 3 3 8 13 13 11 12 11 8 8 8 8 8 9 9 9 8 6 5 6 4 4 4 3 0 -0 2 4 2 2 1 1 0 -0 -0 -1 -2 -2 -3
18 16 13 13 15 14 13 12 12 11 12 16 6 3 2 1 3 9 11 14 12 9 8 7 5 4 4 5 5 7 6 6 5 3 1 -1 0 1 -0 -1 -0 2 -1 -1 1 1 0 -0 0 -0 -1 -2 -2 -2
17 15 14 11 12 14 14 13 13 14 14 9 4 3 3 6 6 7 10 11 12 9 7 5 5 4 3 2 1 0 -1 -2 -4 -5 -5 -4 -3 -1 -2 -3 -3 -3 -4 -4 -2 0 4 3 2 -1 -2 -3 -3 -6
16 13 12 11 11 11 11 11 10 9 9 7 7 5 5 5 7 10 8 7 6 5 3 1 0 1 1 0 1 1 -1 -1 -0 -1 -2 -3 -2 -1 -3 -3 -4 -4 -7 -6 -6 -5 -4 -6 -6 -7 -8 -8 -8 -8
12 13 12 13 13 14 11 7 5 4 3 3 1 1 2 4 6 7 6 5 4 2 3 3 3 -1 1 0 -1 -2 -1 -1 -2 -1 -2 -3 -3 -2 -2 -3 -5 -8 -9 -9 -8 -7 -7 -7 -9 -10 -10 -11 -11 -10
12 11 11 11 13 13 12 15 11 9 7 5 4 1 2 0 0 3 5 3 1 2 2 -1 2 2 -1 -2 -4 -4 -2 -2 -2 -3 -3 -2 -2 -3 -4 -5 -7 -8 -7 -8 -10 -9 -9 -9 -10 -11 -12 -12 -12 -12
8 7 8 12 13 13 10 11 9 8 6 6 5 4 1 -1 -1 2 4 -1 -1 -2 -2 1 -2 -3 -1 -3 -2 -3 -3 -5 -6 -4 -2 -1 -2 -3 -6 -6 -8 -8 -7 -8 -9 -10 -9 -10 -11 -12 -13 -14 -14 -14

GFSWCAN_sfc_30mbdewp_045.txt.gz
Dewpoint
43 41 42 42 43 43 43 43 42 42 45 44 43 43 42 42 42 38 40 41 38 36 38 40 41 35 33 32 30 34 33 34 37 31 31 31 30 30 29 31 31 28 26 24 24 23 21 28 24 21 25 25 27 31
43 42 41 42 42 43 43 43 44 44 44 43 43 42 42 42 41 40 36 42 41 37 37 42 43 43 40 35 33 36 31 33 34 33 32 32 31 31 31 27 31 30 29 26 26 26 32 28 27 27 27 26 30 32
41 42 43 43 42 43 44 45 44 43 42 44 44 43 43 43 43 38 39 40 38 33 33 36 37 43 45 43 40 33 38 40 37 40 36 34 31 32 28 29 30 32 33 30 30 31 31 31 33 35 33 31 33 34
39 40 42 43 43 43 43 42 42 43 43 43 43 43 44 42 40 40 39 39 35 36 30 31 43 39 45 46 44 42 40 46 45 41 36 34 32 34 31 31 31 32 33 31 30 31 36 36 37 35 35 37 36 35
40 40 40 41 42 43 43 43 43 43 43 42 43 42 43 41 39 40 41 39 38 33 31 34 39 42 44 46 46 44 44 44 43 39 38 36 36 34 35 34 32 34 31 29 28 30 30 29 36 37 35 35 35 34
41 41 40 40 40 40 41 41 42 42 42 42 42 41 41 40 40 36 32 39 43 38 34 30 39 39 45 48 49 48 46 44 42 40 38 39 41 38 31 30 31 34 36 37 30 36 34 35 35 36 35 35 34 34
40 40 40 40 40 40 40 40 40 40 40 41 41 41 41 41 38 34 33 38 42 41 36 31 33 38 43 47 46 47 47 45 42 40 38 39 40 39 33 31 32 36 38 38 37 35 33 34 34 34 34 34 33 33
42 42 41 41 42 41 41 40 40 41 40 40 40 41 41 41 39 37 41 42 42 38 39 32 31 37 46 43 42 46 44 44 43 40 39 39 39 36 35 35 37 37 37 37 36 36 35 33 33 32 32 32 31 31
43 43 42 43 43 42 42 41 41 41 41 41 40 41 40 38 36 36 44 45 45 39 32 32 31 33 42 39 39 40 42 40 41 39 39 39 37 36 36 35 36 36 36 35 34 33 33 33 32 31 31 31 31 30
42 43 43 43 43 43 43 42 41 41 41 42 39 34 32 34 42 44 42 39 38 38 39 33 37 35 39 36 36 34 37 37 36 39 39 37 36 36 36 36 37 36 34 34 33 32 32 31 31 31 31 31 30 30
42 42 43 43 43 43 43 42 41 41 40 36 33 33 38 43 38 37 33 32 34 33 37 36 37 38 41 35 35 36 34 33 34 36 37 34 34 35 37 36 36 35 35 36 35 34 33 32 31 30 30 31 31 30
42 42 42 43 44 44 42 42 40 38 38 39 40 42 42 37 34 30 30 31 30 31 35 35 37 39 39 39 34 35 33 33 31 36 34 31 31 35 36 36 36 37 36 35 34 33 33 31 31 30 30 30 29 28
42 41 40 40 41 43 42 43 42 42 43 41 37 35 34 32 27 25 26 29 29 32 34 35 35 36 36 36 33 33 32 31 34 31 27 28 31 33 35 35 35 35 34 33 32 31 31 30 30 29 28 28 28 26
41 41 41 41 41 41 41 42 41 42 36 33 31 26 27 25 26 27 28 29 31 31 32 34 34 34 34 33 32 31 31 32 28 24 24 28 31 31 33 33 32 31 31 30 30 30 29 28 28 28 27 27 26 24
41 41 42 42 42 43 43 41 40 38 33 30 27 24 25 29 29 30 31 31 31 33 34 34 34 34 32 31 31 31 28 23 23 21 26 29 31 31 31 31 30 29 28 28 28 26 26 26 25 25 26 24 22 21
42 41 40 41 42 43 41 39 38 36 33 27 23 22 25 23 22 24 25 26 31 32 33 32 31 29 26 25 20 19 20 17 20 22 25 31 30 30 29 29 29 28 27 27 27 26 25 24 23 21 21 20 20 19
41 40 42 42 41 40 39 36 35 32 30 26 22 24 22 22 21 22 24 25 30 31 26 23 18 18 23 18 15 17 14 17 20 22 29 30 29 29 29 29 29 28 27 26 26 25 23 19 17 17 17 19 18 18
40 42 42 40 39 38 37 35 30 27 23 24 21 21 22 21 20 21 24 26 29 27 23 20 20 14 12 12 12 15 17 19 22 23 22 27 30 30 29 28 28 27 26 25 25 25 24 22 21 20 19 19 17 17
42 41 42 42 40 34 30 31 27 21 21 23 20 20 18 17 18 19 19 21 22 23 21 15 11 11 12 14 13 15 17 17 19 20 20 21 23 24 23 24 23 23 22 22 21 20 20 21 21 20 20 18 15 14
43 42 43 41 38 32 29 29 30 24 21 18 19 15 14 14 15 15 15 15 15 15 13 11 11 13 14 15 17 17 17 19 23 18 16 17 20 19 19 19 19 19 18 18 18 18 17 16 17 17 18 17 16 14
36 36 42 37 28 27 27 28 28 29 29 27 27 21 15 15 12 11 12 13 11 12 11 14 15 16 18 18 19 18 16 16 14 16 15 13 16 16 16 16 16 16 14 14 13 13 13 12 13 14 14 13 13 13
28 27 25 24 22 22 21 23 25 24 22 22 22 22 19 16 13 13 11 10 10 12 15 14 15 15 14 14 15 17 17 15 14 13 13 12 10 10 11 13 12 11 11 11 11 9 9 9 10 10 10 10 11 10
26 23 20 19 17 17 17 22 18 20 17 17 19 18 15 14 15 12 9 10 11 15 16 16 15 15 13 14 12 13 12 11 11 11 10 9 9 8 7 7 9 8 7 7 8 6 5 5 4 5 5 5 5 4
21 17 15 15 15 15 14 17 18 17 16 16 18 17 16 14 11 7 6 8 11 13 12 13 12 10 9 9 9 9 10 9 8 9 9 5 4 4 4 4 3 3 3 3 2 2 2 1 1 1 1 1 0 1
16 18 14 15 15 13 15 16 15 15 15 15 16 15 13 9 6 6 6 9 9 9 10 11 9 9 7 7 8 8 8 5 3 3 5 4 5 4 4 4 4 4 4 3 1 1 1 0 0 -0 -0 -1 -1 -1
14 17 17 17 17 16 15 14 14 14 14 14 12 11 5 3 2 4 7 9 9 10 9 10 10 8 7 8 7 7 7 7 4 3 4 4 3 2 1 1 1 1 3 1 2 1 1 1 0 -0 -0 0 -1 -3
13 14 15 16 16 14 12 11 11 11 11 11 10 6 2 1 1 7 11 12 9 8 7 7 8 8 7 7 6 6 5 5 4 3 3 2 2 1 1 -0 -2 0 2 1 0 -1 -1 -1 -2 -1 -2 -2 -2 -4
16 14 11 11 12 11 10 10 10 10 11 12 3 2 0 0 2 7 10 10 8 7 6 5 4 4 4 4 5 5 4 3 2 1 0 0 0 0 -1 -2 -2 -1 -3 -3 -2 -2 -1 -1 -1 -2 -2 -3 -3 -3
14 12 10 10 10 10 10 10 10 11 10 5 1 0 1 4 5 6 9 11 11 8 5 3 3 2 1 1 -0 -1 -1 -2 -4 -6 -6 -5 -4 -2 -2 -3 -3 -4 -6 -4 -3 1 2 -0 -1 -5 -6 -7 -8 -9
13 11 10 9 8 7 7 6 6 4 6 6 5 5 3 4 6 8 8 7 6 4 1 0 -0 1 -1 -1 -1 -0 -1 -3 -1 -2 -4 -4 -3 -2 -4 -4 -4 -4 -7 -7 -6 -5 -4 -6 -6 -8 -10 -10 -10 -10
9 10 11 11 10 9 5 3 1 1 1 2 -1 -0 0 3 5 5 4 2 1 -0 2 2 2 -2 0 -0 -1 -2 -2 -2 -5 -4 -4 -4 -4 -4 -4 -4 -6 -8 -9 -9 -9 -8 -8 -8 -9 -10 -10 -11 -12 -12
9 8 9 9 10 9 8 9 7 6 3 3 2 -2 -1 -0 -1 2 3 2 2 3 1 -1 1 2 -1 -3 -5 -6 -4 -3 -3 -4 -4 -3 -3 -3 -5 -6 -8 -9 -8 -9 -10 -9 -10 -10 -10 -11 -12 -12 -13 -14
7 6 8 10 9 9 9 8 7 6 4 4 2 1 -1 -2 -1 1 0 -4 -2 -2 -1 -0 -2 -2 -2 -3 -2 -3 -5 -6 -7 -6 -4 -4 -4 -5 -6 -7 -9 -9 -8 -8 -9 -10 -10 -10 -10 -11 -12 -13 -14 -14

GFSWCAN_sfc_30mbdewp_048.txt.gz
Dewpoint
43 42 42 42 42 41 41 42 42 43 43 43 42 43 44 44 43 40 40 43 37 33 37 36 33 30 29 30 29 29 34 36 35 32 31 31 31 28 26 26 33 30 30 30 30 30 25 28 25 23 25 33 29 31
43 42 43 42 42 42 42 42 42 42 42 42 43 44 43 44 41 41 39 42 42 37 36 40 41 41 41 30 29 33 25 30 32 30 32 29 35 36 25 26 31 28 31 30 29 28 32 30 27 28 33 29 31 31
43 44 43 43 43 43 43 43 43 41 42 43 45 43 43 44 41 40 41 40 39 35 33 36 36 39 44 44 39 32 29 30 33 33 35 35 33 36 33 28 25 32 35 33 32 28 31 33 30 32 31 31 31 32
42 43 44 43 44 43 43 43 43 44 44 44 44 43 44 44 43 41 38 38 35 34 29 28 41 38 42 45 43 41 33 41 39 38 36 37 34 33 31 27 31 30 34 32 32 32 34 35 35 32 34 35 35 33
41 43 43 43 44 44 43 43 43 44 44 43 43 44 45 43 41 40 39 37 35 28 30 32 36 40 41 44 43 41 41 39 43 39 37 33 35 37 38 37 34 34 33 32 31 32 33 31 34 36 36 35 35 34
40 41 42 43 43 43 43 43 44 43 44 44 44 43 42 41 39 36 35 38 39 35 32 29 36 34 37 45 43 39 40 39 40 38 38 38 41 36 35 31 30 33 34 35 33 37 38 37 36 38 37 36 36 35
41 41 41 42 43 43 42 43 43 43 43 43 42 41 40 38 36 32 30 35 39 36 33 30 33 38 38 39 44 43 42 40 39 38 38 38 41 40 39 35 33 34 35 37 39 37 35 35 35 37 37 36 36 35
41 41 41 41 41 41 41 42 42 42 42 42 40 40 39 37 37 36 44 42 42 36 36 31 32 37 40 38 40 46 44 43 42 39 41 37 39 41 36 34 35 37 38 38 38 37 37 35 35 35 35 34 34 34
43 42 41 41 41 41 41 41 40 40 40 41 41 40 36 36 35 38 44 42 43 37 32 31 30 31 43 41 42 41 43 39 42 40 38 38 37 36 35 36 37 38 37 37 36 35 35 34 34 33 34 33 33 32
43 43 42 41 41 41 41 40 41 41 40 40 38 36 32 35 41 41 39 36 35 37 37 32 37 33 41 37 37 38 37 37 35 39 42 39 35 38 37 37 38 38 37 36 35 34 34 33 33 33 33 33 32 32
44 44 43 42 41 41 41 41 41 41 39 35 34 34 37 42 39 38 33 32 32 30 35 36 34 31 41 36 36 38 34 33 32 36 38 36 33 33 37 38 37 37 36 36 37 36 35 34 33 33 33 33 32 31
43 43 43 43 41 41 41 41 39 36 36 36 38 38 38 33 34 31 30 31 30 31 35 35 36 35 39 41 36 35 34 32 31 36 35 28 30 32 35 36 37 37 37 37 36 35 35 34 33 33 32 31 30 29
42 43 42 41 41 40 40 40 41 40 38 42 38 36 35 33 28 27 26 29 30 32 33 35 34 38 38 36 34 34 32 31 34 30 27 27 30 32 31 33 33 34 34 33 33 33 33 32 32 30 28 28 28 27
41 42 42 41 41 42 41 41 41 40 38 33 31 26 29 26 28 28 28 30 31 31 32 34 33 34 34 33 33 31 31 33 28 25 23 26 28 30 31 31 31 30 30 30 29 29 28 28 27 28 28 28 27 26
42 42 42 42 42 42 41 39 39 38 33 28 27 24 24 27 27 28 29 31 31 31 31 32 34 34 32 31 30 31 28 22 21 19 23 26 28 30 30 29 28 27 27 27 28 27 27 28 27 26 27 27 26 25
39 38 41 43 41 41 40 39 37 37 33 24 20 20 21 22 21 22 23 25 29 30 32 32 31 28 25 23 20 19 18 15 18 20 24 28 30 29 29 29 28 28 28 28 27 27 26 25 24 23 23 23 23 23
41 40 42 40 40 39 39 37 35 31 27 24 21 22 21 21 19 21 23 24 28 30 26 22 19 19 22 16 14 16 14 17 19 22 22 26 28 28 29 28 28 28 26 26 25 24 24 23 21 20 20 21 21 21
40 42 41 40 37 36 35 34 30 26 21 22 19 20 20 20 20 21 23 25 29 24 21 19 16 13 13 13 12 15 17 19 23 21 20 23 24 25 26 25 26 26 25 25 25 25 24 23 21 20 20 21 19 18
41 41 41 41 40 35 32 31 24 19 20 21 19 21 20 18 17 18 19 19 19 19 16 13 11 11 12 14 14 16 17 19 20 19 19 20 21 22 22 22 22 21 21 21 20 20 20 21 21 21 21 20 18 19
42 41 38 34 38 32 30 29 27 21 18 17 17 14 14 14 15 17 17 16 13 12 11 10 11 13 14 15 17 16 17 21 22 18 16 17 19 18 18 19 19 19 18 17 17 18 17 16 17 17 18 18 17 16
38 37 35 32 30 28 28 29 29 26 26 24 24 17 14 14 14 13 13 12 12 11 10 15 15 16 17 17 18 17 16 16 15 16 15 13 16 16 16 16 16 16 15 14 14 13 13 13 14 15 15 14 14 14
33 28 30 27 24 24 23 24 25 25 23 23 22 18 17 14 13 12 9 9 9 13 14 13 14 14 13 14 15 16 16 15 14 13 13 13 11 11 12 14 13 12 11 11 11 10 9 8 10 10 10 10 9 8
26 25 23 23 19 20 19 24 21 20 18 20 21 17 15 13 11 9 8 8 10 14 16 15 14 13 13 14 13 12 12 11 11 10 9 8 7 7 6 6 6 6 5 4 4 4 4 4 4 5 6 5 5 5
22 20 17 18 19 17 21 20 20 19 19 19 17 16 14 13 11 8 6 7 11 13 12 13 13 11 10 10 9 9 8 6 6 7 6 5 4 4 4 4 4 4 4 4 4 4 4 4 4 3 3 3 2 2
16 18 19 16 19 17 17 18 17 17 17 17 16 15 13 12 8 7 6 8 10 11 12 12 10 9 8 8 7 6 5 4 3 3 4 5 5 4 3 3 3 3 4 4 4 4 3 3 3 2 2 1 0 0
14 18 18 19 18 17 17 15 15 15 16 14 14 12 11 8 5 5 6 9 10 10 11 11 11 9 7 7 6 6 6 5 3 2 2 2 2 3 2 2 1 1 3 3 3 2 1 1 1 1 1 1 -0 -0
13 15 17 16 17 16 15 15 14 13 12 13 12 9 7 4 4 6 10 11 9 8 9 10 9 8 7 6 6 6 4 4 3 2 2 1 1 1 2 0 -1 0 1 1 1 1 1 0 -0 -0 -1 -0 -0 -1
15 14 10 13 13 13 11 11 11 11 11 11 7 3 3 3 4 8 9 10 8 7 7 8 7 8 7 7 7 7 6 4 4 3 3 2 2 2 2 2 1 1 0 0 1 0 0 -1 -1 -2 -3 -3 -3 -3
14 14 12 8 10 10 10 11 11 10 10 8 5 3 3 4 6 8 10 11 11 9 7 6 5 5 5 4 4 4 4 3 1 -3 -4 -2 -1 0 1 1 1 0 0 -0 -0 0 0 -1 -1 -3 -4 -4 -3 -3
14 14 11 9 8 8 9 8 8 8 7 7 5 4 3 5 7 9 10 10 9 8 7 7 6 5 4 4 3 3 3 2 1 0 -1 -1 -0 0 0 -0 -1 -1 -1 -1 -2 -2 -2 -2 -3 -3 -4 -5 -5 -5
13 15 12 11 9 8 7 7 7 6 6 5 5 4 3 5 6 7 7 6 5 5 5 5 4 4 4 3 2 1 0 1 -0 -0 0 1 1 0 -0 -1 -1 -2 -2 -3 -3 -3 -4 -4 -4 -5 -5 -6 -7 -7
12 11 10 8 8 9 9 11 11 8 7 6 4 4 4 4 3 5 6 6 6 6 4 5 5 5 4 2 1 1 -2 0 1 0 0 1 1 1 0 -1 -1 -2 -3 -3 -3 -4 -5 -5 -5 -6 -6 -7 -8 -9
10 11 12 10 9 8 10 10 9 7 7 6 5 4 4 3 2 5 4 4 5 5 4 4 5 4 2 1 1 1 -1 1 -1 -2 -2 -1 -3 -1 -1 -1 -2 -3 -4 -4 -4 -5 -6 -6 -6 -7 -7 -8 -9 -9

GFSWCAN_sfc_30mbdewp_051.txt.gz
Dewpoint
42 44 43 43 42 41 42 42 42 43 44 44 44 44 43 44 45 42 40 41 40 35 32 33 34 33 26 25 26 30 26 34 34 32 26 21 21 20 16 17 32 33 30 34 33 30 27 27 26 23 26 27 28 26
43 44 43 43 42 42 42 43 44 43 43 43 44 43 42 43 45 42 39 42 42 38 39 41 41 41 39 30 27 29 34 31 31 26 24 23 26 31 22 21 20 28 33 31 30 29 32 31 28 28 26 27 31 29
44 44 43 43 43 42 42 42 44 44 43 43 44 42 43 44 44 44 42 42 39 38 37 37 36 39 42 41 38 31 32 31 29 29 26 30 30 28 28 27 22 26 28 31 31 31 31 33 33 30 32 31 32 32
43 44 44 43 43 43 43 42 43 44 43 43 43 42 43 43 43 42 40 41 37 37 33 33 36 34 39 42 42 42 40 34 31 31 32 35 31 23 28 25 22 24 25 28 28 27 27 30 34 35 33 33 33 32
43 43 44 44 44 43 43 42 42 43 43 43 43 44 43 44 41 41 41 40 39 29 29 27 34 33 35 40 41 41 41 39 33 32 34 33 27 20 30 32 26 25 28 30 29 24 32 33 33 36 35 34 36 33
42 43 43 43 44 44 44 43 42 44 44 44 44 44 43 41 41 39 35 41 37 35 27 26 37 32 31 37 40 40 42 39 34 33 34 30 25 27 31 28 23 21 26 30 29 32 37 40 37 37 36 36 36 35
43 43 43 43 43 43 43 43 44 44 44 44 44 43 41 39 37 36 33 34 34 31 27 27 31 34 34 33 37 38 41 37 39 36 36 34 31 35 35 32 22 23 32 33 33 38 36 36 34 37 37 37 37 36
42 43 42 43 44 44 43 42 43 42 42 42 41 41 41 41 40 37 39 37 34 29 30 28 32 35 36 36 34 38 39 39 38 36 35 35 35 40 34 29 30 30 32 36 38 39 38 37 36 36 37 37 36 35
41 41 42 42 42 43 43 42 41 42 42 41 39 37 36 35 33 40 42 39 38 33 29 32 30 30 40 36 39 39 39 35 35 35 35 34 34 33 35 36 37 39 39 39 39 37 36 36 35 35 35 35 35 35
41 41 41 41 41 41 42 42 42 40 39 37 34 31 29 37 43 40 38 35 36 35 37 32 36 34 39 38 38 38 39 37 34 38 37 37 34 36 35 37 39 39 38 38 37 37 37 36 35 35 35 35 35 35
41 41 41 41 41 41 41 41 41 38 37 33 32 35 38 42 38 37 32 32 32 31 35 33 34 33 38 36 36 40 35 36 33 36 34 35 30 29 33 34 38 39 39 38 38 38 37 37 36 35 35 35 34 34
42 41 41 41 41 41 41 40 39 37 38 37 35 35 36 36 35 32 30 31 31 29 36 33 33 33 38 40 35 37 34 33 31 35 34 26 28 29 32 32 33 35 36 36 36 36 36 36 36 35 34 33 32 30
42 41 41 41 40 40 40 39 38 38 40 39 33 32 33 33 28 27 25 29 30 32 32 35 35 38 39 37 34 34 33 31 33 30 26 26 29 29 31 31 31 31 32 32 31 30 30 30 30 30 28 29 29 27
41 40 40 40 39 39 39 39 40 39 37 34 32 28 28 26 25 25 26 28 31 31 32 33 34 34 34 33 32 31 30 33 29 25 22 25 27 30 31 31 30 28 28 28 28 28 28 27 27 28 29 29 28 26
41 42 39 38 39 40 40 40 41 39 32 28 26 23 24 28 26 27 29 30 30 31 31 32 33 33 31 30 30 31 27 21 20 19 22 25 28 30 29 29 29 28 29 28 28 27 27 27 26 26 27 27 26 25
39 39 40 42 42 41 40 39 38 35 28 22 19 21 21 23 21 22 23 25 28 30 31 32 31 27 25 26 22 21 19 16 18 21 24 26 28 29 28 29 28 29 28 27 27 26 25 25 24 24 25 24 24 24
39 37 42 40 39 38 38 36 29 24 23 21 20 21 21 20 19 21 23 23 28 29 27 28 22 20 26 20 16 17 15 18 21 21 23 24 25 27 27 27 27 27 26 26 26 26 25 25 25 23 21 22 22 21
39 40 40 39 37 35 30 30 26 22 19 20 19 20 21 22 20 22 25 26 29 27 25 21 22 16 16 15 14 18 20 24 21 21 20 23 23 24 25 24 24 25 25 25 25 25 24 23 21 21 21 22 21 21
40 41 40 39 38 34 30 29 23 19 20 22 22 23 23 22 23 23 24 23 20 20 20 16 14 13 13 16 17 19 21 23 20 20 20 21 22 23 22 22 21 21 21 21 20 20 20 21 22 22 22 21 20 21
39 38 36 34 36 31 29 29 25 20 19 19 19 17 17 17 19 19 18 17 14 13 12 11 12 15 15 17 18 18 20 25 22 18 17 19 20 19 20 20 20 20 18 17 18 18 17 16 17 17 18 18 17 16
38 37 32 33 30 29 29 28 25 23 23 22 20 17 18 17 16 15 15 12 14 12 12 15 15 17 18 19 18 17 17 16 16 17 16 15 18 17 17 17 16 16 15 15 14 13 13 14 14 15 15 15 13 13
35 29 32 31 27 26 24 25 23 24 20 20 19 18 18 16 14 13 11 10 12 14 16 15 16 15 15 15 17 18 18 17 17 16 16 14 13 13 13 14 12 10 9 9 9 8 7 7 9 9 10 10 9 8
27 27 28 28 25 25 22 24 23 20 20 20 19 16 15 15 12 11 10 10 13 16 16 15 15 14 14 13 11 11 11 11 11 10 10 9 9 9 8 8 8 8 7 6 6 7 7 6 6 7 7 7 7 6
25 26 23 24 22 22 25 22 19 19 20 18 16 15 14 14 13 10 8 10 13 13 13 15 15 13 11 9 8 8 7 7 8 8 8 7 6 6 5 5 6 7 6 6 6 6 6 6 5 5 4 4 3 3
19 20 23 20 23 20 19 20 19 18 16 17 15 14 14 14 11 9 8 10 13 14 15 13 12 11 10 9 8 7 6 6 5 4 5 8 9 7 5 4 3 2 4 6 5 5 4 4 3 3 2 2 1 1
17 19 19 20 19 19 18 17 17 17 16 15 15 15 16 12 8 7 8 12 13 12 13 14 13 10 9 8 7 6 6 6 5 3 2 2 3 5 4 3 2 2 3 4 4 3 2 2 1 1 1 1 0 0
16 17 17 17 17 17 17 17 16 15 14 14 15 14 12 8 7 8 11 12 11 11 11 13 10 8 7 6 6 6 5 5 4 2 2 1 2 2 3 2 1 1 2 2 3 2 2 1 1 0 0 0 0 -0
15 15 13 15 14 14 13 13 12 12 12 12 10 8 8 7 7 11 11 12 11 10 10 9 9 8 7 8 8 8 7 7 6 5 4 3 3 3 2 3 2 1 2 2 2 2 1 1 0 -0 -1 -1 -1 -1
15 16 11 10 12 11 11 12 11 10 10 11 9 6 6 5 11 10 11 11 11 10 9 8 8 8 7 7 7 7 6 5 2 -2 -2 1 1 2 2 2 2 2 2 2 1 0 1 1 -0 -1 -1 -1 -0 -0
16 17 11 9 9 9 10 11 10 10 9 9 6 5 6 7 8 12 12 11 11 10 10 10 9 8 7 8 6 5 4 4 3 3 2 1 2 2 2 2 1 1 1 1 1 0 -0 -0 -0 -1 -1 -2 -2 -3
17 16 12 10 9 10 11 12 11 11 10 10 10 8 6 7 8 9 9 10 10 9 8 7 7 8 7 6 5 3 3 3 1 1 2 2 1 2 2 1 1 1 1 0 -0 -1 -2 -2 -1 -2 -2 -4 -4 -5
15 14 11 9 9 12 14 13 12 11 10 10 8 8 8 8 6 8 9 9 9 8 7 8 7 7 6 5 4 3 1 2 2 1 1 1 2 2 1 1 1 1 0 -1 -1 -1 -2 -3 -3 -3 -3 -4 -5 -6
14 13 12 11 10 11 12 12 10 9 9 8 8 8 8 8 6 9 8 9 11 9 8 8 7 7 5 3 3 3 2 3 2 1 1 1 -1 -0 -0 1 0 -0 -1 -2 -2 -2 -3 -3 -4 -5 -5 -5 -5 -6

GFSWCAN_sfc_30mbdewp_054.txt.gz
Dewpoint
39 42 44 44 44 43 42 43 43 44 44 44 44 44 44 44 43 43 41 42 39 36 36 35 38 34 31 29 28 26 28 33 35 30 27 26 23 21 15 15 29 29 30 32 33 32 29 28 26 23 26 28 29 28
41 44 44 43 43 42 43 43 43 43 43 44 44 44 44 44 43 44 40 42 43 39 39 42 42 45 42 36 34 29 31 32 35 36 28 29 25 24 19 19 25 27 29 32 31 30 37 34 29 31 30 32 32 31
43 44 44 43 43 43 43 44 43 43 42 43 43 44 45 44 45 44 42 43 42 37 39 38 37 43 44 42 38 30 32 36 38 38 28 27 23 24 23 25 24 27 30 31 32 28 30 37 38 34 34 34 33 33
43 44 43 43 43 43 44 44 43 44 45 44 43 43 44 44 44 44 41 41 40 38 34 35 41 37 40 40 39 41 41 34 39 39 32 30 29 27 29 24 24 26 26 31 30 31 30 29 31 36 36 36 35 34
43 44 44 44 43 43 43 44 42 44 44 44 44 44 44 45 44 44 42 41 42 37 31 36 34 31 36 39 38 40 42 40 41 37 35 31 32 30 29 30 27 23 21 23 29 30 32 33 38 36 32 33 37 35
43 44 44 44 43 42 43 43 44 43 43 43 44 44 44 45 44 41 36 43 44 42 35 30 36 31 31 37 38 37 41 42 42 39 38 34 31 29 24 24 26 24 23 21 27 29 32 38 37 37 36 38 38 38
43 44 43 44 44 43 43 44 44 43 43 44 43 43 43 41 40 37 35 39 42 40 31 28 30 32 30 32 36 36 37 41 43 40 36 33 31 30 30 28 26 25 27 32 37 39 36 38 37 37 37 37 38 37
43 44 43 43 44 44 44 44 44 43 44 43 44 42 41 41 40 38 39 39 38 32 29 26 30 34 34 33 34 36 36 38 40 39 38 36 33 35 31 32 37 38 38 33 37 38 40 38 37 36 36 37 37 37
42 43 43 43 43 43 44 43 42 43 43 41 42 42 40 40 38 38 39 35 41 36 29 32 29 30 37 37 35 36 37 34 39 37 36 35 34 32 32 33 37 39 38 38 39 39 38 37 37 36 35 35 35 36
42 42 42 42 42 41 41 41 41 41 41 40 36 35 35 39 41 36 35 33 33 35 35 32 33 31 36 35 35 36 36 35 30 33 35 35 31 33 32 33 35 36 38 39 37 38 38 38 38 36 35 36 36 36
41 42 42 42 41 41 41 40 40 40 39 36 35 36 39 42 39 36 31 31 31 30 32 31 32 32 38 31 33 37 34 34 32 34 34 32 26 29 32 32 34 34 36 36 37 38 37 37 37 37 36 36 34 32
40 40 41 41 41 41 40 39 39 39 38 37 35 36 37 36 33 31 30 32 29 27 34 34 33 34 38 40 32 34 33 33 31 36 32 24 26 30 30 31 31 32 32 32 33 33 33 33 34 32 31 29 29 29
41 42 42 41 40 39 39 39 39 39 40 38 34 35 34 33 28 27 25 26 26 31 32 33 34 38 39 37 32 33 32 30 34 29 23 24 27 29 30 30 28 29 29 28 28 28 28 28 29 28 26 26 26 25
41 41 40 39 39 41 41 40 39 38 37 34 33 26 27 24 25 24 25 27 30 30 30 31 33 33 34 32 31 30 30 32 27 22 19 23 27 28 29 30 28 28 28 28 27 27 27 27 27 27 27 26 25 24
40 39 39 38 39 40 40 39 39 34 27 26 24 22 22 27 26 26 26 29 30 31 30 31 33 34 30 29 29 30 26 19 19 17 21 25 28 28 28 28 27 27 26 26 26 25 25 25 24 24 24 24 23 23
41 40 40 40 39 39 39 37 31 30 25 21 19 20 21 21 20 21 22 25 28 29 31 31 31 27 25 24 21 20 19 15 17 20 23 25 26 26 26 27 27 27 27 26 25 25 24 23 22 22 23 23 23 23
38 37 42 40 37 38 38 33 25 21 21 21 21 22 21 20 20 23 24 24 29 27 28 26 20 21 25 18 16 19 16 18 20 21 23 24 24 24 25 26 26 26 25 25 24 24 24 24 23 21 20 22 22 22
38 41 39 39 38 34 27 27 23 20 17 20 19 21 22 23 22 23 26 26 28 26 24 21 21 15 14 14 14 20 21 21 21 20 21 23 23 22 23 23 23 23 22 23 24 24 24 23 22 22 22 23 22 22
40 40 39 38 38 33 29 28 24 19 21 24 23 24 24 23 24 25 27 27 26 26 24 20 15 13 13 17 18 20 22 21 19 20 20 21 23 23 22 22 21 21 21 21 20 20 20 20 21 22 21 20 19 22
38 36 33 33 34 30 28 29 26 24 22 22 24 19 19 18 19 18 17 18 18 17 14 12 13 15 16 18 20 20 24 24 21 18 18 20 21 20 20 21 20 20 18 16 17 18 17 17 18 17 17 17 16 15
38 36 34 32 29 30 30 26 24 24 25 23 22 20 20 19 16 15 15 13 15 13 12 16 17 19 21 21 21 20 20 19 19 19 17 16 20 19 18 17 16 15 14 13 11 11 12 12 12 14 13 12 11 14
33 31 33 34 28 27 26 27 24 24 22 21 19 19 18 17 15 13 12 13 13 15 17 16 17 16 16 18 19 19 19 18 18 17 16 15 14 14 14 14 12 11 11 11 10 10 8 8 11 11 11 13 11 8
28 29 31 32 26 25 24 25 23 20 20 19 18 16 16 15 13 12 11 12 16 19 17 17 16 14 12 11 11 12 12 12 11 11 11 11 10 11 10 10 11 10 9 8 7 8 8 7 7 8 9 7 8 8
28 29 27 27 24 23 26 23 19 19 19 17 15 14 14 15 14 10 9 13 14 13 16 20 16 12 10 9 9 9 9 10 10 12 11 8 8 6 5 4 5 7 7 7 7 7 8 8 6 6 6 4 4 5
20 20 25 22 24 21 20 20 19 18 16 16 15 15 15 15 11 10 9 13 13 16 15 15 15 13 11 9 8 7 7 7 6 5 5 9 10 8 6 4 3 3 6 7 6 6 5 6 4 4 4 3 1 3
17 19 19 20 20 20 19 17 17 16 16 15 15 16 17 13 9 9 11 15 14 14 16 18 15 10 8 8 6 6 8 8 6 4 3 3 4 6 5 4 4 3 5 7 5 4 3 3 2 2 2 3 2 1
16 17 17 18 18 18 18 18 16 15 14 14 15 14 13 8 7 9 13 15 12 14 14 15 11 9 8 7 7 7 6 6 4 3 3 3 4 4 4 3 1 2 4 3 4 4 3 2 2 1 1 1 2 1
15 16 15 16 16 16 14 14 13 12 13 13 12 9 9 9 9 14 13 13 13 11 11 11 11 11 11 10 11 11 10 10 8 7 7 5 4 4 4 6 4 2 4 3 2 2 2 2 1 1 -0 0 1 1
16 15 12 11 11 11 12 13 11 10 11 13 11 8 6 10 13 12 13 13 13 12 11 10 10 10 9 9 9 8 7 7 4 -0 1 3 5 5 4 3 4 4 3 4 3 2 1 1 1 0 -0 1 1 2
17 17 12 10 9 8 11 12 12 13 11 9 7 7 8 8 14 14 13 14 15 13 13 12 12 13 11 12 8 7 5 5 5 5 4 3 3 3 4 3 3 3 3 2 2 1 2 0 2 3 1 0 -1 -1
18 15 11 10 9 11 12 14 14 12 12 13 12 8 6 8 9 12 12 12 11 11 10 9 10 10 9 7 8 5 7 5 2 2 3 3 3 4 3 2 3 2 3 2 1 1 -0 -1 -1 -0 -1 -2 -2 -2
17 13 10 8 9 13 17 18 14 12 14 10 10 9 10 11 8 9 10 12 11 12 9 10 10 9 8 6 5 4 3 3 4 2 2 2 4 3 2 1 3 3 2 0 0 1 0 -1 -2 -2 -2 -2 -3 -3
16 15 13 12 12 12 14 14 11 10 10 9 9 10 10 11 8 10 10 12 14 13 10 11 9 8 5 5 5 3 3 5 1 1 1 1 -0 -1 -0 1 1 -0 -1 -1 -1 -0 -0 -1 -2 -2 -3 -3 -3 -3

GFSWCAN_sfc_30mbdewp_057.txt.gz
Dewpoint
40 40 40 42 44 45 44 44 44 44 44 44 44 44 45 44 44 43 41 42 38 35 37 34 36 36 31 30 27 30 29 30 29 24 23 24 23 25 26 25 28 28 28 27 31 31 28 36 33 23 26 26 28 27
41 42 43 44 45 44 44 44 43 43 44 44 44 44 45 45 44 44 40 43 41 38 39 43 43 41 42 40 35 31 29 28 31 29 28 27 24 25 23 20 27 26 26 28 27 29 37 35 38 40 40 40 36 35
42 43 45 44 43 43 43 43 43 43 44 44 44 44 44 44 44 44 41 42 41 37 38 39 36 41 43 42 43 37 36 34 38 39 35 32 25 28 22 20 19 29 33 28 30 32 29 30 36 35 41 41 42 38
44 44 44 44 43 43 44 42 43 44 44 43 43 44 44 44 44 44 42 42 39 38 33 36 41 42 42 41 41 42 42 40 39 39 35 34 32 30 23 24 25 28 30 27 30 32 33 34 31 32 35 41 38 41
44 44 45 44 43 44 43 43 44 43 44 44 43 43 44 44 44 43 43 42 42 34 31 33 39 39 40 38 39 40 42 39 39 37 35 32 33 33 33 31 25 27 23 26 25 32 29 36 38 39 36 33 37 38
43 44 44 43 43 44 43 44 44 44 43 43 43 45 44 45 45 43 38 43 44 42 35 30 36 34 40 41 40 40 39 38 38 37 35 38 38 31 27 26 29 27 27 26 23 31 32 34 38 38 37 37 38 39
43 44 43 43 44 44 44 44 45 44 44 44 43 44 43 43 43 38 35 40 44 42 35 28 30 33 34 37 37 38 40 40 38 37 38 36 36 37 29 27 37 39 40 39 40 39 38 38 37 37 37 38 37 38
43 44 44 44 44 44 44 44 44 44 44 43 44 44 43 43 40 40 42 42 44 36 33 29 30 32 35 33 34 37 36 38 38 36 37 37 37 37 31 33 35 36 38 39 39 39 38 38 37 37 36 36 36 37
43 43 44 44 44 44 43 44 43 43 42 42 41 40 40 40 37 37 39 40 40 38 31 30 28 27 38 37 35 36 36 33 38 35 34 36 34 27 28 30 32 34 35 37 39 39 39 38 38 36 36 36 36 36
43 43 43 43 43 43 43 42 41 42 41 40 40 37 33 37 40 37 37 36 35 36 35 29 33 31 35 34 33 34 35 32 31 34 38 34 26 31 31 32 32 33 34 36 37 36 37 37 38 36 35 34 32 30
42 42 42 42 42 42 42 42 42 41 39 38 36 34 39 42 38 35 30 30 32 30 32 32 33 32 37 32 32 35 32 33 26 31 30 29 22 26 31 31 30 31 32 32 34 34 35 35 35 33 30 29 28 27
42 41 41 40 40 39 39 41 41 40 39 38 37 39 39 36 33 29 29 30 28 28 33 33 34 35 36 37 33 35 30 32 27 36 27 20 23 28 29 28 29 29 29 29 30 30 30 30 30 29 27 25 25 24
41 40 40 41 41 40 40 39 39 39 39 39 37 34 34 31 25 23 24 27 27 29 30 32 32 33 35 34 32 32 29 28 33 25 19 20 26 27 28 28 27 28 28 27 27 27 26 26 25 25 24 24 23 22
39 38 41 40 40 39 39 39 38 37 36 32 28 23 23 20 22 22 22 24 29 29 29 30 32 32 32 31 31 29 29 29 22 17 14 21 24 26 27 27 26 25 25 24 24 24 23 22 22 23 23 23 22 21
40 39 39 40 40 40 38 34 35 29 26 23 22 20 19 24 23 24 26 27 29 29 29 31 32 32 29 28 27 28 23 15 17 13 18 23 25 25 25 25 25 24 23 22 23 22 22 22 21 21 22 22 22 21
40 40 40 39 38 38 37 33 28 29 25 20 19 19 20 18 18 21 23 23 27 27 29 31 30 24 23 20 16 17 15 12 14 18 21 23 22 24 24 24 24 24 24 23 23 22 22 21 21 21 22 22 22 21
40 38 40 38 37 32 31 30 23 21 22 22 19 22 22 21 20 22 25 24 28 27 26 25 18 18 20 14 14 17 13 15 18 20 20 21 21 22 22 22 23 24 24 23 23 22 22 23 21 19 19 21 21 21
37 40 40 39 39 37 28 27 22 20 18 21 18 21 22 22 20 22 25 25 27 26 24 19 16 12 13 12 13 16 17 18 19 19 21 21 21 21 21 21 21 21 20 20 19 20 22 21 20 21 21 21 20 19
40 39 37 35 36 32 28 27 24 19 22 23 23 22 22 21 21 22 24 25 21 21 19 14 11 11 11 15 15 19 19 18 17 18 19 19 21 21 20 19 18 17 18 18 17 17 17 16 16 17 17 16 16 18
38 35 35 33 34 31 28 26 28 23 22 21 20 17 16 15 17 16 15 17 17 15 13 11 12 14 15 17 19 20 21 21 18 16 16 18 19 17 17 17 16 16 14 14 14 14 14 14 13 12 13 14 13 13
38 36 34 34 30 31 28 26 26 26 26 25 25 20 18 15 12 12 12 12 12 13 13 16 16 18 20 20 20 19 19 18 18 17 16 15 18 16 16 15 14 13 11 10 9 9 11 12 13 14 8 8 9 12
34 31 33 34 28 28 26 27 26 25 22 22 20 20 18 15 13 12 12 11 13 15 16 16 17 17 18 19 19 18 18 18 17 16 15 14 13 13 13 13 11 10 11 10 9 9 8 9 10 9 9 11 7 6
32 33 31 31 24 23 22 28 20 21 19 19 18 17 16 14 14 14 11 14 17 18 17 16 16 14 13 13 13 14 13 13 12 11 11 10 9 9 8 9 11 10 9 9 10 9 7 9 6 4 3 4 6 7
30 28 26 25 23 22 24 21 21 20 18 16 15 14 15 15 13 11 10 13 16 18 20 17 13 11 10 9 10 11 11 11 9 10 13 9 7 6 6 6 7 8 10 11 7 6 6 3 6 3 -0 -0 2 3
14 18 23 21 24 20 19 18 18 17 16 16 14 15 15 14 11 11 10 13 17 17 16 17 16 12 10 10 10 11 10 7 6 5 6 8 11 8 6 5 5 6 8 6 7 3 3 2 2 5 1 -1 2 2
15 18 19 20 20 19 18 17 16 16 15 14 15 16 16 10 9 9 12 14 14 15 16 17 10 8 8 8 8 8 8 9 6 5 5 6 6 7 5 5 3 4 5 6 5 4 3 2 1 1 3 3 0 -0
16 17 18 20 20 20 17 16 16 14 14 15 14 14 10 7 7 11 15 15 14 16 15 15 12 10 9 9 9 8 7 6 5 5 6 6 6 4 2 -0 -1 2 5 2 2 4 3 2 2 1 -1 0 -0 0
17 17 15 16 14 16 13 13 12 12 13 15 10 8 8 9 8 14 14 15 12 12 11 11 12 13 13 13 13 12 12 8 6 7 7 6 6 6 6 5 5 4 6 2 1 1 -1 0 0 -1 -2 -1 1 2
16 15 12 10 10 11 12 12 11 11 12 15 10 8 7 13 14 14 13 12 12 12 11 10 10 10 9 8 7 7 6 6 3 2 3 4 4 4 4 3 5 3 3 3 4 4 2 1 1 2 -1 -1 1 1
17 15 10 8 8 8 12 15 14 13 10 9 9 9 9 12 15 15 14 16 15 13 12 12 13 12 11 8 6 5 4 2 3 4 3 1 2 4 2 1 4 1 2 3 1 1 3 -2 -1 0 2 2 -1 -3
18 14 10 10 9 11 12 13 12 11 11 11 8 6 7 9 10 13 13 12 11 10 9 9 10 11 8 6 7 5 2 2 0 -1 1 2 5 4 2 2 3 1 3 1 -1 -1 1 -0 -2 -2 -2 -2 -2 -2
17 11 8 7 10 15 16 17 14 13 12 9 8 9 10 10 7 9 11 12 13 11 12 13 8 7 5 3 1 1 4 4 3 3 2 2 2 -1 -2 0 4 1 -1 -0 0 0 0 0 -1 -1 -2 -3 -4 -4
14 12 12 11 12 13 16 14 11 12 11 10 9 11 10 10 6 9 10 13 13 12 10 9 7 4 5 6 3 2 4 0 0 1 -1 -1 -2 -3 -3 -2 -4 -4 -4 -4 -3 -1 0 0 -1 -2 -3 -4 -4 -6

GFSWCAN_sfc_30mbdewp_060.txt.gz
Dewpoint
40 40 41 41 41 42 43 43 43 43 44 44 44 44 43 43 43 42 39 42 38 33 34 38 35 31 30 29 27 29 28 30 30 26 26 24 23 26 28 27 26 24 25 26 29 28 28 37 37 30 35 38 40 39
41 41 40 42 43 44 44 44 44 44 44 44 45 45 44 45 43 42 38 42 42 37 36 40 39 42 34 33 30 31 28 28 30 29 28 25 22 26 25 23 26 25 26 24 27 27 31 39 36 41 41 37 39 39
41 43 44 44 45 44 43 43 43 44 44 44 44 44 44 44 44 43 41 41 40 37 35 35 38 43 44 43 45 32 33 33 34 37 32 29 23 25 20 22 22 24 31 29 31 30 32 31 36 37 40 35 37 39
43 44 44 45 45 43 43 44 43 43 44 44 44 44 44 44 44 44 41 42 39 36 30 33 38 40 41 42 41 43 41 41 40 41 34 31 27 32 25 25 23 22 30 30 30 31 33 33 34 36 34 36 35 37
44 44 44 43 43 43 44 44 43 44 43 44 43 44 44 44 44 45 43 42 39 32 29 34 40 40 39 42 40 42 39 37 37 36 36 32 33 31 32 32 28 33 32 29 26 30 30 29 28 31 34 32 35 34
44 44 43 43 44 44 44 44 43 43 43 43 44 44 44 44 45 42 37 42 41 43 34 28 36 40 40 39 38 39 39 38 37 37 35 36 39 30 25 25 36 37 37 39 37 39 36 38 38 38 39 38 38 38
44 44 44 44 44 44 44 44 43 42 43 43 44 43 44 44 42 37 34 40 43 43 36 31 29 37 39 39 39 39 41 39 38 39 36 36 36 38 31 26 33 35 36 39 38 40 38 37 37 37 36 37 38 39
44 44 44 44 44 44 43 42 43 44 44 43 43 44 44 42 41 39 44 42 43 39 34 28 31 32 37 34 34 39 38 37 37 36 38 36 37 36 30 29 32 33 34 37 37 38 39 39 37 36 37 37 36 33
44 44 44 43 43 43 43 43 42 43 43 43 43 42 41 40 38 40 43 43 43 36 29 29 26 28 37 36 35 36 37 33 36 33 33 34 31 22 26 28 30 31 32 35 37 37 37 37 36 35 35 34 32 29
43 44 43 43 44 43 43 42 41 41 42 42 40 35 32 39 43 38 36 34 33 35 35 27 32 30 35 34 32 32 33 31 30 32 37 27 23 28 28 30 30 30 32 33 34 34 35 36 33 31 30 29 28 26
42 42 41 41 39 39 40 40 41 40 40 36 34 35 39 41 36 33 31 30 32 28 32 32 32 31 36 31 31 34 32 31 27 31 29 23 20 24 29 27 28 29 30 31 32 32 33 33 32 29 27 26 25 24
41 40 39 40 40 41 40 41 40 38 38 37 37 39 38 35 33 27 27 29 28 29 32 32 34 36 35 37 32 34 30 31 25 31 21 16 22 26 27 25 26 27 27 27 27 27 26 26 26 25 23 22 22 22
40 41 41 40 40 40 39 38 39 39 40 39 35 33 27 25 18 20 22 25 25 28 28 30 31 33 35 34 32 31 27 27 29 20 15 18 23 25 25 24 23 24 24 23 23 23 23 23 23 23 21 22 22 20
39 39 40 40 40 37 35 32 34 32 30 26 23 19 19 17 19 19 19 21 26 27 27 29 30 32 32 30 30 27 25 24 17 12 11 19 22 23 24 23 22 21 22 22 22 21 21 21 20 21 21 22 20 19
38 38 39 39 37 35 31 31 28 25 22 20 19 16 17 21 21 23 24 25 26 28 28 29 31 30 26 25 24 25 18 12 13 11 16 20 22 23 23 23 22 21 21 21 21 20 20 21 20 20 21 21 21 20
41 37 38 39 37 32 33 26 27 28 25 19 19 17 19 16 16 19 21 21 26 26 28 29 26 22 20 19 16 15 11 9 12 16 19 20 20 21 22 22 22 22 22 22 22 21 21 20 20 20 20 20 19 20
39 37 40 39 39 29 30 26 23 21 22 20 18 21 20 20 18 20 23 22 26 26 23 21 14 16 16 14 13 14 11 14 16 17 18 19 19 19 20 20 19 19 18 19 21 22 22 22 21 18 17 19 19 19
36 38 38 37 37 34 29 25 22 20 18 21 18 19 21 20 18 19 22 23 24 24 20 15 14 10 11 10 11 13 15 16 17 18 18 18 18 18 17 17 18 18 18 17 17 17 17 17 16 17 18 17 16 16
38 37 36 35 35 30 26 26 23 19 20 20 19 19 19 19 21 22 22 19 17 18 15 12 9 9 10 14 14 16 16 15 15 16 16 17 18 17 17 16 16 15 15 16 15 14 14 14 14 14 14 15 14 14
37 36 35 35 35 29 25 25 26 22 19 19 17 17 17 17 16 14 14 13 12 13 12 10 11 13 13 17 19 18 19 19 16 13 13 15 16 15 15 14 14 13 12 11 11 12 11 9 9 11 11 11 10 10
36 33 34 33 31 29 28 26 25 23 22 21 22 18 14 12 11 11 10 11 10 13 12 15 15 17 19 19 19 18 18 17 16 14 13 13 15 14 13 12 10 10 9 9 8 9 9 9 10 8 7 7 8 8
30 33 31 31 27 25 24 27 26 27 22 21 23 19 16 12 9 11 11 10 12 14 16 15 17 17 16 16 17 17 16 15 14 13 12 12 10 10 10 10 10 9 8 8 8 7 6 6 6 7 7 6 5 6
31 31 29 25 22 20 20 26 20 23 18 18 17 15 14 11 14 12 10 14 15 17 15 13 13 14 16 16 15 14 13 11 10 10 9 8 8 8 8 9 10 8 7 8 7 7 6 3 0 2 4 5 4 4
28 27 25 23 21 20 20 19 21 19 16 15 14 14 15 11 11 9 9 12 16 17 14 12 11 10 10 10 10 11 10 10 10 11 9 6 5 6 7 7 7 8 8 7 4 2 3 3 -1 -1 0 -0 -0 2
14 17 20 20 20 18 17 16 15 15 14 14 14 15 13 12 10 9 8 11 13 14 15 13 11 11 10 9 9 9 8 7 7 7 9 8 6 5 4 5 5 5 6 3 2 1 0 2 1 -1 -1 -2 -2 -2
14 17 18 18 18 17 17 15 15 14 14 13 14 15 9 7 6 7 10 11 12 13 13 10 9 8 8 8 7 7 8 7 5 5 6 6 6 4 3 0 -0 2 3 2 2 1 1 -0 -1 1 0 -1 -1 -2
14 16 18 19 20 17 15 14 14 12 13 14 13 12 6 4 3 9 13 14 12 13 13 11 10 9 8 7 7 6 6 6 5 6 6 4 2 1 -2 -2 0 3 3 0 -0 -0 0 0 -1 -3 -2 -1 -1 -0
17 14 11 11 11 13 11 9 10 10 11 14 7 6 5 4 6 12 13 13 12 12 12 12 12 11 11 10 10 9 7 6 6 6 6 6 4 3 4 4 4 6 5 2 0 -3 -2 -2 -2 -2 -4 -3 -1 0
13 13 9 7 8 9 10 10 9 11 11 12 6 5 7 12 12 12 12 11 11 10 9 8 7 6 5 4 2 2 3 7 4 2 1 -1 0 2 2 3 2 1 1 0 3 4 2 -1 1 2 2 1 0 -0
14 11 7 6 6 6 10 11 7 7 9 9 10 9 8 9 13 14 14 13 9 6 6 7 6 5 3 2 -0 -1 -1 -0 1 1 0 -0 0 2 -1 2 -1 -1 1 -2 -3 -1 2 -2 -3 -4 -3 -2 -3 -3
13 9 8 8 8 10 9 8 8 7 5 4 4 5 6 8 10 12 12 11 10 9 9 8 7 5 6 4 2 1 0 -1 -3 0 1 1 1 -1 -2 -0 1 0 1 -2 -2 -1 -0 -0 -2 -3 -3 -3 -5 -6
10 7 6 6 8 12 13 13 9 9 8 6 6 5 7 5 4 8 11 11 11 8 8 5 5 4 -0 1 0 -1 0 -1 0 0 0 -1 -3 -5 -2 -2 -4 -5 -5 -5 -5 -3 -3 -3 -3 -4 -5 -6 -7 -8
9 9 9 10 10 10 11 12 11 10 8 8 8 8 7 5 3 6 9 10 10 9 8 5 3 2 1 1 2 2 2 1 -1 -0 -2 -3 -4 -5 -6 -6 -7 -7 -6 -6 -5 -5 -5 -5 -6 -7 -8 -9 -11 -12

GFSWCAN_sfc_30mbdewp_063.txt.gz
Dewpoint
41 41 41 41 41 41 41 42 42 42 42 42 42 42 42 43 42 44 42 42 38 32 35 38 37 33 30 29 27 29 29 30 29 25 25 25 24 24 23 25 28 28 28 28 29 27 22 36 33 33 36 39 38 38
42 42 41 42 42 41 42 44 44 44 44 43 43 43 43 42 42 42 39 43 41 36 35 38 35 37 38 33 29 31 27 30 30 26 27 26 24 25 26 20 28 23 25 24 27 25 31 35 30 35 38 41 38 39
42 43 43 43 44 44 45 45 45 44 44 44 44 44 44 44 43 41 39 41 41 35 35 35 33 39 42 43 37 29 32 32 34 34 30 28 23 25 21 23 22 25 30 28 27 27 28 30 35 38 43 42 40 39
44 44 44 44 44 44 45 44 43 43 43 44 44 45 45 44 44 43 40 41 38 37 30 30 35 33 39 43 42 41 37 40 37 38 32 32 31 31 24 23 22 23 24 22 23 28 29 33 33 33 35 39 39 39
44 44 44 43 44 44 44 44 44 43 43 43 44 44 44 45 44 45 42 42 37 31 27 28 38 35 35 41 41 41 40 39 37 33 33 32 33 32 34 33 28 36 33 30 28 36 38 36 36 37 37 37 38 38
43 43 43 44 44 44 44 43 44 44 43 43 44 44 44 44 44 43 36 42 39 39 32 27 36 37 36 39 40 39 38 39 37 37 36 36 39 35 28 25 35 36 36 37 36 38 38 40 39 38 38 38 39 39
43 43 44 43 43 44 43 42 42 43 43 44 44 44 44 44 43 37 34 39 40 38 35 31 31 40 40 40 39 38 40 39 36 36 35 35 36 37 31 28 31 32 33 35 38 38 39 39 37 38 38 37 34 32
44 43 43 43 43 44 44 43 43 42 44 44 44 44 44 43 42 41 43 42 42 38 37 30 31 35 40 36 34 39 38 38 38 35 36 35 37 35 25 28 30 30 33 35 34 38 38 37 35 33 33 32 30 28
43 43 42 42 42 42 43 43 43 43 44 44 43 42 41 40 36 40 42 41 43 37 31 29 27 28 38 35 36 37 36 31 37 34 34 36 28 21 24 27 27 29 30 32 33 36 37 34 33 31 30 28 27 25
40 39 40 40 41 41 41 42 42 43 41 40 38 35 32 39 44 42 39 35 33 37 34 29 31 31 36 33 32 33 33 32 29 32 33 24 22 26 27 25 27 28 30 31 31 32 32 34 30 28 27 26 25 24
40 41 41 41 41 41 40 40 40 41 40 38 36 34 40 43 38 34 30 30 31 28 31 32 31 31 36 31 31 33 31 31 27 30 26 21 18 23 25 24 25 27 28 28 30 28 28 28 27 25 24 23 23 22
42 41 40 39 39 39 39 40 39 38 38 36 38 39 37 31 28 26 27 28 28 26 30 32 34 34 34 37 32 33 30 30 25 26 20 15 20 23 23 22 23 24 24 24 24 23 23 23 22 21 20 20 20 20
40 40 40 38 35 34 34 36 36 40 39 34 30 25 21 20 16 18 21 23 23 26 26 30 31 33 35 35 32 31 27 26 27 17 13 16 21 22 23 21 21 22 22 22 22 22 21 21 21 20 19 20 19 19
38 38 38 36 36 32 32 30 31 28 26 23 19 16 15 13 17 18 18 20 24 25 25 29 30 31 31 30 28 23 22 21 14 10 10 17 20 21 22 22 19 20 20 20 20 20 20 19 19 20 20 19 18 17
37 38 39 39 34 33 28 32 27 24 22 19 17 14 15 20 20 21 22 24 25 27 27 30 29 27 24 22 22 22 14 10 11 10 14 18 20 20 20 20 20 20 20 19 20 19 19 18 18 18 19 19 19 18
39 36 38 39 36 33 26 25 26 27 23 19 17 15 16 15 15 17 19 20 24 25 28 26 24 21 18 18 15 13 8 8 11 14 18 18 18 18 18 19 20 21 21 20 20 20 19 18 18 18 18 18 18 17
37 36 39 38 36 28 30 24 23 22 22 20 17 20 18 17 16 17 20 20 24 24 21 16 13 14 17 14 9 12 9 12 14 15 16 17 17 17 18 18 18 18 18 18 18 19 19 20 19 16 15 17 17 17
36 37 37 37 36 30 27 25 23 22 16 17 14 16 19 18 16 17 20 18 22 19 15 13 12 9 9 8 7 11 13 15 17 16 16 16 16 16 17 16 16 17 16 16 16 15 16 15 15 15 15 14 13 13
37 36 36 36 32 28 24 24 22 15 17 18 18 18 18 17 17 17 17 15 16 16 13 10 8 8 9 12 12 14 15 14 13 14 15 16 16 15 15 14 13 13 14 13 12 12 12 12 13 13 13 11 10 10
37 34 34 35 33 26 24 25 25 19 17 18 19 16 16 16 14 14 14 13 13 13 11 9 9 12 14 17 17 17 17 17 14 12 12 13 14 13 13 12 12 12 11 10 10 9 9 8 9 9 9 8 7 6
33 31 33 31 29 29 27 26 23 22 21 20 15 13 13 11 11 11 11 12 11 12 10 13 14 16 18 18 18 17 17 16 15 12 11 10 13 12 10 10 9 8 7 6 6 7 7 7 8 6 5 4 4 4
30 34 30 28 24 24 23 27 25 25 22 21 22 17 14 10 9 11 11 10 12 13 15 15 16 15 15 15 16 16 15 13 12 11 11 10 8 8 7 8 7 6 6 5 4 3 5 6 6 5 4 3 2 0
29 29 26 23 20 19 21 25 22 22 18 17 16 14 11 9 12 11 10 13 14 16 15 14 15 15 14 14 13 12 11 9 9 8 8 7 7 7 7 7 6 5 5 6 5 2 1 3 4 4 3 2 -0 -3
26 24 24 22 20 19 18 19 20 16 15 15 14 14 13 8 10 7 8 11 14 15 14 13 12 11 10 10 10 10 10 9 8 7 7 6 5 5 6 6 6 6 5 3 3 1 -1 -1 -1 -0 -0 0 -1 0
15 17 18 18 18 16 15 14 14 14 13 13 13 14 11 10 8 7 7 10 11 12 11 11 10 9 7 7 8 9 10 8 7 7 8 6 5 4 4 4 4 5 4 0 1 1 -0 -3 -3 -3 -4 -3 -1 -1
14 17 18 18 17 16 15 15 14 13 12 13 13 11 6 5 4 5 8 10 10 11 9 8 8 8 8 7 6 5 6 7 6 5 5 7 4 0 -0 -1 -1 1 2 -1 -1 -0 -1 -1 -1 -2 -2 -3 -3 -3
14 15 16 15 18 15 13 13 12 12 12 13 12 7 3 1 2 7 11 12 11 11 11 10 9 7 6 6 7 7 6 6 4 3 3 2 1 1 -2 -2 -1 2 1 -1 -1 -1 -1 -2 -3 -4 -2 -4 -3 -2
14 11 10 9 9 10 8 7 8 8 10 11 5 4 3 2 5 10 11 11 12 12 11 11 11 9 8 7 5 4 4 5 5 4 4 4 4 3 2 2 3 4 1 -0 -2 -5 -3 -3 -1 -1 -3 -4 -1 -3
10 10 5 4 6 7 8 7 8 10 11 7 3 3 6 10 9 10 11 11 11 10 8 7 4 3 2 1 1 2 3 3 2 1 0 -1 -2 1 1 -0 0 0 -1 -1 2 3 1 -2 0 -0 -1 -2 -2 -4
10 8 5 5 5 4 6 7 6 6 8 9 9 8 8 8 10 11 9 7 7 6 5 4 1 -2 -4 -5 -4 -2 -2 -1 2 3 1 -1 -2 -1 -1 -1 -2 -1 -3 -5 -4 -2 -0 -2 -3 -5 -5 -4 -6 -6
10 7 6 7 6 7 6 4 4 4 2 3 3 3 4 7 10 10 10 7 5 5 6 5 5 1 2 0 0 -1 -1 -2 -3 -2 -2 -2 -1 -1 -1 -2 -3 -4 -3 -3 -3 -3 -2 -3 -4 -5 -5 -5 -6 -9
6 5 5 5 7 10 10 9 7 6 4 5 5 3 4 2 3 6 8 8 7 8 6 4 6 5 1 -0 -2 -3 -2 -1 -1 -1 -0 -2 -4 -5 -5 -6 -8 -7 -7 -7 -6 -5 -5 -5 -5 -6 -6 -7 -9 -11
7 8 7 8 8 8 10 9 8 7 5 6 7 5 4 2 2 5 7 4 8 8 6 3 0 -2 -1 0 0 -1 -1 -1 -3 -1 -4 -5 -6 -6 -8 -9 -9 -8 -7 -7 -7 -8 -9 -9 -10 -10 -10 -12 -13 -14

GFSWCAN_sfc_30mbdewp_066.txt.gz
Dewpoint
42 42 42 42 42 41 41 40 41 40 40 39 41 42 43 44 44 43 41 43 39 33 37 38 37 36 35 31 28 29 30 31 31 27 25 25 24 24 22 26 29 27 26 27 29 26 22 33 32 25 31 33 30 34
41 42 42 42 43 43 42 43 41 42 42 40 41 41 41 41 43 45 38 44 43 37 35 39 39 38 36 34 30 30 29 30 30 27 26 24 23 25 24 20 28 23 27 25 28 24 29 35 28 31 33 31 31 38
42 43 43 44 44 44 44 44 44 43 44 44 43 42 41 42 42 42 38 41 40 33 34 37 35 37 38 39 40 31 31 33 32 31 28 26 22 25 20 23 23 25 30 27 27 26 28 28 30 33 36 35 36 40
44 44 44 44 44 43 43 44 45 45 44 45 44 44 42 42 42 42 39 42 39 36 30 32 38 39 40 39 42 43 35 37 39 37 31 29 25 29 24 24 24 24 25 26 26 26 28 26 35 39 38 39 40 43
44 44 44 44 44 44 44 43 43 43 43 43 44 44 44 43 42 42 41 42 38 31 28 28 36 35 42 41 39 41 40 36 36 32 31 29 32 32 33 34 31 35 33 27 21 37 36 36 39 40 38 39 40 40
44 43 43 44 44 44 44 44 43 44 43 43 43 44 44 44 44 41 35 41 39 38 32 28 34 35 34 35 37 39 41 39 37 35 35 35 37 31 29 27 34 35 35 35 35 38 37 38 39 37 38 35 33 31
43 43 43 43 44 43 42 41 42 44 44 43 42 43 44 44 43 36 33 39 39 39 31 25 29 37 36 38 39 39 40 39 37 36 34 36 36 35 32 28 30 31 31 32 36 35 37 38 36 33 32 33 30 28
42 42 43 42 43 43 44 43 41 42 44 43 43 44 44 44 42 38 42 42 40 37 36 29 29 34 37 35 34 39 36 37 37 36 36 34 36 34 28 26 28 28 29 32 33 33 37 35 33 31 30 29 26 25
41 42 41 41 42 43 43 44 44 44 44 44 43 44 41 40 37 40 42 41 42 37 30 30 27 28 38 36 37 36 36 32 37 33 32 34 27 23 24 24 25 26 27 28 31 33 34 33 31 29 27 26 25 24
41 41 41 41 41 41 43 42 42 43 42 41 39 36 33 39 43 42 37 34 35 35 35 29 32 31 36 34 31 33 34 30 27 32 32 24 21 25 24 24 24 26 28 29 28 29 28 29 27 25 24 24 24 23
41 39 39 39 40 41 40 40 40 39 39 38 36 32 40 43 37 33 30 30 31 28 31 32 31 31 36 30 30 32 30 31 27 29 26 20 18 21 22 21 22 24 24 25 27 26 25 25 24 23 21 21 20 20
39 38 38 35 36 38 41 40 39 38 38 38 38 38 37 29 29 28 27 29 28 26 30 31 33 32 34 36 33 32 30 30 23 26 19 14 19 22 21 20 21 22 22 21 23 22 22 22 22 21 19 18 18 18
39 39 37 36 34 34 37 40 41 41 38 29 25 20 18 17 15 17 20 22 21 24 26 30 31 33 33 33 32 31 27 22 25 16 12 15 19 20 21 20 20 20 21 20 20 20 20 19 20 19 17 18 18 17
39 39 40 36 32 33 31 31 32 27 24 20 16 13 13 12 15 16 17 19 23 25 25 28 30 29 30 28 26 22 20 18 12 9 9 15 19 20 20 20 18 19 19 19 18 18 18 18 18 18 18 18 16 15
37 38 38 37 33 27 29 31 26 24 22 18 16 13 14 18 18 19 20 22 24 25 27 30 26 24 22 21 20 19 13 9 10 8 13 17 19 19 19 19 19 19 19 18 19 18 18 18 17 16 17 17 17 16
37 36 37 37 33 31 25 25 26 26 23 17 16 13 15 14 14 16 18 18 23 23 27 23 23 19 17 17 13 11 9 6 9 13 16 17 17 17 17 18 18 19 20 19 19 18 18 17 16 16 16 15 15 15
36 36 38 37 27 28 28 23 24 21 20 18 16 17 16 14 14 15 17 18 23 22 18 17 14 13 19 12 8 10 8 10 13 14 15 16 16 16 17 17 17 17 16 17 18 18 18 18 17 15 13 14 15 14
35 36 37 38 35 28 25 26 23 18 14 16 13 15 16 16 15 15 17 18 20 16 14 12 12 9 8 7 6 11 13 14 15 15 14 15 15 15 15 15 15 15 15 15 15 15 15 15 13 13 12 11 10 10
37 35 36 35 30 27 24 24 19 14 16 17 16 16 17 16 15 16 17 16 16 17 13 11 8 7 8 11 11 13 13 14 12 12 13 14 14 14 14 14 13 13 12 12 12 11 11 11 11 11 9 8 8 8
35 33 35 34 31 26 25 25 22 17 15 18 17 16 15 13 13 13 14 15 13 12 10 9 9 11 13 15 15 15 15 16 13 10 10 11 13 12 11 11 11 11 10 9 8 8 8 7 7 7 6 6 5 4
29 32 33 31 28 28 26 23 22 20 21 18 15 13 11 10 10 10 11 12 11 11 9 13 13 15 16 17 17 16 15 15 13 12 10 9 10 10 9 8 7 6 5 4 5 5 5 4 5 3 2 2 2 2
28 33 26 25 23 24 23 26 23 23 21 19 20 16 11 8 8 11 11 9 10 11 14 14 14 14 14 13 14 14 13 12 11 10 10 9 6 5 5 5 4 3 3 3 3 3 4 4 3 1 -1 -1 -0 0
29 28 24 21 19 20 23 25 22 22 16 15 15 11 7 7 11 11 9 12 12 15 15 14 14 13 12 12 11 11 10 9 8 7 6 6 6 5 5 5 4 3 2 3 2 3 2 3 2 0 -2 -4 -5 -5
24 22 21 19 19 18 17 17 18 15 14 14 14 13 9 7 9 7 7 10 13 15 14 13 11 9 9 8 9 9 9 8 7 6 6 5 4 3 5 4 4 4 4 3 -1 -2 -1 -1 -1 -1 -2 -1 -3 -2
14 16 17 16 15 15 14 13 13 13 12 12 13 12 10 9 6 5 6 9 10 10 10 10 9 8 7 7 8 9 9 7 5 4 6 5 4 3 3 3 3 3 2 1 -0 -2 -3 -4 -4 -4 -3 -3 -1 -2
13 16 17 16 16 15 15 14 12 11 12 12 12 8 5 4 3 4 7 8 9 9 7 6 6 6 6 6 6 6 7 7 6 4 5 7 2 -1 -1 -1 -1 1 0 -2 -1 -1 -1 -3 -3 -3 -3 -3 -4 -3
13 14 14 12 16 13 11 11 11 11 11 12 10 4 0 -1 1 5 10 11 10 11 10 9 8 7 6 6 6 6 5 4 3 3 3 2 1 0 -2 -3 -3 1 -0 -2 -2 -2 -2 -3 -3 -4 -3 -4 -5 -5
12 9 9 6 7 7 6 6 6 7 8 9 3 2 1 1 3 8 10 10 11 11 9 8 8 7 5 4 4 3 2 2 3 2 2 2 2 1 0 -0 1 3 -1 -3 -3 -5 -3 -4 -2 -3 -4 -4 -2 -6
7 7 4 3 4 4 4 4 5 8 8 4 2 2 4 7 7 9 9 10 9 7 5 4 2 1 1 1 0 1 2 1 0 -0 0 -1 -2 -0 -2 -1 -1 -2 -3 -2 0 0 -1 -3 -2 -2 -4 -5 -6 -9
7 6 4 3 2 1 3 4 4 4 6 7 9 7 6 6 8 9 8 8 7 6 3 2 -1 -1 -0 0 1 1 -2 -2 0 2 1 0 -2 -3 -2 -2 -3 -3 -6 -5 -5 -3 -1 -3 -4 -6 -5 -6 -7 -8
8 5 5 4 4 4 4 2 2 2 1 2 1 2 3 5 8 8 7 3 2 2 2 1 -0 -5 -3 -4 -3 -3 -1 -2 -5 -4 -5 -5 -4 -2 -2 -4 -7 -7 -6 -5 -4 -4 -4 -5 -6 -5 -6 -6 -8 -10
5 4 4 4 5 7 6 6 4 4 3 4 4 -0 2 1 3 5 5 5 5 5 4 2 5 6 1 -1 -4 -5 -4 -1 -2 -4 -2 -2 -3 -5 -7 -8 -10 -9 -8 -8 -8 -7 -7 -7 -7 -8 -8 -9 -11 -12
6 6 6 6 6 7 8 6 4 5 3 4 3 0 0 -0 2 4 3 1 6 7 6 4 -0 -2 -2 -2 -3 -3 -3 -3 -4 -2 -5 -6 -7 -7 -9 -10 -11 -9 -8 -8 -8 -9 -9 -10 -11 -12 -12 -13 -13 -15

GFSWCAN_sfc_30mbdewp_069.txt.gz
Dewpoint
40 41 42 42 42 42 42 42 41 41 42 42 40 41 43 42 42 41 39 43 38 32 36 35 34 32 36 34 30 32 32 33 31 28 27 25 24 25 21 25 29 25 26 26 25 25 21 30 34 26 25 31 33 32
41 41 42 42 42 43 43 43 42 42 42 41 40 40 42 44 43 43 38 43 42 36 36 40 39 38 37 36 33 33 30 31 32 29 28 25 24 25 24 20 28 22 27 26 29 26 30 35 35 33 35 35 35 34
42 42 43 44 44 43 43 43 44 44 43 42 41 39 41 42 44 43 39 42 40 32 35 36 36 39 40 39 39 33 32 33 33 33 28 26 22 26 23 24 24 27 29 27 25 25 24 24 30 39 39 39 39 40
42 43 44 43 44 44 44 43 43 43 44 43 43 42 41 42 42 40 39 41 38 36 30 32 38 39 40 41 40 40 38 38 37 35 30 28 24 27 23 23 24 24 26 25 24 26 32 29 37 39 38 39 37 36
43 43 43 43 44 44 44 44 43 42 44 44 43 44 42 42 42 41 41 42 41 34 29 31 36 36 39 39 39 41 40 38 35 35 33 31 31 32 33 33 30 32 28 26 23 35 35 35 37 38 36 35 33 31
43 43 43 43 42 43 43 43 43 43 43 43 44 44 44 42 43 39 33 41 43 41 33 27 34 35 37 39 37 38 39 39 39 36 34 35 36 31 28 27 32 34 33 34 34 35 36 37 39 34 33 33 31 29
42 43 43 43 44 44 43 42 43 43 43 42 43 45 44 42 40 35 33 39 42 41 33 25 29 36 38 38 37 36 36 37 37 36 33 35 35 34 31 26 30 30 29 30 32 34 35 36 35 32 31 30 28 26
42 42 43 43 44 44 43 42 42 43 44 42 43 44 44 43 40 37 42 41 40 37 35 29 29 33 36 33 33 37 36 37 37 34 35 34 36 35 29 26 26 26 26 29 29 31 33 35 32 29 28 28 26 24
41 42 42 42 43 44 43 41 43 44 43 43 44 44 41 39 34 39 42 41 41 36 30 30 27 27 36 34 36 36 37 31 37 32 33 35 29 27 22 22 23 23 23 25 26 29 32 31 27 26 26 25 24 23
39 39 40 41 42 42 43 43 43 43 44 43 40 36 33 39 43 41 38 35 34 35 35 29 32 30 33 34 32 31 33 31 27 31 32 26 20 22 22 22 21 22 23 24 24 24 25 26 25 23 23 23 23 21
39 38 38 40 41 41 40 42 42 41 40 39 34 34 41 40 37 34 30 29 30 28 31 32 32 30 36 30 30 33 30 30 25 28 27 20 17 19 21 20 20 21 22 22 24 24 23 24 23 21 20 21 20 19
39 37 36 38 40 40 40 40 39 38 38 37 36 36 30 29 30 28 27 29 28 26 29 31 32 33 34 34 32 31 29 29 23 26 19 13 17 19 19 18 19 20 20 20 20 20 21 20 19 19 18 17 17 17
39 37 35 35 41 41 39 39 40 40 34 27 22 17 19 17 15 17 20 21 22 23 25 29 30 32 33 34 32 30 25 20 24 16 11 14 17 18 18 18 18 19 19 18 19 19 18 17 18 17 16 17 16 15
38 38 35 33 29 32 32 34 31 27 24 19 15 12 12 11 15 15 16 18 22 24 24 28 28 27 27 24 24 20 19 19 12 9 9 14 17 18 19 20 18 18 18 18 18 17 17 17 16 17 17 16 15 13
37 37 34 35 29 30 30 27 25 23 20 17 14 12 13 16 17 18 19 21 22 24 26 29 24 22 20 18 19 17 14 9 9 8 12 16 18 19 19 19 18 18 18 17 17 16 16 16 15 15 16 16 15 15
36 36 35 32 32 28 26 27 26 25 22 15 14 12 13 13 14 15 16 17 22 22 26 23 21 17 16 15 12 9 10 6 8 13 16 17 16 17 17 17 17 18 18 18 17 17 16 15 14 14 15 14 14 13
36 34 37 30 27 27 28 24 20 17 17 14 13 15 13 14 13 15 16 17 21 21 19 18 13 13 18 11 7 10 7 10 13 13 14 15 15 15 16 16 16 17 16 17 17 17 16 16 16 13 11 13 13 13
34 35 37 37 34 28 25 24 18 15 13 15 11 14 15 15 14 15 17 18 20 17 16 15 17 10 8 7 7 11 11 13 13 13 13 14 14 15 15 14 15 15 14 14 14 14 14 13 11 11 11 11 9 8
36 36 36 33 29 26 22 21 17 12 15 17 17 16 16 14 15 16 17 17 17 17 14 12 9 7 8 11 10 12 13 13 11 11 12 13 14 14 14 13 13 12 12 12 12 10 10 10 10 9 8 7 7 7
33 35 35 35 31 27 24 22 20 16 14 16 17 13 13 12 13 13 13 14 12 11 10 8 8 10 12 14 14 14 14 14 12 10 9 11 12 11 11 11 11 11 10 10 8 8 7 6 6 5 5 5 5 4
28 31 31 29 28 27 24 21 20 18 19 16 15 14 10 11 9 10 10 11 10 9 8 11 12 14 16 16 16 16 15 15 13 11 9 8 10 10 9 8 8 6 5 5 5 4 4 4 3 3 3 3 3 4
28 30 24 25 24 24 23 24 21 22 19 18 18 13 9 8 9 10 11 8 9 10 13 13 13 13 13 13 13 13 13 12 11 10 10 9 6 5 4 4 3 4 4 4 4 4 4 2 2 1 2 2 2 2
28 26 22 21 19 21 23 27 21 21 15 15 14 8 6 6 10 11 9 10 11 14 14 13 13 12 12 12 11 10 9 7 6 6 5 5 5 5 5 4 3 2 2 2 4 3 3 2 -0 -1 -1 -1 -1 -1
23 20 18 17 18 17 15 16 17 14 14 14 12 9 7 7 8 7 6 9 12 14 13 12 10 9 8 8 8 8 8 7 6 6 5 4 4 4 4 4 3 4 3 1 0 1 0 -0 -1 0 -1 -1 -2 -1
12 15 15 14 14 13 13 12 12 11 12 12 12 10 8 8 4 5 5 9 10 10 9 10 9 8 6 7 8 8 8 6 5 4 5 4 4 3 3 3 3 3 2 1 -1 -1 -2 -4 -3 -2 -2 -1 -1 -2
12 14 14 15 15 13 13 12 11 11 11 11 9 6 4 3 2 3 7 9 9 9 7 6 6 6 7 7 7 6 7 7 5 4 5 5 2 0 0 -0 -0 1 1 -0 -0 -0 -1 -3 -2 -2 -2 -3 -5 -3
12 12 12 10 13 11 9 9 9 9 10 10 6 2 -1 -2 1 4 9 9 10 10 9 9 8 6 5 5 5 4 4 4 4 3 2 2 1 0 -1 -2 -3 1 0 -1 -1 -0 -0 -1 -2 -3 -3 -4 -4 -4
9 8 7 4 5 5 5 5 6 6 6 7 2 0 0 -1 2 7 8 9 9 8 6 6 6 6 4 3 2 1 1 2 2 2 2 2 1 0 0 1 1 2 -1 -2 -2 -3 -2 -2 -1 -2 -3 -3 -3 -6
5 5 3 1 1 1 1 2 3 6 7 3 0 1 3 6 5 7 8 9 8 5 3 2 1 1 1 0 -0 0 1 1 1 1 1 -0 -1 0 -2 -2 -2 -3 -3 -0 -2 -0 -2 -2 -2 -2 -3 -4 -6 -9
5 4 1 -0 -0 -1 2 3 3 3 4 6 8 6 5 5 7 8 8 7 6 4 2 1 0 2 3 2 2 1 -2 -2 0 2 1 0 -0 -3 -2 -1 -2 -3 -5 -3 -2 -2 -1 -2 -3 -5 -5 -5 -6 -6
5 3 2 2 2 4 4 0 -0 1 0 2 1 1 2 4 7 5 3 0 1 0 2 2 -3 -6 -3 -1 -1 -1 0 -2 -6 -5 -5 -5 -5 -3 -3 -5 -7 -7 -6 -5 -4 -4 -4 -5 -6 -6 -5 -6 -7 -9
3 2 1 1 3 4 3 4 2 2 2 3 3 -1 1 1 3 4 3 2 3 4 2 1 5 6 -0 -1 -3 -5 -5 -2 -2 -4 -3 -3 -3 -5 -7 -8 -9 -9 -8 -7 -8 -7 -7 -6 -7 -8 -9 -10 -11 -12
5 4 4 5 5 5 5 3 2 4 1 2 1 -3 -2 -1 2 3 0 -1 4 6 6 4 1 -1 -2 -3 -2 -3 -4 -4 -6 -2 -5 -5 -7 -6 -8 -9 -9 -8 -7 -7 -7 -8 -8 -8 -9 -11 -11 -12 -13 -14

GFSWCAN_sfc_30mbdewp_075.txt.gz
Dewpoint
37 39 39 40 41 41 41 42 43 43 43 42 42 42 42 39 40 39 36 38 36 33 26 24 26 28 28 25 26 35 34 34 32 29 26 23 21 22 17 21 25 25 25 24 24 25 18 21 23 23 32 33 32 32
38 39 40 41 41 41 42 42 43 43 44 43 43 42 42 42 42 42 37 40 39 34 28 29 27 28 29 35 37 33 31 33 32 30 25 24 23 23 19 16 24 24 24 22 20 20 25 29 31 34 34 33 33 33
38 39 40 41 41 41 42 43 43 44 44 44 43 43 43 42 43 42 40 40 39 35 33 30 29 33 33 31 37 34 37 35 35 33 35 34 29 24 21 18 19 22 31 30 32 28 33 29 25 33 35 34 35 35
39 40 40 40 41 42 43 43 43 44 44 43 44 43 42 42 42 43 40 40 38 35 29 26 29 28 33 33 35 36 34 37 38 38 35 32 28 24 22 22 21 20 22 19 19 20 20 22 31 34 35 35 35 35
39 40 41 41 43 43 43 43 44 43 44 44 44 44 43 42 42 43 41 42 40 28 28 24 25 32 29 29 34 38 38 36 38 34 33 31 28 28 27 27 25 21 20 21 21 34 33 31 33 35 35 35 35 33
42 42 43 43 43 43 43 44 44 44 44 44 44 44 43 42 42 41 33 41 41 38 32 29 29 28 32 30 32 34 37 39 37 35 34 33 32 33 30 23 23 27 32 32 31 33 33 33 35 34 33 32 33 33
42 42 43 43 43 43 43 44 44 44 44 44 43 44 43 43 41 36 34 37 42 40 34 27 30 33 33 36 37 37 38 39 37 34 34 35 32 31 33 27 34 30 29 29 31 30 31 32 32 31 31 30 30 29
41 40 42 43 43 43 43 43 44 44 44 43 44 43 43 41 40 38 41 42 41 38 37 30 30 31 35 35 34 39 34 36 36 34 35 35 32 36 30 28 26 25 27 29 27 27 30 31 29 27 27 27 26 24
38 40 42 43 42 42 41 42 42 43 44 44 44 43 40 38 35 38 43 42 42 38 32 31 26 26 34 33 34 36 35 30 36 32 32 31 30 28 23 25 24 24 24 24 25 26 27 28 27 26 26 25 24 23
38 41 41 42 43 42 43 44 44 44 44 41 38 35 32 37 43 39 37 33 34 36 34 30 34 30 31 30 30 33 33 31 28 32 35 32 22 23 21 21 22 23 23 23 24 25 24 25 25 23 23 22 22 20
38 40 42 42 44 44 43 42 41 40 40 38 33 34 40 42 38 35 31 31 31 30 31 32 32 30 37 29 30 34 30 31 27 29 31 29 22 21 20 19 20 21 21 21 22 22 22 23 23 22 20 19 19 18
40 41 42 42 42 43 41 40 40 40 39 37 37 38 36 34 33 30 29 30 28 27 31 30 32 35 35 37 31 32 30 31 25 31 29 24 18 18 19 19 19 20 20 20 20 20 20 20 21 20 19 18 18 17
38 39 41 42 37 37 38 39 38 38 36 33 28 27 27 26 25 26 23 24 26 30 31 32 31 34 33 34 32 31 28 26 29 27 21 18 19 20 20 19 18 19 20 19 19 19 19 19 20 18 17 18 18 17
35 36 37 38 35 32 30 29 29 26 25 24 23 19 22 21 20 21 24 26 27 30 30 34 32 32 33 29 29 26 25 24 22 19 17 18 18 20 20 20 18 18 18 18 17 17 17 17 17 18 18 17 16 15
36 34 31 31 32 31 29 27 25 23 22 20 20 18 18 21 22 23 26 28 28 31 31 32 30 29 27 25 24 23 21 18 16 16 17 17 18 18 19 19 19 19 18 18 18 17 17 17 16 16 17 17 16 15
31 30 33 32 30 28 26 24 23 22 20 18 19 20 21 24 23 24 25 26 27 29 32 30 27 24 21 21 19 17 16 15 14 16 18 18 18 19 19 20 20 20 20 19 18 18 17 16 15 15 15 14 15 14
36 29 31 27 25 24 24 22 20 18 18 18 18 20 22 20 21 22 23 24 28 30 25 24 22 19 19 17 14 14 13 15 16 17 18 19 19 19 19 19 20 20 19 19 19 18 18 18 18 16 14 15 15 13
35 33 31 31 30 25 20 19 18 17 17 20 17 20 20 22 22 22 23 23 25 24 22 20 18 16 15 14 13 13 15 16 16 16 17 18 18 19 19 18 19 19 18 18 18 18 18 18 16 14 14 11 8 7
35 34 37 38 29 23 19 19 18 16 17 20 21 21 21 21 21 21 20 18 18 20 19 16 14 13 13 16 14 15 16 16 15 15 16 17 17 17 17 17 17 17 17 17 16 14 14 15 13 10 9 8 7 7
35 34 33 31 30 20 18 18 19 17 17 18 18 17 16 17 19 20 19 17 15 15 13 12 14 17 16 18 17 17 17 16 15 15 15 16 16 17 17 17 16 16 15 16 15 14 10 8 7 7 7 7 8 7
31 30 29 27 24 21 19 18 17 17 17 17 15 15 17 18 18 17 15 14 13 13 13 15 15 17 19 21 20 19 19 19 18 19 15 14 15 15 14 15 15 15 15 13 9 8 8 6 5 7 8 8 8 7
28 29 27 26 22 20 20 19 18 18 19 17 16 16 17 17 15 13 12 12 11 15 17 16 15 15 15 15 15 15 16 15 15 14 14 14 13 12 12 11 9 9 9 8 8 8 6 5 6 6 7 6 5 6
29 27 28 27 25 21 21 27 20 19 18 15 14 13 14 14 12 12 11 10 13 16 14 13 13 13 13 12 11 11 11 11 11 11 11 9 8 8 7 7 7 7 6 4 5 6 6 4 5 5 5 5 5 4
25 25 24 25 21 21 22 18 16 16 16 15 12 12 13 13 12 12 10 11 13 13 13 13 12 12 11 10 9 8 7 7 7 7 7 6 5 5 4 4 5 5 3 3 4 5 5 5 5 4 4 4 3 3
18 17 22 19 20 18 17 17 15 15 14 14 13 12 13 13 12 10 10 11 13 14 13 12 11 11 11 10 8 8 7 6 5 4 5 6 6 4 3 2 3 3 4 6 5 5 5 4 4 4 2 3 1 1
14 16 17 18 17 17 15 15 15 14 14 13 12 12 14 12 10 9 10 14 15 14 16 15 13 11 9 9 8 8 8 8 5 5 5 4 4 6 5 4 3 5 4 6 5 4 3 2 2 1 1 1 -1 1
14 15 13 13 15 15 16 16 15 15 13 11 11 10 9 7 7 9 12 13 13 14 13 13 10 10 10 9 8 8 7 8 7 5 4 3 3 4 6 5 3 5 3 4 4 4 4 2 2 1 1 2 2 2
11 10 10 12 11 12 11 12 12 11 11 8 8 6 6 7 8 14 13 16 15 13 12 11 10 9 8 8 8 8 7 7 7 6 6 5 5 5 5 5 4 4 5 5 4 3 3 2 2 2 1 1 2 2
11 9 5 4 7 7 8 9 9 8 8 8 8 6 6 7 12 12 13 13 13 12 11 10 10 10 9 9 9 8 8 8 6 3 1 2 4 6 4 4 4 4 4 4 3 3 3 2 2 2 2 2 2 2
10 10 6 5 5 6 7 9 8 9 8 8 7 7 8 9 13 15 14 14 13 13 12 11 12 11 9 9 7 7 8 8 7 6 4 4 5 5 4 3 3 3 3 3 3 2 2 2 2 2 2 1 1 1
10 10 7 6 6 8 10 10 11 11 12 11 10 9 8 9 11 11 12 13 13 12 11 10 10 10 9 8 7 6 7 7 4 4 4 4 4 4 4 3 3 2 2 1 1 1 0 0 1 0 -0 -1 -2 -3
10 8 6 5 6 9 13 12 10 10 11 10 9 9 11 10 9 10 10 12 12 11 10 10 10 10 10 9 7 6 5 5 4 4 3 4 4 2 1 1 1 1 1 0 0 -0 -1 -1 -1 -1 -2 -3 -4 -5
10 9 8 8 8 9 10 11 8 9 9 8 9 9 9 9 7 9 9 11 13 13 11 12 11 9 6 5 5 5 4 4 2 1 -1 -1 -1 0 2 2 1 1 -0 0 0 -0 -1 -2 -3 -3 -4 -5 -5 -6

GFSWCAN_sfc_30mbdewp_078.txt.gz
Dewpoint
31 34 36 38 39 40 40 41 42 42 42 43 43 43 42 42 43 40 36 37 35 32 28 25 24 24 26 27 28 33 33 35 33 28 26 21 23 22 22 22 27 23 25 25 24 21 19 24 25 28 35 36 35 34
34 36 37 39 39 40 40 41 42 42 42 43 44 43 43 43 42 40 35 37 38 33 27 30 29 28 26 29 35 37 33 34 31 28 25 26 27 26 22 18 28 28 24 24 22 22 24 30 35 35 34 34 34 34
35 38 38 38 39 40 41 41 42 43 43 43 44 43 43 42 40 39 36 37 37 34 34 32 28 30 30 28 36 32 35 34 35 39 36 34 29 28 24 21 21 28 32 31 29 25 30 39 38 35 34 33 34 34
38 38 38 39 40 40 41 42 43 44 44 43 43 44 43 43 42 40 38 39 37 35 27 25 30 30 30 30 33 38 36 34 37 37 33 33 29 33 29 25 24 26 33 31 34 35 35 38 39 35 34 34 33 33
38 40 40 41 42 42 42 43 44 44 43 43 43 44 43 43 43 43 41 41 40 33 29 27 27 25 29 30 28 31 34 36 35 34 33 31 29 30 29 28 25 29 32 32 33 34 36 36 34 34 33 32 33 32
40 42 43 43 43 43 43 43 43 44 44 44 44 44 43 43 42 41 33 41 41 39 34 30 35 25 25 29 29 31 36 37 37 35 33 35 33 31 30 27 34 33 30 31 30 30 33 34 32 32 31 31 31 30
41 42 41 41 42 43 43 44 44 44 44 44 44 44 44 43 42 35 35 38 42 41 34 29 28 30 28 32 32 31 34 37 37 34 33 34 32 35 32 26 32 32 31 30 28 29 31 31 30 29 29 29 29 27
42 40 40 42 43 44 42 43 44 44 43 44 44 44 44 44 41 37 41 42 41 38 35 29 30 32 33 34 33 38 36 36 36 35 35 33 31 32 30 28 26 25 27 27 26 27 30 29 28 27 27 27 26 24
41 40 41 41 42 43 42 43 44 44 44 44 45 44 40 38 35 37 43 42 42 37 30 32 29 28 36 36 36 37 35 30 36 32 32 30 28 25 25 25 24 24 24 24 25 27 27 27 27 25 24 24 23 22
38 40 42 43 43 42 42 42 44 44 44 41 39 35 31 38 43 43 38 33 35 36 36 30 32 31 32 34 34 33 35 32 28 31 35 30 24 23 22 21 22 22 23 23 23 23 24 24 25 23 22 22 21 20
40 43 44 44 44 44 44 43 43 41 39 37 34 34 39 43 38 34 30 30 31 29 31 31 34 31 35 29 30 34 31 31 27 30 30 28 21 22 21 20 20 21 21 21 24 23 24 24 25 23 21 20 20 19
42 41 42 42 42 42 42 41 41 41 39 38 37 39 38 35 32 30 29 31 30 26 32 30 33 35 36 38 33 32 29 31 25 33 30 21 20 21 20 19 20 22 21 21 22 22 22 22 22 20 19 19 19 19
42 41 38 39 42 43 43 43 42 40 39 37 33 32 33 29 27 26 23 26 26 31 32 33 31 33 35 35 32 32 27 27 30 28 20 19 20 19 19 18 18 18 19 19 19 19 18 18 19 18 17 19 18 17
39 39 36 35 35 32 34 33 31 31 29 27 26 21 25 22 22 23 25 27 29 31 32 34 32 32 32 30 29 28 27 27 24 22 16 18 19 20 20 20 18 18 19 18 18 18 18 18 17 18 18 17 16 15
34 34 33 31 31 30 29 27 26 26 24 22 22 20 19 23 25 27 29 29 30 31 32 34 33 30 29 27 27 25 23 20 18 16 17 18 20 21 20 20 20 19 19 19 19 17 17 17 16 16 17 16 15 15
35 34 32 31 29 27 28 25 24 25 23 20 21 23 25 24 24 25 28 27 30 31 34 34 28 24 22 23 19 19 20 16 16 18 19 18 19 20 20 20 20 20 19 19 19 18 17 16 15 15 15 15 15 15
37 29 29 27 25 25 26 24 22 25 19 19 20 23 26 23 23 24 26 27 32 31 27 26 22 19 21 18 15 15 14 16 17 18 19 20 19 19 20 20 21 20 19 19 18 18 18 18 19 16 14 15 15 13
36 28 30 30 33 25 22 22 20 18 19 23 20 22 22 26 24 24 25 26 28 25 23 20 20 18 16 16 14 15 17 19 18 18 18 18 19 20 20 19 20 20 19 19 19 18 18 17 16 15 15 12 9 8
36 33 32 35 35 24 21 21 20 17 20 23 24 25 24 24 23 23 23 22 21 21 20 17 15 14 15 17 17 17 17 16 16 18 18 19 19 19 19 19 19 19 19 19 17 16 15 16 15 13 10 9 8 8
32 32 30 27 28 21 20 20 21 20 20 20 21 19 20 22 24 23 21 18 16 16 15 15 16 19 19 21 20 20 18 18 16 16 16 18 18 18 20 19 17 17 17 17 17 16 12 9 8 8 9 10 12 10
28 27 28 28 24 22 21 20 19 19 20 19 20 19 21 20 19 18 16 15 15 15 15 18 17 20 22 23 23 21 21 24 21 21 15 15 18 17 17 17 18 19 18 16 13 9 9 7 6 9 11 10 10 8
29 29 27 26 22 22 21 20 19 20 20 19 20 20 20 18 16 15 13 12 13 19 19 17 17 16 16 16 16 16 16 16 16 15 15 16 16 15 15 14 14 12 10 10 10 11 8 7 9 8 9 8 11 10
28 28 28 27 23 21 22 26 22 22 19 17 17 16 17 15 14 14 12 11 15 16 15 14 14 13 13 13 12 12 13 13 13 13 12 11 10 10 9 8 9 9 8 5 6 10 8 4 5 7 7 8 8 5
27 28 28 25 21 20 23 20 18 18 18 17 14 14 16 15 14 13 12 13 14 14 13 14 14 13 12 11 9 8 8 8 9 9 8 7 7 6 5 5 6 6 4 4 6 7 7 8 4 7 5 5 6 6
19 18 24 21 22 20 17 17 17 17 16 15 14 14 15 16 13 12 11 12 15 16 15 14 14 16 13 11 9 8 8 8 7 5 6 7 7 5 4 3 4 3 6 9 8 8 7 6 5 6 4 6 4 3
15 17 19 20 19 18 16 17 17 16 15 14 13 14 16 14 11 11 13 16 17 15 18 17 14 11 10 10 9 9 9 8 6 7 6 5 5 7 7 6 5 9 7 8 7 7 5 3 4 2 3 3 -2 -2
15 15 14 15 17 18 18 18 17 16 14 13 13 14 12 9 9 11 18 17 17 18 16 15 13 14 11 10 9 9 8 9 7 6 4 4 5 6 8 9 8 7 5 5 5 6 8 6 3 3 3 3 4 4
12 13 12 15 15 15 14 14 14 13 12 10 11 9 10 10 10 15 16 18 16 14 14 12 11 11 10 10 10 9 9 9 9 8 8 7 6 6 6 6 4 4 5 4 6 5 5 5 4 4 3 2 3 3
13 10 8 7 9 9 10 11 11 9 10 12 11 8 8 12 15 15 15 15 14 13 12 12 12 12 11 11 11 10 11 10 9 4 2 4 10 7 6 5 6 5 6 7 3 3 3 4 4 5 4 4 4 4
13 12 8 7 7 6 10 11 11 11 10 10 9 11 11 14 16 16 16 17 16 15 14 13 14 14 12 11 8 9 9 9 8 8 7 8 8 6 5 5 5 5 4 5 5 4 5 4 5 5 4 5 5 4
13 13 9 8 7 9 11 14 16 17 15 13 12 8 7 9 11 14 16 15 14 14 13 12 12 11 9 9 10 8 9 7 5 5 6 6 5 7 6 4 4 4 4 3 2 2 2 1 2 3 2 1 -0 -1
13 10 7 5 7 13 16 16 14 13 13 11 11 12 12 11 9 11 13 16 15 14 13 13 12 10 10 9 8 7 6 6 5 5 5 6 6 3 3 2 3 3 2 2 2 1 1 0 0 -0 -0 -1 -1 -2
12 11 10 9 9 9 12 13 10 10 10 10 11 13 13 12 9 10 12 13 17 13 14 12 11 9 7 8 7 6 6 4 1 1 0 -0 -1 0 4 4 3 3 1 1 1 1 1 -0 -1 -2 -2 -3 -3 -3

GFSWCAN_sfc_30mbdewp_081.txt.gz
Dewpoint
38 34 34 35 35 37 38 39 40 40 41 42 42 42 42 43 43 42 37 37 34 32 29 29 29 28 29 28 29 33 31 32 32 27 25 23 22 23 23 28 30 24 23 24 25 23 20 28 29 26 37 36 35 34
34 33 34 35 36 37 39 39 40 41 41 42 42 43 43 43 42 43 36 37 38 32 29 32 32 32 31 30 29 35 31 33 35 30 29 28 25 26 24 25 33 28 26 25 25 24 35 40 39 41 40 38 37 35
32 32 35 36 37 39 39 39 40 41 41 42 44 44 43 44 42 41 38 38 37 34 31 31 26 26 32 34 34 29 34 36 35 36 32 32 29 33 26 24 27 35 36 33 28 36 38 39 38 37 36 33 34 34
31 34 36 37 39 40 40 41 41 41 42 43 44 44 44 43 42 42 38 39 36 33 24 24 28 31 31 29 33 34 32 36 37 36 32 31 30 33 31 32 30 33 36 34 34 37 38 37 38 35 34 34 33 32
33 36 37 39 40 42 43 42 42 42 43 44 43 42 43 44 43 41 40 39 37 27 27 29 33 31 30 32 30 36 35 34 35 34 32 30 32 32 32 32 33 33 33 32 29 34 35 34 35 35 32 31 29 30
35 37 39 41 42 43 43 44 43 44 44 44 44 42 43 44 42 40 33 39 39 37 31 25 35 34 31 32 31 30 35 35 36 33 33 34 35 35 30 30 32 33 31 30 31 36 34 32 30 30 30 28 27 25
37 38 40 42 41 41 42 43 43 44 44 44 43 43 44 44 42 35 33 38 41 39 32 29 26 32 30 31 32 31 35 37 36 34 33 33 33 35 32 28 26 27 31 26 27 35 32 28 27 27 27 26 25 22
38 40 42 41 40 42 42 43 43 44 44 44 43 43 44 44 42 38 41 42 41 37 35 28 28 33 33 32 31 36 34 36 36 34 35 34 33 33 26 26 25 24 25 25 26 29 28 27 25 25 25 24 22 21
41 41 41 39 40 42 43 43 43 43 44 44 43 44 40 37 35 38 43 42 41 37 30 28 26 28 37 35 36 35 36 30 36 31 32 33 30 22 25 25 23 23 23 23 25 25 25 26 24 23 23 22 21 21
41 40 42 43 43 43 42 43 44 44 44 43 40 34 31 37 43 41 38 35 34 36 35 30 33 30 33 34 32 33 34 31 27 31 34 29 22 24 22 21 22 22 23 25 22 22 22 25 22 22 21 21 20 19
41 43 42 43 43 43 44 45 44 43 41 38 34 34 40 41 37 33 29 29 30 28 32 31 30 31 37 31 31 34 31 31 25 27 28 24 19 22 21 21 22 22 23 24 25 24 25 24 22 20 19 19 18 17
41 42 43 44 44 44 43 42 41 40 39 38 38 40 37 34 32 29 28 30 28 26 32 31 33 35 36 37 31 31 27 30 25 33 29 16 19 21 20 19 20 23 22 21 21 20 20 20 19 18 18 17 17 17
39 42 42 42 42 41 42 42 41 40 40 38 35 32 32 30 26 26 23 26 27 31 33 34 31 33 34 35 32 31 27 26 31 27 15 16 19 20 20 19 19 19 19 19 18 18 18 18 18 16 16 16 15 15
38 39 38 40 40 40 41 42 40 35 32 27 25 21 24 23 22 23 25 26 29 32 33 32 32 31 32 29 29 26 26 27 23 19 12 17 20 21 20 19 18 18 18 17 17 16 17 16 16 16 16 16 15 14
35 33 34 36 35 34 30 31 29 28 26 23 22 20 20 23 27 28 30 29 30 32 34 33 30 30 28 26 27 24 23 18 16 12 15 18 20 20 20 20 19 18 18 17 16 16 15 15 15 14 15 15 15 14
34 33 31 29 29 27 27 27 28 28 23 21 23 23 26 23 23 25 28 27 30 31 33 33 28 24 23 24 21 17 19 13 14 17 18 18 19 19 19 20 19 19 18 18 17 17 16 15 14 14 15 14 13 12
37 31 28 30 28 27 28 26 28 24 21 20 21 24 25 24 23 25 27 27 32 31 27 24 20 20 22 19 14 15 13 15 17 18 19 19 18 19 20 20 20 20 19 19 18 17 16 16 16 15 13 14 13 11
28 28 30 32 35 26 25 24 22 21 21 24 20 23 23 25 24 25 25 24 26 24 22 20 20 15 15 15 13 16 18 19 19 19 19 20 21 21 20 19 20 19 19 18 17 17 17 16 15 15 15 13 10 9
29 31 32 33 34 25 23 23 21 20 22 23 24 24 24 24 24 23 23 22 21 21 21 17 15 15 15 18 16 17 17 17 17 18 18 19 19 19 19 19 19 19 19 19 17 16 16 16 15 16 16 14 11 12
37 35 34 32 28 23 22 21 24 22 22 22 22 22 24 24 23 20 19 19 17 17 16 16 17 19 19 21 21 20 19 18 17 16 17 19 20 19 19 19 18 17 17 18 18 17 12 10 9 10 13 14 12 11
28 28 29 29 26 25 23 21 21 22 23 22 24 21 22 20 19 18 16 17 16 17 16 18 17 18 19 20 19 18 20 20 21 17 17 18 18 18 18 19 21 21 19 15 11 10 9 9 13 13 10 8 6 6
30 29 30 28 24 24 22 23 21 21 22 23 24 23 21 18 16 15 15 15 16 18 18 17 17 16 16 16 16 17 18 18 17 17 17 17 17 17 15 17 15 10 9 12 13 10 9 8 11 10 9 10 7 8
31 31 30 27 22 22 21 27 24 23 19 19 19 18 18 15 15 15 12 14 17 16 15 15 15 15 14 14 14 15 15 14 14 13 12 11 11 10 9 10 10 9 7 7 13 7 3 6 7 8 7 7 3 -0
29 28 26 23 21 21 24 20 19 20 20 18 15 17 17 15 15 13 12 15 15 14 15 14 14 14 14 11 10 10 11 11 10 10 11 10 7 6 7 8 6 6 7 9 9 9 10 1 2 10 4 6 2 7
15 17 22 21 22 19 18 18 18 17 16 15 14 15 14 17 14 13 11 14 16 16 16 16 18 19 13 10 9 9 10 12 9 6 7 9 8 6 6 6 5 5 9 12 11 7 3 4 4 3 4 2 3 3
12 16 19 20 20 18 18 16 16 16 15 14 14 15 17 14 12 12 14 17 17 16 17 16 13 15 14 12 11 10 10 11 10 7 7 7 8 9 10 9 8 8 7 7 6 9 5 4 3 0 2 3 -1 -6
15 15 16 18 20 20 18 18 18 15 14 13 15 15 12 9 9 13 19 18 19 19 17 17 18 13 11 10 11 9 8 7 7 6 7 8 8 9 7 6 6 6 9 8 5 5 6 7 5 3 2 3 6 5
13 15 14 16 14 16 14 14 14 13 11 12 11 10 10 9 11 17 18 18 16 14 14 13 14 13 12 12 10 8 8 7 7 8 8 8 7 7 4 2 2 4 2 -1 2 3 3 3 4 5 5 3 2 5
13 11 9 8 9 9 11 12 11 10 12 14 10 8 9 15 17 16 16 15 15 14 12 12 11 12 12 13 13 12 10 10 10 3 3 7 6 5 4 6 4 3 5 8 4 2 2 1 2 1 0 -0 -0 1
13 12 8 6 7 7 11 15 12 12 11 12 14 13 13 14 17 18 17 18 16 14 13 13 13 12 10 8 9 8 7 5 6 7 6 5 6 7 7 5 6 5 4 3 3 4 6 5 2 4 4 3 3 2
15 12 8 8 8 13 15 16 15 14 12 10 9 8 9 11 12 15 17 16 15 15 15 12 12 11 11 10 9 7 5 4 3 3 5 6 7 3 2 2 1 1 3 1 1 1 -0 -1 -0 0 -0 -1 -2 -3
13 9 6 6 9 15 17 14 12 12 13 11 10 10 11 10 9 11 13 14 16 15 13 13 9 9 7 6 5 6 5 4 5 3 4 5 3 3 3 3 3 3 -0 -0 2 3 2 -0 -1 -1 -2 -3 -4 -4
10 9 9 8 9 10 14 14 12 12 12 11 11 13 11 10 7 10 14 15 16 12 11 10 9 8 8 7 6 4 1 -1 -1 -0 -1 -2 -3 -1 0 -1 -2 -0 0 0 -0 1 0 0 -0 -1 -3 -4 -4 -4

GFSWCAN_sfc_30mbdewp_084.txt.gz
Dewpoint
32 32 35 36 34 33 34 33 35 37 38 40 41 41 41 42 42 42 39 37 32 29 27 29 29 28 28 31 28 31 29 30 30 27 25 23 22 22 22 24 23 23 24 24 23 21 18 37 33 29 35 35 36 36
31 34 37 35 34 33 33 35 37 39 40 40 41 41 42 43 43 42 38 38 37 31 28 32 31 31 29 28 28 32 31 31 33 30 29 30 26 26 26 21 32 27 31 27 24 22 37 39 39 38 39 37 36 36
33 36 35 32 32 34 36 38 39 40 40 40 41 42 42 43 43 42 39 38 38 34 31 29 26 27 30 30 34 28 33 35 32 33 32 30 26 32 26 27 31 32 35 33 29 35 36 37 37 36 36 34 34 35
35 34 32 30 32 36 38 39 41 41 41 42 42 42 44 44 43 43 39 39 37 33 25 24 29 30 31 29 33 34 33 36 35 37 31 29 27 33 29 30 30 33 36 32 33 34 36 36 36 36 31 33 31 29
34 33 32 32 35 37 39 41 43 43 43 42 42 43 43 43 44 41 40 40 39 30 24 26 34 33 32 31 29 33 34 34 33 33 29 28 32 33 34 33 28 32 30 29 27 31 33 31 35 36 32 28 27 26
32 31 33 35 38 39 40 42 43 44 43 43 44 44 42 44 42 39 33 39 39 37 28 21 31 34 34 33 31 31 33 35 35 33 31 34 35 32 29 28 29 32 32 32 31 32 31 31 31 30 28 25 24 23
30 33 35 38 38 40 42 42 42 43 43 44 43 42 42 44 41 36 31 36 40 37 31 27 26 31 36 33 32 31 35 36 35 35 32 32 32 34 31 25 27 29 28 28 33 36 29 30 27 26 24 23 22 21
33 36 37 38 40 42 42 41 42 43 44 44 44 43 42 44 42 37 40 41 38 35 34 27 25 31 34 31 32 35 32 34 35 33 34 32 33 32 23 25 24 24 26 26 27 28 26 25 24 25 24 22 21 20
37 37 39 41 41 41 41 40 41 43 43 43 44 42 42 37 35 38 42 40 41 36 28 28 23 24 36 34 35 35 35 29 33 31 31 32 26 19 22 22 22 23 23 24 26 26 26 23 22 22 22 21 20 19
37 39 40 39 41 43 43 43 44 44 44 44 40 35 30 37 43 41 39 33 34 35 35 28 30 26 35 33 32 32 32 29 26 29 33 24 19 23 22 22 22 23 25 24 21 21 24 22 20 19 20 20 18 17
39 39 42 43 43 43 43 43 43 43 42 37 32 33 39 41 37 34 29 28 30 27 30 31 31 31 37 30 29 32 30 30 25 26 29 22 18 19 21 21 23 22 22 22 22 22 22 22 20 18 18 18 17 16
40 43 44 44 44 44 44 44 43 40 38 37 38 39 38 33 31 28 26 29 26 23 29 30 33 35 34 37 32 32 27 30 23 32 22 14 18 21 19 19 20 21 19 19 19 18 18 18 18 17 17 16 16 15
43 42 42 43 42 43 42 41 41 41 40 38 35 32 31 29 25 24 22 25 25 31 33 33 30 33 34 34 31 29 24 25 31 19 14 15 20 20 19 18 18 18 18 17 17 17 16 16 16 15 14 15 15 13
41 41 41 42 43 41 42 42 39 37 35 30 26 21 23 21 21 22 24 26 29 32 33 32 31 31 32 29 29 26 25 26 22 15 11 16 18 20 19 18 16 15 15 14 14 14 14 14 14 14 14 14 13 12
40 40 39 38 37 37 37 34 30 29 25 22 22 18 18 22 25 28 30 29 30 32 34 30 29 28 27 25 26 23 22 16 14 12 13 17 19 19 18 18 17 16 15 14 14 13 13 13 13 13 14 15 14 13
37 36 33 33 32 33 31 29 29 27 24 22 22 23 25 21 23 25 27 27 31 31 34 29 25 22 22 22 17 15 17 13 12 14 16 17 17 18 18 18 17 17 16 16 15 15 14 13 13 13 14 13 13 12
37 28 29 30 30 30 29 28 27 25 22 20 20 23 23 23 22 23 25 25 30 30 26 22 19 21 23 15 12 14 11 12 15 17 18 17 18 18 18 18 18 17 16 15 15 14 14 15 14 13 11 13 13 11
27 28 31 33 29 26 27 25 24 21 20 21 18 21 22 23 22 23 23 23 25 23 21 19 17 14 13 12 11 14 16 17 17 17 18 18 18 18 18 18 18 18 18 17 17 17 17 17 16 15 14 15 13 10
26 29 33 34 32 26 23 23 23 19 21 22 22 24 24 23 21 21 21 20 20 22 18 16 14 14 14 15 15 16 17 15 15 17 17 18 18 18 19 19 19 19 18 18 17 17 16 16 15 16 16 15 13 12
32 33 33 30 29 24 22 22 26 22 21 22 23 23 24 22 21 17 18 18 18 17 14 14 15 17 18 19 18 16 16 16 15 14 15 18 18 17 16 17 17 17 17 18 17 15 14 13 13 14 13 12 10 10
29 30 31 29 26 25 22 22 22 23 22 21 23 22 20 19 17 14 14 18 14 16 13 16 16 18 19 19 19 20 19 17 14 14 15 15 17 18 19 19 19 18 17 13 12 11 11 12 11 9 7 6 6 8
29 31 27 26 24 23 22 23 21 22 23 23 24 24 20 17 14 14 16 14 15 16 18 16 16 16 16 17 17 18 19 19 18 18 17 17 17 15 16 15 11 11 13 13 10 8 9 10 9 8 7 6 6 5
33 32 28 24 20 20 20 27 22 22 19 21 21 19 16 14 14 15 12 15 16 17 16 16 16 16 16 16 16 15 16 15 14 13 12 11 10 9 8 8 8 7 10 10 7 5 5 6 7 7 5 4 2 1
28 27 24 21 21 21 23 19 21 20 21 18 17 16 16 14 15 11 10 13 15 15 14 14 14 12 11 10 10 12 12 10 9 11 10 8 7 7 7 6 7 9 9 10 7 8 5 0 6 6 5 6 6 7
14 18 20 20 21 18 17 17 18 16 15 15 14 13 14 17 13 11 9 13 14 13 14 15 15 13 9 9 9 11 13 10 7 7 9 10 7 8 7 7 8 9 9 9 7 6 5 4 3 3 2 2 3 3
11 15 18 19 19 17 17 16 16 15 14 13 13 15 17 12 10 10 12 14 14 15 16 17 17 12 11 10 9 9 9 11 8 6 8 9 9 9 7 5 5 6 6 5 7 7 3 4 1 -1 1 2 -1 -4
13 13 17 19 20 19 17 16 16 13 13 13 15 13 8 7 7 12 17 17 17 16 17 17 14 12 11 10 8 7 9 8 7 7 8 8 7 6 6 6 5 6 6 3 3 4 5 5 4 2 2 4 4 4
14 15 14 12 11 12 12 12 12 11 10 14 10 9 8 6 9 15 15 15 14 14 14 14 13 12 10 8 7 6 6 6 7 7 7 7 5 1 1 2 3 4 -2 -2 1 1 1 3 3 3 3 2 3 3
10 10 7 6 7 8 10 10 10 12 12 12 7 6 9 14 15 14 14 14 13 12 11 10 10 11 11 9 7 7 7 8 7 6 4 3 4 4 3 3 1 1 4 6 5 1 2 2 1 1 0 -1 -1 -1
12 9 5 6 6 7 10 11 10 9 12 13 13 12 10 11 15 15 14 11 9 9 9 10 9 9 8 6 4 2 2 2 4 4 4 3 4 5 4 4 3 2 0 -0 0 2 1 -2 -0 0 1 1 1 -0
12 8 6 7 9 11 11 10 9 8 7 7 7 7 8 10 13 14 14 12 12 12 12 11 10 8 6 5 4 3 0 1 2 3 4 4 2 1 1 -1 -1 -0 -1 -1 1 0 -1 -1 -3 -3 -3 -3 -4 -5
8 6 5 6 9 13 14 9 9 9 8 6 6 7 9 6 6 9 12 13 11 10 9 8 8 7 5 4 3 2 2 2 2 3 2 1 1 0 2 2 1 -1 -1 -1 -1 0 1 0 -1 -1 -3 -3 -5 -5
7 7 7 8 9 10 11 12 10 10 11 10 10 10 8 5 4 8 12 12 12 11 9 6 5 4 4 4 3 2 -0 -3 -2 -1 -3 -3 -3 -2 -5 -7 -7 -5 -4 -4 -3 -2 -1 -1 -1 -2 -3 -5 -5 -6

GFSWCAN_sfc_30mbdewp_087.txt.gz
Dewpoint
32 33 32 32 33 35 37 33 34 34 34 36 38 39 40 40 41 41 38 36 34 27 25 27 28 24 28 30 24 27 26 27 30 26 26 23 22 22 23 22 22 22 22 23 25 22 18 35 34 24 34 37 37 37
31 32 32 33 35 37 35 34 33 34 36 38 39 39 40 41 41 42 38 38 37 32 25 32 29 30 29 28 26 30 29 30 31 28 29 29 26 26 27 19 32 24 28 27 25 24 36 36 36 38 38 37 37 37
32 32 32 34 36 36 33 33 34 37 38 39 40 40 40 40 41 42 40 38 37 32 30 29 25 28 33 32 32 24 31 33 32 33 30 29 25 28 23 25 29 32 34 30 32 35 36 36 34 35 32 30 31 33
32 32 33 35 36 32 31 32 36 38 39 40 41 41 41 42 42 43 39 39 36 34 27 25 30 29 29 31 31 32 32 35 35 35 32 29 27 31 28 30 30 31 32 30 30 32 33 34 36 32 31 30 29 26
30 32 34 35 34 33 33 36 37 40 41 43 42 42 42 43 44 44 40 40 38 33 25 24 30 31 31 29 28 32 30 33 33 32 31 27 30 32 33 33 26 30 26 26 26 30 30 28 33 33 30 28 26 25
29 32 35 34 32 32 35 37 39 41 43 43 43 42 43 44 42 38 32 40 40 38 29 21 28 31 34 31 30 33 35 35 36 33 31 32 34 33 27 25 27 30 31 32 30 31 30 30 31 29 25 24 22 21
32 34 33 31 32 34 37 39 40 42 43 43 43 43 43 42 40 36 31 35 41 38 30 25 25 30 36 33 32 31 33 34 34 34 31 30 31 34 30 24 25 27 28 29 32 32 29 26 25 24 23 22 21 20
33 32 31 32 35 37 39 40 41 42 42 43 43 42 44 42 40 37 41 41 39 35 33 24 25 29 34 31 31 34 32 34 35 32 34 32 32 31 22 23 23 24 26 26 27 27 25 25 24 24 23 21 20 19
33 32 34 36 37 38 40 41 42 42 42 43 43 42 42 37 35 36 42 39 40 35 27 28 22 23 35 33 35 34 32 27 32 29 28 31 27 21 21 21 22 23 23 23 26 28 24 22 21 21 21 20 19 18
33 34 37 38 39 40 41 41 41 42 42 43 42 36 30 35 42 40 38 33 33 34 35 27 27 27 34 32 31 31 31 25 25 28 33 24 18 22 23 23 23 23 22 22 22 20 23 21 19 19 19 18 17 17
34 37 38 39 40 41 42 43 42 41 42 38 32 33 38 40 37 34 29 28 29 27 31 29 29 29 36 29 28 31 28 29 24 26 28 21 17 19 21 20 21 21 21 21 21 21 22 21 19 18 17 17 16 16
38 39 40 41 42 43 43 44 44 38 35 35 38 40 38 34 31 27 25 28 26 23 27 28 32 34 33 36 31 31 28 29 22 30 22 15 17 20 19 19 19 19 18 18 18 17 19 18 18 17 16 15 15 14
39 42 44 43 44 43 43 42 41 41 40 38 35 32 31 30 24 21 21 23 23 28 31 33 30 32 34 32 31 28 24 24 30 20 14 14 19 19 18 17 17 17 17 16 16 15 15 15 16 14 14 14 13 12
43 43 42 43 43 42 42 42 42 41 35 31 28 22 24 21 21 22 23 25 29 31 32 32 30 29 31 28 28 26 25 25 20 16 12 16 17 18 18 17 14 14 13 13 12 12 12 12 13 13 13 13 12 11
40 40 39 38 37 37 36 35 32 30 27 24 21 16 18 20 23 27 30 30 31 33 32 30 29 29 26 26 24 23 22 18 15 13 12 16 18 18 17 16 14 13 12 12 12 12 12 12 12 13 14 14 13 12
39 38 38 38 36 34 31 29 29 27 24 22 21 22 23 21 23 24 27 28 31 32 32 28 24 22 22 21 18 17 17 16 12 13 15 16 16 16 16 16 15 14 13 13 13 13 13 12 11 12 13 12 12 11
34 35 38 36 37 33 31 28 26 25 22 20 20 22 20 20 21 23 24 25 29 29 24 21 19 20 20 14 13 12 12 10 13 14 16 16 16 16 16 16 15 15 14 14 13 13 13 13 13 12 11 12 12 11
29 33 35 35 31 28 28 26 23 21 20 21 18 20 20 21 21 22 23 24 25 22 20 19 17 15 14 13 10 12 13 15 16 16 16 16 16 16 16 16 16 15 15 14 14 14 14 14 14 13 13 13 13 10
31 35 34 35 29 26 23 23 22 19 21 22 23 24 23 22 22 22 21 20 21 21 17 15 12 12 12 13 13 14 15 14 15 15 16 16 17 17 17 17 17 17 17 17 17 16 16 16 16 16 16 16 13 12
33 33 33 30 28 24 23 23 25 21 19 22 23 22 22 21 20 16 17 18 18 15 12 12 13 15 16 16 15 15 14 16 16 14 14 16 17 17 17 17 17 17 17 17 17 16 15 14 14 14 13 13 12 10
30 31 31 28 26 25 26 23 22 22 22 20 22 21 20 19 15 14 14 16 14 14 12 15 15 17 18 18 17 16 16 15 13 13 14 15 16 17 18 18 17 17 15 13 13 12 11 10 9 9 8 8 8 8
30 30 25 27 23 23 22 23 21 23 22 22 23 22 18 15 12 12 15 12 14 15 16 16 17 17 18 18 18 18 17 17 16 16 16 17 16 15 15 14 15 14 13 11 10 9 10 10 9 6 4 3 4 7
32 30 25 23 20 19 19 28 21 21 18 21 22 17 14 15 13 14 12 14 15 16 16 16 16 17 17 17 17 17 17 16 16 15 14 12 10 9 9 7 9 9 10 9 8 7 6 7 7 8 5 4 3 3
27 26 22 20 21 21 21 19 21 21 22 19 17 15 14 15 14 9 9 12 15 15 15 15 14 13 13 13 12 12 12 12 12 11 10 9 7 7 7 8 9 9 9 9 5 5 4 1 5 5 4 6 4 5
17 17 19 19 20 18 17 17 17 16 14 14 13 14 15 16 11 9 8 12 14 13 14 14 12 11 10 10 11 12 12 10 9 8 9 8 8 7 7 8 7 7 8 7 7 7 5 3 2 3 3 4 5 5
14 15 18 18 18 16 16 16 15 14 13 13 13 15 14 10 8 8 10 12 12 12 13 13 10 10 10 10 10 10 9 9 8 6 8 9 8 5 4 4 4 5 5 4 5 6 4 2 0 -0 1 1 -3 -5
11 14 17 15 19 18 15 15 15 13 12 12 15 12 6 5 6 11 14 15 15 15 16 17 13 11 10 8 8 9 9 8 7 7 7 4 5 5 5 5 5 6 4 2 3 4 5 4 3 1 2 1 1 0
15 13 15 11 10 10 11 10 11 10 11 12 8 7 6 3 8 12 13 14 15 15 14 13 12 11 8 7 6 6 6 6 6 6 6 5 3 1 1 2 3 2 -2 -1 0 -1 1 2 3 3 2 3 2 0
9 10 6 4 6 8 9 8 8 11 12 9 6 6 8 12 11 12 12 12 13 12 10 8 7 7 6 4 3 4 5 5 4 4 3 3 2 4 2 1 1 1 1 4 4 1 3 2 2 1 1 0 0 -2
10 8 5 6 5 5 7 7 8 8 11 12 12 11 9 10 13 13 11 10 9 8 7 7 7 6 6 6 3 3 1 1 4 6 5 2 2 2 2 3 2 1 -3 -1 0 0 -1 -3 -1 -3 -3 -3 -3 -3
9 6 6 7 7 8 8 7 8 6 5 6 6 6 7 9 12 12 10 7 7 8 8 7 5 3 4 2 -1 -2 -1 2 -1 0 0 1 1 1 -0 -1 -2 -3 -4 -2 -0 -0 -1 -1 -3 -3 -3 -3 -4 -6
5 5 5 5 7 10 10 7 7 7 5 5 6 6 5 4 5 8 10 9 9 8 7 7 7 7 3 1 -0 -1 0 1 1 0 0 -0 0 -1 -2 -2 -3 -3 -2 -3 -3 -2 -1 -1 -2 -3 -3 -3 -4 -6
7 6 6 8 9 9 10 10 8 8 7 6 8 7 4 2 4 7 9 8 9 9 7 5 3 2 1 1 1 -1 -2 -3 -3 -1 -3 -3 -3 -4 -7 -8 -8 -8 -7 -7 -5 -5 -5 -6 -7 -8 -8 -9 -8 -8

GFSWCAN_sfc_30mbdewp_090.txt.gz
Dewpoint
37 31 31 34 31 32 33 34 37 37 34 34 34 36 38 39 41 40 39 37 34 28 25 27 26 22 24 27 22 25 25 25 29 25 25 24 22 23 23 22 23 21 22 22 23 21 18 36 34 26 34 37 36 35
34 32 32 34 33 32 33 35 37 35 34 34 35 37 39 39 40 41 38 38 38 33 29 32 29 27 28 30 26 27 28 27 31 24 25 27 26 26 25 19 29 23 29 26 27 25 35 35 33 34 35 34 35 35
32 32 32 32 32 33 34 37 35 34 34 35 37 38 39 40 40 40 39 39 37 32 32 31 28 29 32 30 31 24 29 32 31 34 29 29 25 26 22 24 26 29 33 29 30 31 32 34 35 33 32 30 31 32
32 32 33 31 32 33 35 36 32 32 34 36 37 39 40 41 40 40 40 39 36 33 26 25 30 29 29 32 32 30 32 35 35 35 31 29 27 30 26 27 29 29 31 27 30 31 32 31 31 32 31 30 26 25
31 32 33 32 33 35 36 34 33 34 36 37 39 41 41 41 41 42 42 40 39 33 25 25 29 30 30 30 30 31 31 30 32 30 30 27 29 31 32 31 24 28 26 23 25 28 29 27 29 30 27 26 26 25
32 32 30 31 33 35 35 34 33 35 36 39 43 43 42 42 42 38 32 40 40 39 31 23 27 29 33 30 28 29 29 30 31 33 31 31 34 32 26 24 27 29 30 31 29 31 30 29 28 28 25 24 21 20
32 31 28 30 33 35 33 33 35 35 39 42 43 43 43 43 41 36 31 36 41 39 31 24 23 30 33 31 31 31 33 34 33 32 31 29 30 33 29 24 25 28 28 28 29 30 29 25 24 23 22 20 20 19
29 29 30 33 34 33 33 34 35 38 41 43 43 43 44 42 40 37 41 41 39 36 32 25 24 28 33 31 29 32 30 33 33 32 33 31 31 31 24 23 23 23 24 24 26 26 25 25 23 22 21 20 19 18
29 30 32 34 33 33 34 36 37 40 42 43 43 43 41 38 35 37 42 40 39 33 26 27 23 23 35 32 34 33 30 28 31 28 29 30 27 24 21 22 22 23 22 22 24 25 23 21 20 20 19 19 18 17
30 32 33 34 35 35 36 36 39 41 42 42 42 36 30 35 42 39 37 33 32 33 33 27 27 25 32 30 30 29 28 23 23 26 31 26 19 22 22 22 22 22 21 21 21 21 20 21 19 18 17 17 16 15
32 34 34 34 34 37 37 38 40 41 42 39 32 32 37 40 37 33 29 28 29 26 29 29 27 27 33 29 28 30 26 26 20 25 26 21 17 19 21 20 21 20 20 21 20 20 21 20 18 17 16 16 15 14
33 32 33 34 37 38 39 40 41 41 38 35 37 39 38 34 31 27 24 26 25 22 27 27 27 32 34 34 29 30 27 28 21 30 24 17 17 20 19 19 18 18 17 18 18 18 17 17 17 16 15 14 13 13
34 35 37 38 39 39 39 41 42 40 39 40 36 32 31 30 24 20 19 22 22 25 27 31 30 33 32 32 30 28 24 23 28 21 18 14 19 19 17 17 16 17 16 16 16 16 15 14 14 13 12 12 11 10
36 37 38 42 44 44 43 43 41 40 37 31 28 23 23 22 21 21 21 22 27 30 30 31 31 30 31 28 29 23 24 25 20 17 14 15 17 18 17 16 13 12 12 12 11 11 11 11 12 12 11 11 10 10
40 41 40 43 43 43 42 42 37 35 32 27 22 19 20 20 22 26 28 29 31 32 31 30 30 29 25 25 24 22 21 19 17 14 12 15 17 17 16 14 13 12 11 11 10 11 11 11 11 11 12 11 10 9
39 39 37 37 37 38 38 35 33 30 25 21 21 20 22 23 24 25 28 28 31 32 30 30 25 23 22 20 20 19 18 17 13 12 13 16 16 15 14 13 12 12 12 11 11 11 11 10 11 11 11 11 11 10
37 35 38 36 34 34 33 29 29 24 22 20 19 20 19 19 21 23 25 26 29 30 25 21 19 19 18 15 15 13 14 11 12 14 14 14 15 15 14 14 13 13 13 12 12 12 11 12 12 11 10 12 12 10
35 38 36 34 34 32 28 26 22 21 19 21 18 19 19 18 20 21 22 25 26 22 20 18 18 18 16 14 12 11 11 12 13 15 15 14 14 14 14 14 14 14 13 13 12 12 13 13 13 12 12 13 11 10
36 37 35 34 32 31 27 23 22 19 21 22 23 23 21 20 21 20 21 20 20 20 16 14 11 12 12 11 11 11 13 13 14 14 14 14 15 16 15 15 15 15 15 14 15 14 15 16 16 16 14 14 13 12
34 33 33 30 28 26 23 22 24 21 19 22 22 21 21 19 20 16 17 18 16 14 12 11 12 13 14 15 13 14 13 14 15 14 14 14 14 16 16 16 16 16 16 16 15 15 14 13 13 13 12 13 12 11
34 33 31 28 26 26 24 22 21 22 22 20 22 21 19 19 16 14 14 16 14 13 12 13 14 16 16 16 15 15 16 15 13 12 13 14 15 16 16 16 16 16 14 14 13 12 12 10 9 9 8 7 6 7
30 30 25 26 24 25 22 24 21 23 22 23 23 20 17 15 12 12 14 12 13 14 15 15 17 17 16 16 16 16 15 15 15 15 15 16 15 15 15 14 15 14 13 12 12 10 10 9 8 5 3 2 4 6
31 28 24 23 20 18 20 27 20 21 17 20 20 15 15 14 12 14 11 14 14 16 17 17 18 18 18 18 18 18 17 16 15 15 14 12 10 9 9 9 9 9 10 10 8 9 8 6 7 7 5 4 4 4
26 24 20 20 22 21 20 19 22 21 22 18 15 14 14 14 12 9 8 11 14 16 16 15 15 14 14 14 14 14 14 13 12 10 10 9 7 7 8 8 8 8 9 8 6 4 4 3 3 4 4 5 3 4
20 17 18 18 19 17 17 16 16 15 14 13 13 14 15 14 9 7 7 11 13 14 13 14 13 12 11 10 11 11 11 11 9 8 9 8 7 7 7 6 6 6 7 6 5 6 4 2 2 3 3 3 4 4
15 16 18 18 17 16 16 16 14 14 12 12 13 15 10 8 6 6 9 11 12 12 11 11 11 11 11 11 10 8 9 10 8 7 8 9 7 4 4 4 4 5 4 3 4 5 5 3 2 2 0 0 -1 -3
13 15 17 14 17 16 14 14 14 11 10 12 14 10 7 6 5 9 12 13 13 12 12 12 11 9 9 9 9 9 8 7 7 6 5 4 4 5 5 5 5 6 3 2 2 3 4 3 2 2 2 -0 -1 -1
13 12 14 10 8 9 10 8 9 10 10 12 7 7 5 3 7 10 12 12 14 14 13 11 11 10 8 7 7 5 4 4 4 4 4 3 2 1 2 1 1 1 -1 -1 -1 -2 -1 1 1 1 1 1 2 -1
8 8 5 4 5 6 6 6 7 9 11 7 5 5 7 9 8 10 12 12 12 12 10 7 4 4 3 2 2 2 3 4 3 3 2 3 2 3 -0 -1 0 -0 -1 2 1 1 2 2 2 1 -0 -1 -2 -6
8 7 5 4 3 3 5 6 7 7 9 9 10 10 8 8 10 12 11 10 10 8 5 5 4 3 3 3 4 5 0 -0 4 6 5 4 2 -0 0 2 1 -1 -4 -2 -1 -1 -2 -3 -2 -4 -4 -4 -4 -4
7 5 6 5 4 7 8 5 6 5 4 5 5 4 5 8 11 10 7 5 5 5 5 4 3 1 3 3 0 -2 -0 1 -2 -2 -2 -1 -0 0 -1 -2 -4 -5 -5 -3 -2 -1 -2 -2 -3 -3 -3 -3 -4 -5
4 4 3 3 5 9 8 6 6 7 5 6 6 3 3 3 5 7 7 6 6 6 5 5 6 5 -0 -2 -4 -3 -0 2 -0 -1 -0 -1 -1 -3 -4 -5 -7 -6 -4 -4 -5 -4 -4 -3 -3 -4 -5 -4 -5 -6
5 4 5 7 8 7 8 7 6 6 5 5 7 5 2 2 4 6 7 6 7 7 6 4 2 -0 -1 -1 0 -1 -1 -3 -4 -1 -2 -2 -4 -6 -9 -9 -9 -8 -7 -8 -7 -8 -7 -8 -9 -10 -11 -11 -11 -11

GFSWCAN_sfc_30mbdewp_096.txt.gz
Dewpoint
39 38 37 39 38 36 33 34 34 33 34 35 38 34 34 37 38 39 39 40 36 29 27 28 26 23 22 22 20 23 25 24 26 23 21 22 22 23 22 25 24 21 21 21 21 18 17 32 29 27 31 34 34 33
36 36 37 38 37 35 34 34 33 33 34 38 38 35 35 36 38 40 37 40 40 33 32 34 33 31 29 26 26 27 27 26 28 25 24 24 24 25 23 20 26 25 28 26 27 25 30 31 29 31 32 30 31 31
37 37 38 38 36 34 35 33 32 34 34 36 36 35 35 35 37 39 38 40 37 32 32 32 29 31 34 33 30 26 24 29 30 33 29 26 25 26 22 22 24 30 30 30 29 29 28 30 31 31 30 29 29 31
35 36 37 37 36 35 36 34 33 34 35 38 37 36 35 36 38 39 38 40 38 34 28 25 30 30 31 32 32 30 28 29 32 34 28 26 26 29 25 26 25 28 28 27 28 30 29 28 29 29 29 29 28 27
35 35 37 38 35 35 35 34 34 34 36 37 34 34 36 38 39 39 40 39 39 34 29 27 30 31 32 31 31 31 29 28 29 25 25 26 27 28 31 30 26 28 27 27 25 28 28 27 28 28 26 25 25 24
35 35 36 35 35 35 34 33 33 35 36 36 35 35 36 38 40 38 33 39 40 38 31 26 29 28 33 31 30 30 30 30 29 26 29 33 34 31 26 23 29 30 30 30 28 30 29 28 28 28 25 21 20 20
35 35 35 35 35 35 34 34 34 35 36 35 35 35 36 39 41 35 32 37 41 40 31 27 25 32 32 30 30 30 31 30 28 27 29 29 28 30 27 22 26 28 29 29 30 31 26 26 24 22 21 19 18 17
35 34 34 34 34 34 34 35 35 36 35 34 35 36 39 41 42 38 39 42 40 35 33 27 24 27 33 29 27 32 29 29 31 30 30 29 28 29 25 26 25 24 25 24 25 26 25 23 21 21 20 18 17 16
35 34 35 35 34 33 33 34 34 35 34 34 37 41 42 38 34 37 42 41 40 35 28 26 23 23 34 32 31 32 30 27 30 28 27 29 26 24 26 25 23 22 22 20 23 22 22 20 19 18 18 17 16 16
33 34 35 35 34 33 33 34 35 34 35 36 39 34 31 36 43 40 37 33 33 33 31 26 28 27 33 32 30 30 30 24 23 24 30 27 24 24 23 23 22 21 20 19 22 21 21 19 18 17 17 16 16 15
32 34 35 33 32 32 32 35 34 34 37 36 31 32 39 40 37 34 28 27 28 26 27 26 27 27 34 28 28 30 27 26 19 23 24 22 22 22 21 20 18 18 18 19 19 19 19 19 18 16 16 15 15 15
32 33 33 32 31 32 33 34 33 37 36 35 37 39 38 34 31 27 25 26 24 21 25 25 26 28 32 36 30 30 25 26 20 29 25 21 20 20 19 18 17 17 17 16 16 16 16 16 16 16 15 15 15 14
33 32 31 31 31 31 33 34 34 37 39 39 35 31 30 30 25 22 20 22 22 25 28 28 27 30 33 33 30 29 23 22 31 26 22 22 19 19 18 15 15 16 16 15 15 15 15 15 15 14 14 14 13 12
32 31 31 31 33 34 34 34 35 37 36 31 30 25 26 24 25 24 22 24 30 30 30 30 29 28 31 28 30 25 26 27 22 20 22 19 19 19 18 16 15 14 14 14 14 14 13 13 13 12 13 12 12 11
31 32 32 33 33 34 35 36 37 38 31 30 30 25 25 27 27 28 30 30 31 33 31 31 31 29 29 28 28 26 24 21 21 22 20 20 19 18 16 15 14 13 13 13 14 13 13 13 12 12 13 13 11 10
34 34 34 34 35 35 35 36 34 32 30 27 25 24 25 26 26 28 29 30 33 33 33 31 28 27 26 26 23 23 22 20 22 19 20 19 17 16 15 15 14 14 14 14 14 14 13 13 14 14 13 13 12 11
35 32 34 34 34 35 37 33 32 28 26 22 23 24 26 27 27 28 30 31 33 33 29 28 25 24 24 23 22 21 23 20 18 19 20 19 17 16 15 14 14 15 15 15 15 14 14 14 14 13 13 14 13 12
34 39 40 40 37 37 31 32 28 25 21 22 22 23 23 24 26 27 29 29 32 28 26 25 24 23 23 21 21 19 17 18 19 19 18 18 17 16 16 16 15 15 15 15 14 14 14 14 13 12 13 12 11 10
37 38 38 37 35 32 29 28 24 19 21 22 22 23 23 23 24 25 26 24 24 22 22 20 22 22 22 19 18 18 18 18 17 17 17 18 17 16 16 16 16 16 15 15 15 14 13 14 13 13 12 12 11 12
38 37 36 35 32 26 25 24 24 21 21 22 22 21 21 22 22 24 25 22 20 24 23 21 19 19 19 18 18 19 19 18 16 15 16 17 17 17 17 16 16 16 15 16 15 15 13 12 12 11 10 9 9 9
33 33 31 31 29 25 25 22 21 21 22 20 21 21 21 22 22 23 23 23 23 19 19 17 18 18 18 18 19 18 18 17 16 16 15 16 17 16 16 17 17 15 14 14 13 13 13 12 11 10 11 10 10 9
30 29 27 29 27 24 23 23 20 21 21 23 22 20 21 21 20 20 19 20 17 17 17 17 17 17 17 17 17 17 18 17 17 16 16 16 15 15 15 16 15 14 14 14 13 13 12 11 11 10 9 9 8 8
31 29 29 28 22 22 21 27 21 20 19 19 20 18 19 19 18 16 17 15 16 17 18 17 17 16 17 16 15 15 14 14 15 16 16 16 16 17 15 15 14 13 12 11 12 11 10 8 9 9 9 9 8 7
26 24 25 25 22 21 24 22 21 20 20 18 17 16 16 17 14 14 15 15 16 17 17 17 17 16 16 15 15 15 16 15 15 15 15 13 12 11 11 10 10 10 9 9 10 10 9 10 7 8 9 8 7 7
20 18 20 19 20 19 19 19 19 17 16 17 16 15 15 14 14 13 14 14 16 17 17 16 16 15 15 16 16 16 16 15 14 13 12 11 11 9 8 7 8 8 10 11 10 10 10 10 9 9 8 7 6 5
16 17 18 18 19 18 17 16 16 15 15 15 16 16 16 15 12 12 11 15 17 17 18 18 17 16 15 15 14 13 12 13 11 10 10 9 9 10 9 8 8 9 9 10 9 8 6 5 5 5 5 5 4 4
15 16 16 13 16 16 17 16 15 15 14 15 15 15 13 11 11 11 13 15 16 18 18 17 15 14 12 11 11 11 11 11 11 9 8 7 7 8 9 8 7 8 7 6 6 5 4 4 3 3 4 4 4 4
14 13 14 11 11 11 11 11 12 11 13 13 13 11 10 9 9 12 14 15 18 16 14 14 14 13 12 11 11 10 8 7 7 7 7 6 6 7 6 7 6 5 6 6 6 5 5 5 4 4 3 3 3 3
11 10 8 4 6 7 7 8 9 9 10 10 10 8 8 8 10 11 14 16 16 14 12 11 11 11 9 8 9 9 9 9 7 5 5 6 7 7 6 6 6 6 6 6 4 5 5 5 4 4 3 2 2 3
9 9 6 4 3 5 7 8 9 10 9 10 8 7 7 9 10 14 15 16 16 15 14 12 12 12 10 9 7 7 7 8 9 9 6 5 6 7 7 6 5 4 4 4 3 3 3 3 3 3 2 1 1 1
9 9 7 6 6 8 9 10 10 9 9 9 9 9 8 10 11 10 10 12 12 11 11 10 9 10 9 8 8 7 7 6 3 4 6 7 7 6 5 4 4 4 3 2 1 1 -0 -0 0 -1 -2 -3 -4 -5
8 6 6 5 7 10 10 10 10 9 10 9 9 9 9 10 8 9 8 10 11 12 10 9 7 7 8 6 6 6 6 5 4 4 5 5 4 4 3 2 1 1 1 0 0 -0 -1 -2 -3 -4 -5 -6 -6 -7
7 7 8 8 8 8 9 8 7 7 9 8 9 7 6 8 7 8 9 8 11 11 10 9 8 6 5 6 5 5 4 3 3 3 1 -0 -1 0 2 2 1 0 -0 -1 -1 -2 -4 -6 -6 -7 -8 -8 -9 -9

GFSWCAN_sfc_30mbdewp_102.txt.gz
Dewpoint
41 41 40 39 39 38 35 36 36 36 35 34 38 38 35 34 38 38 39 39 34 30 26 27 26 26 23 21 22 22 23 26 26 25 20 20 21 20 23 23 21 23 25 23 24 21 20 29 27 25 28 32 33 33
41 40 41 39 39 38 37 36 37 36 35 37 38 38 38 35 38 38 36 41 40 35 31 35 33 32 30 29 27 26 24 27 28 25 25 23 24 25 21 24 24 25 27 24 25 24 31 30 30 32 33 31 31 32
41 41 41 38 39 39 38 38 37 36 36 36 38 37 36 35 37 37 35 40 38 33 32 30 27 30 33 33 33 28 32 26 29 30 29 27 24 24 23 23 23 29 27 29 28 28 28 29 30 31 32 32 30 29
40 41 40 39 39 39 40 39 37 37 36 36 37 38 37 36 35 36 33 39 37 35 28 27 28 27 29 31 32 32 31 30 27 26 28 27 24 26 25 25 26 27 28 28 27 28 28 28 28 29 28 28 27 27
38 40 40 39 39 39 38 38 37 37 35 36 37 38 37 37 36 35 34 40 39 35 29 26 27 27 29 31 30 31 31 29 26 24 27 25 26 28 26 26 27 29 27 26 25 30 29 28 28 28 26 24 23 23
39 39 38 39 39 39 36 37 37 36 35 36 36 38 38 36 36 32 34 36 38 39 32 25 34 30 31 31 30 29 29 28 27 24 25 25 27 30 26 26 30 30 31 33 29 30 30 30 30 27 22 21 20 20
38 38 37 38 39 38 37 38 37 36 35 37 38 36 35 35 36 34 33 38 42 39 33 26 25 30 30 29 30 29 29 31 27 27 24 24 25 30 28 25 28 27 28 32 33 30 29 29 24 23 22 20 19 18
37 37 38 38 39 38 38 37 37 35 35 36 37 36 36 37 37 34 37 41 41 37 35 27 25 30 30 28 28 30 29 29 30 26 26 25 26 28 28 27 27 26 25 25 26 25 25 24 22 21 20 20 18 18
37 37 37 38 38 38 37 36 36 34 35 37 37 36 37 34 33 33 39 41 41 36 29 28 24 25 32 30 31 29 30 28 27 28 26 26 24 26 28 25 23 24 24 24 23 23 22 22 20 20 20 20 20 19
36 37 37 36 37 37 36 36 35 35 36 36 35 33 29 35 39 41 38 34 33 32 34 28 27 25 30 31 28 27 28 25 27 26 26 25 27 26 25 26 25 24 22 23 24 23 23 21 19 19 19 19 18 18
35 36 36 36 37 36 36 36 35 36 36 33 32 31 38 41 38 33 29 28 28 27 28 26 26 25 31 27 28 28 29 25 19 25 23 24 25 25 23 22 21 21 20 21 21 21 20 21 20 19 18 18 18 17
35 35 36 36 36 36 36 36 35 32 31 33 37 38 38 34 31 29 25 26 26 21 25 25 26 26 35 34 33 29 24 26 21 28 24 21 24 23 21 20 20 20 19 18 18 18 18 18 18 18 18 17 16 15
35 36 36 36 36 36 35 36 36 30 36 37 32 30 30 30 25 24 21 22 23 26 30 28 28 31 31 34 31 28 23 23 29 26 23 25 23 21 20 19 18 18 17 17 17 17 18 18 18 16 16 16 16 15
35 36 36 36 35 35 35 35 35 37 35 29 28 25 27 25 25 23 22 24 32 32 31 29 29 28 31 28 30 26 28 26 22 21 23 24 23 22 20 19 18 18 19 18 17 16 16 16 16 16 15 15 15 14
35 36 36 35 35 35 35 35 35 36 32 28 29 25 26 31 33 34 36 34 34 34 31 30 29 29 27 27 30 29 25 21 21 25 25 24 23 20 19 19 18 17 17 17 16 16 15 16 15 15 16 16 14 13
35 34 30 35 35 34 34 36 36 35 31 29 29 29 31 30 29 30 32 31 33 34 33 31 28 27 24 26 25 24 22 22 25 24 24 23 22 21 20 18 18 18 18 18 16 16 16 15 15 16 16 15 14 13
33 25 32 34 35 34 36 35 33 29 29 29 28 30 32 32 31 31 33 33 36 33 30 28 23 23 28 22 21 27 26 26 24 24 24 22 20 19 19 18 18 18 18 18 17 16 16 17 16 15 15 15 14 15
26 31 34 34 35 36 35 34 32 30 26 28 27 28 29 31 31 31 34 35 34 33 31 28 28 25 23 23 27 26 25 25 25 23 23 22 19 19 19 18 18 18 18 18 18 18 18 17 17 20 14 15 12 13
30 33 34 37 36 30 29 31 32 26 26 26 27 28 29 29 31 32 33 32 32 30 30 27 27 25 27 26 26 25 24 23 21 21 21 20 20 20 19 19 19 19 19 17 18 21 21 15 13 12 11 10 10 11
33 35 35 37 36 26 27 28 31 27 24 25 25 26 27 27 29 31 31 29 29 28 26 26 28 27 26 25 28 26 25 24 20 18 18 19 19 19 18 18 19 19 18 18 16 15 14 11 11 11 10 10 12 14
34 34 36 34 34 34 26 26 24 23 23 24 24 24 24 27 28 29 28 29 30 27 28 27 27 24 25 27 26 25 24 22 21 19 18 18 19 20 19 20 18 17 16 16 15 17 12 11 12 11 13 14 16 12
35 35 34 34 32 29 26 25 23 23 23 23 25 24 24 24 26 28 27 28 28 27 27 26 24 23 22 22 22 22 23 22 22 21 20 19 19 18 18 18 15 16 14 15 14 14 14 14 13 12 13 14 11 11
35 32 31 32 28 26 25 27 24 22 21 23 24 23 23 24 25 25 24 26 25 24 24 22 21 20 21 21 20 19 19 18 18 19 19 19 19 18 17 15 15 15 13 12 11 10 13 10 11 13 11 11 11 11
34 32 29 28 28 23 27 25 22 21 22 22 23 20 22 23 23 22 24 23 23 22 20 19 20 19 17 16 16 16 17 18 18 19 17 15 15 14 13 11 11 12 10 9 10 12 12 13 13 11 12 11 11 10
26 23 27 24 25 24 21 21 22 20 21 22 21 21 21 22 21 21 21 23 21 21 21 20 18 17 17 17 18 17 17 16 15 15 14 14 14 9 8 8 8 9 10 12 13 14 11 12 11 10 9 8 7 7
20 22 24 23 23 21 20 19 19 21 19 20 21 22 22 21 20 21 22 23 22 23 23 22 21 19 19 18 17 16 16 16 14 12 11 11 12 14 13 11 11 15 14 13 11 10 8 8 7 6 6 6 6 7
20 20 21 22 24 24 23 23 22 21 19 19 21 21 21 20 20 19 22 26 24 25 24 23 21 20 19 18 17 16 16 16 15 13 12 10 11 12 14 14 13 12 9 9 9 8 7 7 6 6 6 6 6 7
19 22 18 20 21 21 22 21 20 19 20 21 21 20 20 20 17 19 20 26 27 26 27 24 22 19 17 17 17 16 15 14 13 12 12 11 11 11 11 9 7 6 9 8 7 8 7 6 6 6 6 6 6 6
18 17 15 15 16 16 16 17 17 15 14 19 22 17 14 13 18 16 22 23 22 20 19 18 19 19 18 17 17 16 15 13 10 10 10 12 13 11 10 10 10 9 9 9 8 7 6 5 6 5 5 5 6 8
17 17 13 12 13 13 13 16 15 15 15 15 12 11 11 12 17 22 23 20 21 20 19 18 18 17 17 16 15 15 15 15 16 14 10 11 12 11 10 9 9 8 8 7 7 6 6 6 5 5 6 5 5 3
16 18 16 14 12 13 14 15 16 16 17 19 17 13 10 12 15 16 19 24 22 21 19 19 19 18 17 15 13 11 10 10 10 11 12 11 11 10 8 8 8 7 7 6 5 5 4 3 2 2 1 1 -0 -0
17 15 13 12 11 13 17 19 17 15 15 14 13 13 15 15 11 14 16 19 21 20 19 19 18 16 16 15 13 13 11 10 9 9 9 10 8 7 7 7 7 6 5 4 4 4 3 1 1 -0 -1 -1 -1 -2
16 15 14 12 12 12 14 16 13 13 15 13 15 18 18 16 10 13 17 19 22 19 18 16 14 14 12 11 10 10 9 8 6 5 4 4 4 6 7 7 5 4 3 2 2 2 2 1 -1 -2 -2 -3 -5 -7

GFSWCAN_sfc_30mbdewp_105.txt.gz
Dewpoint
41 40 40 39 38 38 39 38 38 37 37 36 38 37 36 36 38 39 40 40 36 30 30 33 33 30 29 26 25 26 25 26 26 25 23 22 24 24 25 27 24 24 25 22 23 20 17 28 26 23 28 31 32 32
42 41 39 39 39 38 37 37 37 38 36 36 38 38 35 34 38 38 37 41 39 33 31 36 34 33 32 30 30 29 28 29 30 24 25 25 23 26 25 23 27 25 26 24 25 23 30 30 30 32 33 31 32 33
42 42 40 39 40 38 37 38 38 37 37 38 38 38 38 35 37 38 39 39 36 32 30 32 29 32 34 33 35 30 33 33 29 31 29 28 25 26 25 28 29 30 31 26 27 28 29 30 32 33 33 32 29 28
40 40 41 40 40 38 38 38 38 37 37 38 38 38 37 35 36 36 36 38 37 33 27 29 31 28 31 32 34 34 33 34 31 30 27 27 22 28 26 29 27 28 29 28 27 28 28 29 30 31 28 26 26 24
40 40 41 38 38 38 39 38 38 38 37 37 38 38 37 36 36 35 35 39 39 35 28 27 29 28 30 32 31 31 32 31 30 27 25 26 27 28 29 30 26 28 27 26 24 30 28 28 30 28 25 23 22 22
39 40 40 39 38 39 39 39 38 38 37 37 38 38 37 37 36 35 31 37 40 39 31 24 31 31 32 30 30 30 31 30 29 27 25 26 28 28 26 25 29 31 31 33 28 31 30 30 31 28 21 20 20 20
38 39 40 39 39 39 37 38 38 37 36 37 37 38 37 36 37 35 33 37 41 40 32 26 26 34 30 30 30 30 30 32 29 27 26 26 26 29 27 25 30 29 31 31 32 30 29 31 25 22 21 21 20 19
39 39 39 39 39 39 38 38 37 36 36 37 37 36 36 36 36 32 37 41 40 36 34 25 25 31 30 28 28 31 29 30 30 27 27 25 27 28 27 27 26 25 26 27 26 25 24 23 21 21 21 20 19 19
38 38 37 38 39 38 38 38 37 35 36 37 37 37 36 34 30 32 40 41 39 36 28 26 21 24 35 31 31 30 32 27 30 26 26 27 25 25 27 26 24 24 24 23 24 23 22 21 20 20 21 20 19 19
37 38 38 38 39 38 37 37 36 36 36 37 35 31 26 32 37 39 37 34 33 33 33 27 29 26 32 31 29 27 28 25 26 28 29 24 25 26 27 26 25 24 23 25 24 25 24 20 19 19 19 19 20 19
37 37 37 38 39 37 37 36 36 36 35 33 30 29 35 39 36 33 29 28 27 27 30 30 28 26 32 27 27 27 28 26 22 27 25 25 23 25 23 22 21 21 21 21 21 20 20 21 20 19 20 19 17 16
35 37 37 38 38 37 37 36 36 35 33 34 34 37 38 34 31 27 25 26 26 21 26 25 26 28 33 35 30 30 25 25 20 29 24 20 24 22 21 21 19 19 19 19 19 19 20 20 20 18 17 16 16 16
35 37 37 37 37 36 36 36 36 34 37 37 33 30 30 30 24 23 19 22 22 25 29 27 28 31 33 32 29 26 21 23 29 24 23 23 23 22 21 19 19 20 19 19 18 17 17 17 17 16 16 15 14 14
36 37 37 37 36 37 36 36 35 38 35 29 27 23 24 23 25 24 23 23 30 32 29 29 29 28 30 26 27 23 25 28 21 20 22 23 23 21 20 19 18 18 17 16 15 14 14 13 13 13 13 14 13 11
36 36 36 36 37 36 36 36 36 37 32 27 28 23 25 29 32 33 34 32 33 33 28 28 28 29 25 25 26 25 24 21 22 23 23 23 22 20 19 18 17 16 16 15 14 13 14 14 15 15 16 13 12 10
35 36 33 36 36 36 35 36 36 34 31 28 28 25 32 29 30 32 32 31 34 31 31 30 27 25 23 23 25 23 23 22 23 23 23 23 21 20 18 16 16 18 19 16 15 15 15 14 15 15 15 13 12 11
32 29 36 36 36 36 36 35 33 28 27 28 28 31 29 32 30 32 31 32 36 32 29 28 22 21 25 20 20 26 24 24 23 24 24 22 20 18 17 18 18 17 18 17 16 16 14 17 16 15 14 14 13 14
30 35 35 35 36 37 35 34 30 28 25 28 26 29 30 31 31 32 33 34 33 31 31 27 26 24 21 22 25 25 24 25 25 23 22 20 18 18 17 17 17 19 18 18 18 17 17 16 16 18 20 20 17 18
33 34 35 35 33 31 29 29 32 26 27 28 28 29 29 30 31 32 33 32 32 31 30 28 25 23 26 27 26 25 24 22 20 21 21 19 18 19 19 19 19 19 18 16 17 18 19 18 14 13 13 12 10 13
34 35 35 34 33 27 26 28 33 28 24 27 29 27 29 28 30 31 31 29 29 29 26 26 27 26 27 26 28 26 25 22 20 19 20 21 20 19 18 17 19 20 18 20 19 15 15 15 16 14 11 12 14 13
35 36 36 35 35 32 31 28 29 27 25 26 27 25 25 27 27 27 27 29 29 28 28 28 26 26 28 28 28 26 23 21 19 18 18 18 20 20 20 23 21 18 19 20 18 19 13 16 14 13 12 14 13 11
34 35 34 35 31 31 29 26 25 25 24 25 25 25 25 25 25 29 28 28 29 28 28 26 24 24 24 24 24 24 23 23 23 21 20 20 21 19 19 17 17 16 14 15 14 15 15 12 12 11 10 11 11 11
33 33 32 31 28 27 25 28 24 23 22 24 26 24 25 26 27 27 25 27 26 26 26 24 24 24 23 23 22 22 22 21 20 20 20 20 20 19 17 15 15 14 14 12 11 13 12 11 11 12 10 10 12 11
31 27 25 27 28 23 28 26 25 25 24 23 23 23 23 24 24 24 23 23 24 24 22 22 22 21 19 19 18 18 20 21 20 20 18 17 16 16 13 12 12 11 12 13 13 13 13 13 14 11 9 7 7 7
21 22 27 24 27 23 23 24 22 21 20 23 22 21 23 22 21 21 21 23 22 22 22 21 20 19 17 18 18 19 20 19 17 16 17 16 11 10 10 10 11 11 13 12 11 10 10 9 6 5 5 5 5 6
20 22 22 23 22 23 22 21 20 22 21 20 21 23 22 21 21 20 22 23 23 24 23 22 19 19 19 19 17 17 18 18 15 13 14 15 14 13 11 10 13 14 12 10 9 8 7 6 5 5 5 5 6 6
19 20 22 24 26 26 25 24 23 21 20 21 23 20 20 19 19 20 23 26 26 25 25 24 22 22 19 18 17 16 16 16 14 13 13 13 13 13 13 12 11 10 10 9 8 6 6 6 6 5 5 6 6 5
21 23 18 23 23 25 23 23 23 22 23 24 22 19 19 18 15 19 22 27 27 26 25 25 22 18 18 17 16 14 13 13 13 13 13 12 11 8 5 5 6 9 6 5 5 6 5 5 5 5 4 3 3 3
20 22 20 17 19 19 18 18 19 15 16 19 22 17 13 16 19 20 24 24 21 20 19 18 18 18 17 17 16 14 13 12 10 10 11 9 10 10 11 10 8 7 9 8 8 6 5 4 5 5 5 6 7 7
18 23 16 13 14 14 15 18 16 16 16 14 13 12 13 15 17 20 23 23 21 19 19 18 18 17 17 16 15 13 12 13 15 12 11 11 10 10 9 9 8 7 7 6 5 5 5 2 3 2 1 -1 -1 -2
19 20 17 15 13 15 16 16 17 18 21 19 14 11 10 14 16 17 17 23 21 19 18 18 18 18 15 13 11 8 8 10 11 12 12 11 9 8 7 6 6 7 5 4 4 4 2 1 1 -1 -2 -1 -2 -4
21 17 14 11 11 15 17 18 18 15 15 14 14 13 13 14 12 14 16 18 20 18 19 20 15 13 13 12 12 10 9 9 9 10 9 8 7 7 7 7 7 4 3 2 2 2 1 0 -1 -2 -3 -6 -8 -10
19 16 13 12 11 13 15 17 15 16 16 14 12 14 17 13 9 13 17 19 20 17 14 14 13 12 11 10 9 7 6 5 5 6 5 4 4 5 1 0 -1 -4 -2 1 2 1 -2 -3 -4 -7 -9 -11 -12 -13

GFSWCAN_sfc_30mbdewp_108.txt.gz
Dewpoint
40 40 40 39 39 39 39 39 39 38 38 38 37 38 38 38 39 39 39 39 33 28 28 33 33 29 29 27 23 26 23 26 26 23 21 22 23 24 27 26 26 24 24 21 21 17 15 29 27 22 28 31 31 30
40 39 39 39 39 40 40 39 38 38 38 38 38 36 35 38 39 38 36 40 38 29 27 35 33 31 30 31 29 30 29 30 29 24 24 25 22 25 27 22 30 23 25 23 24 22 29 31 29 32 33 31 32 31
40 40 40 39 40 39 39 38 39 38 38 39 38 37 35 36 38 39 38 37 33 29 28 30 28 32 35 33 33 28 31 33 29 30 28 28 24 26 25 27 27 31 30 24 25 27 28 30 32 32 32 29 26 27
41 40 40 39 38 39 39 39 39 38 39 39 39 38 36 36 37 37 35 37 34 32 25 28 32 30 32 34 34 34 32 34 32 30 26 26 22 27 26 30 27 28 28 26 26 28 28 28 29 27 25 25 22 22
41 40 39 39 39 39 39 39 38 39 38 39 38 37 36 36 35 35 35 37 38 34 28 26 30 30 30 32 32 33 33 31 29 26 25 23 27 27 29 30 26 29 28 27 23 30 28 28 29 26 22 22 22 21
41 41 38 39 39 39 39 39 39 38 39 38 37 38 37 37 36 33 21 38 40 38 29 23 30 29 31 31 30 31 31 31 29 27 25 25 28 27 26 24 29 31 31 31 28 30 28 29 30 28 21 21 21 20
39 40 40 40 39 40 39 39 39 38 38 38 39 38 37 37 36 33 31 38 42 40 31 26 24 33 33 31 30 30 32 31 28 27 26 26 27 29 28 24 30 31 30 30 30 30 29 29 21 23 21 20 21 21
38 39 40 40 39 38 39 39 38 36 37 38 38 37 36 37 33 32 38 41 41 35 32 24 23 31 32 27 27 31 29 29 28 26 27 25 27 30 25 29 28 29 30 30 31 25 22 21 21 20 20 19 19 18
39 39 39 39 40 38 39 38 36 37 37 38 37 38 34 32 28 30 40 40 39 35 27 26 22 23 34 30 31 31 30 24 29 25 25 28 26 23 27 25 24 25 25 24 23 22 21 20 20 21 20 19 18 18
39 39 39 39 39 39 38 38 37 37 38 38 34 26 24 30 37 39 35 31 32 34 31 25 28 25 31 29 28 27 28 25 24 27 28 25 24 29 29 25 24 24 24 26 24 23 20 19 19 19 19 20 18 16
38 38 39 39 39 38 38 37 37 37 36 32 29 28 34 37 35 31 27 26 28 25 29 27 27 26 32 26 26 26 25 24 23 28 24 24 22 24 22 20 21 22 21 21 21 21 22 20 19 20 18 17 16 15
37 38 38 39 38 38 37 37 37 35 32 31 33 37 36 32 30 26 24 25 24 21 25 27 27 28 31 34 28 30 26 24 21 30 24 20 22 22 20 20 20 20 20 20 20 20 20 20 19 18 17 16 15 15
37 37 38 39 38 37 37 37 35 38 36 35 32 30 29 27 22 21 18 20 23 24 28 26 28 31 32 31 29 27 21 20 28 24 21 21 23 21 20 19 19 19 19 18 18 18 18 17 16 15 14 12 12 12
37 37 38 38 38 37 36 36 36 37 33 27 26 22 23 22 23 22 21 21 24 26 27 29 29 27 29 25 25 21 22 27 20 18 21 21 23 20 20 20 18 16 15 15 14 14 14 14 14 13 13 12 11 10
37 37 37 37 37 37 37 37 37 36 31 26 27 20 23 25 28 32 31 31 32 29 29 28 28 26 24 24 24 23 23 19 20 22 22 23 22 20 19 18 16 14 13 13 12 12 12 13 13 14 14 12 11 8
36 36 34 37 37 36 36 35 34 32 29 27 26 24 28 29 27 32 31 30 31 28 29 28 26 23 22 21 23 20 22 21 23 23 23 21 19 18 16 15 15 14 14 13 13 14 14 13 13 14 14 12 11 10
36 34 36 36 36 36 35 33 30 26 25 25 25 30 29 28 30 31 31 31 32 28 27 27 22 19 23 20 19 25 23 24 23 22 22 20 18 16 15 14 18 18 15 14 14 15 13 14 15 15 14 13 13 13
33 36 36 37 35 35 34 33 28 26 22 25 25 27 29 30 31 31 32 33 31 31 30 26 26 24 18 19 19 23 24 24 23 22 20 18 16 15 16 17 18 18 15 16 16 15 15 16 16 15 17 17 19 18
36 36 37 34 33 32 28 29 30 25 25 27 28 29 29 30 31 31 32 30 31 30 29 27 23 21 24 26 25 24 23 21 19 19 18 16 16 16 16 17 19 17 17 17 17 17 16 17 16 16 15 17 11 13
36 37 36 34 35 28 26 27 32 28 23 25 29 28 28 28 30 30 30 29 29 29 26 25 25 26 26 25 27 25 22 20 20 18 17 17 18 17 17 19 18 18 18 17 17 19 19 20 19 14 12 13 13 12
35 36 35 34 33 32 30 28 28 29 28 26 29 28 25 27 25 25 27 29 29 28 27 26 25 27 28 28 26 23 22 20 18 17 17 18 20 19 17 17 20 20 17 17 18 16 15 14 14 13 13 14 12 10
35 35 34 35 31 31 30 28 25 25 26 27 27 26 25 25 25 26 28 27 28 28 27 25 25 26 26 25 24 23 21 20 19 19 18 18 18 18 19 19 20 19 17 18 18 17 16 13 11 10 10 9 9 11
33 33 32 31 27 26 25 29 23 23 21 24 27 25 25 25 26 28 24 27 26 26 25 25 25 24 24 24 23 23 23 21 20 19 18 18 19 19 19 17 16 14 11 13 14 13 10 10 10 10 9 9 8 7
31 27 25 24 25 21 28 26 26 26 25 24 22 22 22 24 25 24 22 24 25 24 23 24 23 22 21 21 21 21 21 21 20 20 19 20 19 17 14 12 12 13 13 14 14 13 13 12 9 6 4 3 3 5
21 22 25 21 28 22 22 23 23 20 18 20 21 21 22 22 19 20 19 21 22 21 23 22 21 21 19 18 19 21 21 20 19 18 18 16 14 13 13 13 13 13 12 11 9 8 8 5 4 3 3 3 5 5
18 20 21 21 21 22 21 20 19 19 21 20 21 22 20 20 19 18 21 22 21 21 22 21 19 18 18 18 19 19 18 17 16 15 14 14 12 10 10 10 10 10 9 8 7 6 5 4 4 4 4 5 5 4
20 20 22 25 24 25 22 22 22 20 18 19 22 20 20 17 17 18 22 23 24 24 24 22 20 20 18 17 17 17 16 15 14 13 13 12 12 12 11 10 10 9 8 6 5 5 5 4 4 4 4 1 1 2
22 23 19 21 23 24 22 22 21 20 20 23 20 19 18 18 16 17 20 23 23 23 22 21 21 19 17 15 15 14 13 12 12 11 10 8 5 6 7 7 6 6 3 4 4 3 3 2 3 3 4 4 3 2
20 22 21 18 19 19 17 18 18 16 17 19 19 16 13 15 16 16 20 21 20 19 18 17 16 16 15 15 14 13 13 11 6 2 0 5 7 9 7 6 7 7 6 7 8 6 5 5 4 1 1 0 -1 -3
20 22 17 15 15 14 14 16 15 15 15 13 12 12 13 14 16 18 20 20 18 17 17 17 17 15 14 12 11 11 11 10 9 7 6 7 7 8 5 5 6 5 4 4 4 3 3 -0 -1 -3 -4 -5 -7 -8
22 21 17 15 13 14 15 16 16 17 18 12 10 9 10 13 16 16 16 19 19 18 18 17 16 15 13 12 11 11 10 10 9 10 9 8 7 6 5 5 4 3 3 3 2 1 -0 -2 -4 -5 -7 -9 -11 -13
21 18 13 10 11 14 16 15 15 13 14 12 11 9 11 11 10 12 15 17 17 17 17 17 14 12 12 10 8 7 8 8 7 6 6 5 4 4 5 3 2 1 1 1 -0 -1 -3 -4 -7 -9 -12 -14 -15 -15
16 12 11 10 11 12 13 15 15 15 14 11 10 10 12 7 8 11 15 16 16 14 13 11 10 9 8 7 7 6 6 6 6 6 6 5 1 -1 -4 -4 -2 -1 -1 -3 -5 -6 -7 -9 -12 -14 -16 -16 -16 -17

GFSWCAN_sfc_30mbdewp_111.txt.gz
Dewpoint
39 40 40 40 39 39 39 39 39 39 39 39 38 38 39 41 41 38 37 37 29 27 27 33 32 28 27 25 15 23 22 25 24 20 20 21 23 24 27 28 28 23 23 21 21 15 15 28 27 22 28 31 30 28
40 39 39 40 39 39 40 39 39 38 39 39 39 38 39 39 39 38 34 38 34 26 28 34 32 32 30 27 26 29 28 30 28 24 24 25 22 25 25 23 30 22 24 22 23 21 28 31 29 31 32 30 31 28
40 39 39 39 39 40 39 39 38 39 39 39 37 36 39 39 41 38 35 35 31 27 27 28 29 34 34 32 33 27 30 32 29 29 27 27 23 26 24 26 26 29 29 23 24 27 27 29 29 31 31 25 25 31
39 39 39 40 40 39 39 39 39 38 39 39 37 36 38 38 39 37 35 36 33 30 25 29 31 30 33 33 32 33 31 34 32 30 26 25 23 27 27 30 26 27 28 26 25 27 26 28 27 25 24 23 22 22
40 39 39 39 39 39 39 38 38 39 39 39 37 36 36 37 37 35 35 37 38 30 25 24 29 31 32 33 33 34 33 31 29 25 25 22 27 27 31 28 26 29 28 26 23 27 27 26 28 24 23 22 22 21
40 39 39 39 39 39 39 39 39 39 40 39 37 37 36 37 34 26 21 36 40 37 26 23 28 29 32 32 31 32 32 31 29 27 25 25 27 27 26 23 30 31 30 31 28 29 27 28 30 23 22 21 21 21
39 38 39 40 39 39 39 39 39 39 39 39 39 37 37 37 36 31 27 36 41 38 29 23 24 32 33 31 31 31 33 30 28 27 26 26 26 30 28 23 30 30 29 29 29 29 26 22 22 22 22 22 22 21
40 39 38 39 39 39 39 38 39 38 39 39 38 37 37 34 33 35 39 41 40 33 29 22 24 29 33 27 27 31 28 28 28 26 27 25 27 29 24 30 30 30 31 31 26 25 22 20 20 20 20 19 18 17
41 41 39 40 39 39 39 38 38 38 38 38 37 37 32 29 27 33 41 39 38 31 24 25 21 23 32 29 30 30 29 24 28 25 24 27 27 23 25 28 27 27 25 23 22 22 22 21 20 20 19 18 18 17
41 40 40 39 38 38 37 38 38 38 38 36 31 23 20 28 36 39 33 28 29 31 28 23 27 24 29 28 28 27 27 24 23 27 27 26 24 27 24 24 24 24 25 24 21 21 20 19 19 19 19 18 16 14
39 39 40 39 39 38 38 38 38 38 33 30 26 29 33 37 32 29 25 24 26 23 26 25 25 27 31 26 26 26 23 24 23 27 24 23 21 23 24 22 22 21 22 22 23 23 21 20 19 18 17 16 15 14
39 39 40 39 39 38 38 38 37 33 31 31 34 36 36 29 27 23 22 24 23 21 26 25 27 27 32 32 27 29 26 24 21 29 25 20 21 21 21 21 20 20 20 20 21 20 20 20 19 17 16 15 14 13
39 40 39 39 38 38 38 38 35 37 37 34 33 29 29 28 21 20 17 21 22 25 26 27 28 29 31 31 29 26 23 20 27 25 20 20 22 21 20 20 19 19 19 19 18 18 18 17 16 15 13 12 11 11
38 39 39 38 38 37 38 36 38 35 30 26 24 22 23 20 21 21 20 19 23 24 26 29 28 27 28 25 23 21 20 26 20 18 20 21 22 21 20 20 18 17 16 15 15 14 13 13 12 11 11 11 10 10
38 39 39 38 37 38 36 38 35 34 30 26 25 19 22 23 25 29 29 29 30 28 28 27 27 25 24 23 23 23 23 19 19 19 21 21 22 20 19 18 16 14 13 12 12 12 11 12 12 12 12 11 10 7
37 37 35 38 37 36 36 34 33 30 28 25 24 22 26 26 28 30 31 30 30 28 28 26 25 21 21 21 22 19 18 19 20 22 22 21 20 18 17 16 14 12 12 12 11 12 12 12 12 13 13 12 10 9
36 33 36 37 37 35 33 30 27 25 24 23 23 28 27 26 26 31 32 32 31 26 25 26 21 19 22 19 20 22 21 22 22 21 21 19 18 16 15 14 13 13 12 12 13 14 14 13 13 15 14 13 13 13
33 37 37 37 34 33 33 30 26 24 20 23 23 25 28 30 31 31 32 33 30 30 29 26 25 23 18 18 17 22 23 22 21 20 19 16 15 14 14 14 16 15 13 13 14 14 14 15 16 15 15 17 18 18
36 37 35 33 31 29 24 27 26 21 22 27 26 27 28 30 31 31 31 30 30 29 29 27 23 20 21 24 24 22 22 21 19 18 16 14 14 14 16 17 16 15 15 15 16 16 15 16 16 16 16 19 18 13
37 36 34 36 34 27 25 26 30 27 23 23 28 28 27 27 29 29 29 29 30 29 27 25 25 24 26 25 25 23 22 19 19 18 16 15 15 15 16 17 17 17 17 17 18 18 18 19 20 19 14 12 14 14
36 35 35 33 32 31 28 27 25 27 28 26 28 28 26 26 25 26 26 29 28 29 27 27 27 25 27 26 25 22 21 20 19 17 16 16 17 16 16 18 18 18 17 16 15 16 15 13 14 13 13 14 12 9
35 35 33 32 29 29 29 29 27 27 27 27 26 27 24 24 24 25 28 27 27 28 27 26 25 26 26 25 23 22 21 20 18 18 18 18 18 17 17 17 18 18 18 16 17 17 17 15 13 13 11 10 8 10
33 32 30 30 27 25 25 28 25 26 22 24 26 24 24 24 26 27 23 25 26 26 26 25 25 26 25 25 23 22 21 19 18 18 18 18 17 17 17 17 18 17 17 15 15 16 14 11 9 9 8 6 5 5
32 27 23 22 24 22 27 25 27 25 25 24 23 21 23 25 26 23 20 22 24 23 24 24 24 23 23 22 22 22 22 20 18 18 18 18 18 17 16 15 14 13 13 14 13 10 10 10 8 5 2 3 2 3
19 20 22 17 25 22 21 22 23 20 19 21 21 21 22 22 19 19 19 19 22 21 23 23 23 22 21 19 20 21 21 20 18 17 18 18 15 14 13 13 13 12 11 11 10 10 7 3 2 2 3 3 5 5
16 18 20 19 21 21 20 19 19 18 20 20 20 21 20 19 17 16 19 21 20 20 21 21 20 20 19 19 20 19 19 19 18 16 15 16 15 14 11 10 9 9 7 7 6 5 4 3 3 4 4 4 2 1
19 19 22 24 24 24 21 20 20 20 18 17 20 19 18 16 15 17 19 22 23 22 22 22 21 20 19 18 17 16 16 16 15 13 12 11 11 12 11 9 8 9 7 5 5 5 5 4 3 3 2 -0 -2 -2
22 22 19 20 22 23 21 20 19 18 17 20 19 17 16 16 16 15 18 20 22 21 21 20 20 18 17 16 14 13 11 9 8 7 7 7 7 6 7 7 7 6 4 3 3 1 1 2 3 2 1 -1 -3 -5
20 22 23 19 19 20 19 20 20 17 17 19 17 17 15 13 14 14 16 19 21 20 18 17 15 15 13 13 13 12 11 10 8 6 4 3 3 7 5 5 4 4 4 6 7 5 4 0 -1 -1 -3 -5 -9 -12
19 22 18 17 17 17 15 16 15 14 14 14 13 12 12 13 15 15 17 19 18 16 16 15 15 14 13 12 11 11 10 8 6 4 1 0 4 7 4 5 5 3 2 3 3 3 3 -2 -4 -8 -9 -11 -13 -15
21 19 16 15 14 14 16 16 16 16 14 12 10 10 11 12 14 15 15 16 17 17 16 15 14 13 12 12 12 12 11 9 8 7 7 6 6 4 4 3 1 1 1 2 1 -0 -3 -6 -9 -10 -12 -14 -16 -17
20 17 14 12 11 15 17 16 15 14 13 11 10 9 10 11 11 11 13 15 16 15 15 13 12 11 13 11 11 9 9 7 7 6 6 5 3 2 1 -0 -1 0 0 -1 -2 -4 -6 -8 -12 -14 -16 -17 -17 -18
14 13 12 12 11 12 14 15 14 12 12 10 9 8 9 8 9 10 11 12 14 12 12 10 9 9 8 8 7 6 5 5 5 5 3 1 -2 -2 -3 -2 -1 -2 -4 -6 -8 -9 -11 -13 -16 -17 -18 -18 -18 -19

GFSWCAN_sfc_30mbdewp_114.txt.gz
Dewpoint
41 41 39 39 40 40 40 40 39 38 38 40 41 42 41 41 39 36 36 36 29 28 28 33 30 27 26 21 9 22 22 25 23 18 19 21 22 24 26 28 27 21 21 20 23 18 16 29 29 22 27 30 28 25
41 39 38 39 39 40 40 39 40 39 39 40 41 41 41 39 37 35 32 36 33 28 29 33 32 32 27 22 26 28 27 29 27 23 24 24 22 24 25 23 30 22 23 22 22 21 28 30 29 31 30 31 29 26
41 40 39 39 39 39 39 39 39 40 40 40 41 41 41 40 38 35 33 33 29 27 28 29 30 33 32 31 31 27 30 32 28 28 26 27 21 26 23 25 26 29 29 23 24 26 27 28 29 30 27 27 29 28
39 39 39 40 39 39 39 39 39 39 38 39 40 41 40 39 38 36 34 35 31 28 27 28 31 29 34 31 31 32 33 33 31 29 26 25 23 27 27 28 25 27 29 26 24 26 27 27 27 26 24 23 22 22
38 38 39 39 38 39 39 39 39 39 38 38 39 39 39 38 37 37 37 37 37 27 25 25 29 30 33 32 33 33 32 30 28 25 24 22 26 27 30 27 26 30 27 25 23 26 26 26 26 26 23 22 22 21
39 39 40 40 37 39 38 39 38 39 38 37 37 38 37 35 29 24 22 33 39 34 25 22 28 31 32 33 32 32 32 30 28 26 25 25 27 26 25 22 29 30 30 31 28 29 27 28 23 23 21 21 21 21
40 39 39 38 39 39 38 38 38 39 39 38 37 37 38 36 36 29 26 34 40 35 25 23 26 32 32 31 31 31 32 30 28 27 25 26 26 29 27 22 29 29 29 29 28 26 25 24 22 22 22 21 20 19
39 38 38 38 38 39 39 39 39 40 39 37 37 36 37 38 36 36 40 41 36 30 27 22 26 28 32 27 26 30 28 28 27 25 26 25 28 29 23 29 30 29 29 29 25 26 22 21 21 20 19 18 18 17
36 38 38 39 39 39 39 38 39 39 38 36 35 32 27 28 31 36 40 38 35 28 23 23 23 22 31 29 29 30 28 23 27 24 23 27 26 23 26 30 29 30 26 23 22 21 21 20 19 19 19 18 17 16
39 39 39 39 39 38 39 39 38 39 37 33 27 21 16 32 36 36 30 27 27 29 28 23 26 26 28 27 28 27 26 24 22 27 27 26 23 25 25 25 24 25 24 23 21 21 21 20 19 18 18 17 16 14
39 39 38 39 38 38 39 38 39 35 32 28 28 28 33 37 30 28 24 22 25 22 25 24 25 27 31 26 26 25 22 24 22 26 23 22 20 24 23 22 22 24 24 24 24 23 22 20 19 17 16 15 14 13
40 40 37 37 38 38 38 38 34 32 31 30 32 35 34 28 26 21 21 22 21 20 25 23 25 28 33 30 26 27 25 24 20 29 25 20 20 23 22 22 21 21 21 21 21 20 20 20 18 17 16 15 13 12
40 40 38 38 38 38 38 34 35 37 36 32 29 28 26 27 19 18 16 19 21 24 25 28 26 29 30 30 27 25 23 20 27 24 21 18 21 21 21 20 19 19 19 19 19 19 18 17 16 14 12 11 11 11
39 38 38 38 38 38 37 38 37 34 29 25 23 21 20 19 19 19 19 19 22 23 26 28 28 24 27 25 22 21 20 26 20 18 18 20 21 21 21 20 18 17 17 16 16 15 13 12 11 10 10 10 10 10
39 38 38 38 38 37 38 36 34 32 27 25 22 18 20 24 25 26 25 28 29 26 28 26 25 25 24 22 22 23 22 19 19 17 19 20 21 21 20 19 17 15 13 13 12 11 11 11 11 11 10 10 9 5
38 37 36 38 37 37 34 31 30 28 27 24 23 22 25 26 28 30 30 29 29 27 28 26 24 21 21 20 20 17 17 17 18 21 21 20 20 19 18 16 14 12 12 12 11 11 11 11 12 12 11 11 10 9
34 34 37 36 35 34 32 27 25 25 23 22 23 26 26 25 25 30 32 31 30 27 24 24 21 19 21 19 19 21 19 21 21 21 21 19 19 17 15 14 12 12 11 11 11 12 12 12 12 14 13 13 13 13
34 37 37 34 31 30 31 28 25 23 18 22 22 25 26 29 30 31 32 32 31 28 28 26 23 22 18 18 17 18 23 21 21 20 18 17 16 14 14 13 12 12 11 12 13 14 13 14 15 14 15 16 17 18
36 37 35 32 29 25 21 25 26 19 21 24 25 26 27 28 30 31 32 32 30 29 28 26 24 20 20 20 23 21 21 21 20 17 15 13 14 14 13 14 13 13 12 13 15 14 14 15 15 15 16 16 17 15
37 35 34 35 32 26 24 25 29 25 22 23 26 26 27 26 28 28 29 30 31 29 27 25 24 23 24 24 24 23 21 19 18 18 16 14 13 14 16 16 15 14 14 16 16 17 17 18 19 19 17 13 12 14
34 34 34 32 30 29 26 24 24 24 27 24 27 27 25 26 25 25 26 29 28 29 27 26 26 24 25 25 24 22 20 20 19 18 17 15 14 16 17 17 17 17 16 16 16 15 16 16 13 13 13 14 12 9
34 34 31 31 27 27 26 28 27 27 26 26 26 26 24 23 23 24 28 27 27 26 27 26 26 26 25 24 23 22 21 20 18 17 17 16 16 16 16 17 17 16 16 15 15 15 16 16 13 13 11 8 7 8
32 30 28 29 23 23 24 28 25 26 22 23 26 23 23 24 25 27 23 24 25 25 25 25 26 26 25 24 22 21 20 19 18 17 17 17 16 15 16 17 17 17 17 17 15 15 15 12 9 8 7 5 4 3
30 24 20 20 22 20 26 24 27 25 25 23 22 21 23 24 25 22 20 21 22 23 25 25 24 23 23 22 21 20 20 19 17 17 17 17 16 16 16 16 16 15 15 14 13 10 9 8 6 6 3 2 2 3
17 19 20 17 22 21 20 21 21 21 19 20 20 20 22 22 18 18 18 18 20 21 21 23 23 22 21 19 20 21 20 18 17 17 17 17 15 14 13 13 12 12 11 11 10 10 7 3 3 2 2 3 4 3
14 18 19 17 20 20 19 18 19 18 18 19 20 20 19 18 16 15 17 20 20 19 20 21 21 20 20 20 20 20 20 19 17 16 16 16 15 15 12 11 10 10 7 8 8 6 4 2 3 3 3 1 -0 0
16 18 21 22 23 23 20 20 19 19 19 18 20 19 17 14 13 15 18 20 21 22 21 21 21 21 19 18 17 16 16 16 15 14 12 12 12 13 12 11 9 9 6 5 4 4 4 3 2 1 0 -3 -5 -5
20 20 18 19 21 22 21 19 19 18 17 17 18 18 15 14 14 15 17 18 21 19 18 18 19 19 18 15 13 12 11 10 10 9 9 8 7 7 8 8 7 6 3 3 2 1 1 2 1 -0 -2 -3 -7 -12
21 23 21 19 20 20 20 20 20 17 17 18 18 17 16 13 13 13 15 16 20 20 17 16 13 13 13 12 12 12 11 11 11 10 8 6 6 6 3 4 3 2 2 3 5 2 -0 -2 -3 -4 -7 -9 -14 -18
20 22 20 19 19 18 18 16 15 13 13 13 12 12 12 12 13 13 15 16 18 18 16 14 13 13 12 12 11 10 10 9 8 10 6 2 2 6 4 5 5 3 4 6 5 4 -0 -5 -7 -12 -14 -15 -17 -18
20 18 16 16 16 14 16 16 15 14 13 12 10 11 11 11 13 13 13 13 14 15 14 13 13 13 13 12 12 11 11 9 6 5 6 6 6 5 4 3 1 0 1 -0 -1 -3 -6 -9 -12 -13 -15 -17 -18 -19
19 17 14 13 12 15 16 16 14 14 12 11 10 8 9 10 12 11 10 12 14 14 12 11 12 11 13 12 11 10 10 7 6 6 6 5 3 2 1 -1 -1 -1 -2 -3 -5 -7 -8 -11 -15 -17 -18 -18 -19 -20
13 13 12 11 11 12 14 15 14 12 10 10 9 8 9 9 10 9 8 8 11 12 11 10 9 8 8 7 6 5 4 4 5 4 3 1 -1 -1 -2 -2 -3 -4 -5 -7 -10 -12 -14 -17 -18 -19 -19 -19 -20 -20

GFSWCAN_sfc_30mbdewp_117.txt.gz
Dewpoint
40 40 40 41 41 40 40 39 39 40 41 41 42 43 41 40 38 33 33 35 30 29 31 31 29 25 23 18 11 23 23 25 22 18 19 21 22 24 25 27 26 21 21 20 22 20 17 28 30 23 26 29 26 26
40 40 40 41 40 39 38 38 40 42 42 42 42 41 40 38 36 33 29 34 35 31 31 32 32 31 22 19 28 28 24 28 26 23 24 24 23 24 25 22 28 22 24 22 22 21 28 30 28 30 32 28 28 26
40 41 41 40 39 39 39 40 41 42 41 41 41 40 39 38 36 32 31 32 31 29 29 30 29 32 32 31 31 28 30 31 29 29 26 27 22 26 23 24 27 28 30 24 25 26 27 28 29 27 28 28 28 25
39 40 40 39 38 38 38 40 41 42 42 41 41 40 40 38 37 36 34 36 30 30 26 28 31 32 34 32 33 33 33 32 31 29 26 26 23 28 27 27 25 28 29 25 24 26 26 27 27 25 24 24 23 22
40 40 40 38 38 39 39 39 40 41 41 41 41 40 39 38 37 37 38 38 35 28 26 27 29 32 32 34 33 33 31 29 28 25 25 23 27 28 30 27 24 29 27 25 23 26 26 26 28 26 23 22 21 21
40 40 39 37 38 38 38 38 39 40 40 40 39 36 34 32 27 26 24 32 38 32 27 24 28 32 33 33 33 32 31 30 29 26 25 26 27 27 25 22 29 30 31 32 28 29 27 27 25 23 21 21 20 18
41 39 37 37 39 38 39 39 38 39 39 38 38 40 39 39 38 31 25 33 39 33 26 25 29 33 32 31 31 31 31 30 28 27 26 26 27 30 25 21 28 30 30 29 28 27 26 23 21 21 21 20 18 17
40 38 38 38 38 38 39 39 39 38 39 40 40 39 38 37 36 35 40 39 34 28 27 25 27 30 32 25 27 30 28 28 28 26 27 25 29 27 23 28 27 27 28 28 28 28 24 23 21 20 19 18 17 16
38 38 39 39 39 39 39 39 38 38 36 35 33 31 30 33 34 36 40 36 34 27 23 23 23 23 31 29 30 29 28 23 28 24 24 27 25 22 27 29 28 28 26 22 21 22 21 20 19 19 18 18 17 16
38 38 39 39 38 39 40 38 38 36 33 32 28 20 29 34 38 33 28 25 27 27 26 24 26 26 28 27 27 27 27 24 22 27 28 26 24 25 25 28 29 29 24 22 21 20 20 20 20 19 19 18 16 15
39 39 39 39 38 38 39 39 34 33 30 29 27 27 34 37 30 27 23 22 23 21 24 25 27 28 31 26 26 25 23 25 21 26 23 22 20 24 24 23 24 24 24 24 24 23 22 21 19 17 16 15 14 13
39 39 38 38 38 38 38 34 32 33 30 29 34 36 32 28 25 21 21 22 21 20 25 24 26 31 32 30 26 26 24 24 20 28 25 20 21 24 23 23 23 23 23 22 22 21 21 20 18 17 16 15 14 13
37 38 39 39 38 36 34 37 37 37 32 31 28 27 24 24 18 14 15 19 20 24 26 27 26 30 30 30 27 24 22 20 27 23 20 20 21 23 22 21 20 21 21 20 20 19 18 17 17 15 13 12 11 9
36 38 38 38 37 38 38 36 34 32 28 25 22 20 18 18 19 19 19 20 22 24 27 28 26 26 27 24 23 21 21 25 18 17 17 20 22 22 21 20 19 18 18 18 17 16 14 13 11 11 11 10 10 10
38 38 38 37 38 38 35 34 32 31 27 23 21 19 21 24 26 26 24 27 28 26 27 26 25 25 23 22 22 23 21 18 18 17 19 20 21 21 20 19 17 16 15 14 13 12 10 10 10 10 9 9 8 5
37 36 37 38 36 34 31 29 28 27 26 24 24 22 24 25 27 29 28 28 29 27 27 25 22 20 21 20 19 17 17 16 18 20 21 19 21 20 19 17 16 14 14 13 12 11 10 11 11 12 11 10 9 9
36 36 37 35 34 33 31 26 25 24 22 22 23 25 26 25 26 28 31 29 28 28 24 23 20 18 22 20 19 19 18 20 21 22 21 20 20 19 17 15 13 13 13 12 11 12 12 12 12 13 13 14 12 13
35 37 34 32 29 28 28 27 24 21 20 23 23 24 25 28 29 30 31 31 30 28 28 25 23 21 18 17 18 18 23 22 21 21 19 18 18 16 16 15 13 13 12 12 12 13 13 13 14 15 15 16 17 17
36 35 33 31 27 24 21 24 26 20 21 24 25 26 27 28 30 31 32 32 30 29 28 25 23 20 20 19 22 21 23 23 20 17 15 13 15 15 14 13 12 12 12 13 14 14 15 16 15 15 16 16 16 16
35 35 34 34 31 25 23 24 28 23 21 23 26 26 26 26 27 27 30 32 32 29 27 25 24 23 24 25 24 24 22 20 18 18 16 14 14 14 14 14 13 13 13 15 16 15 15 16 18 18 18 16 14 15
33 33 32 30 29 28 26 23 22 24 25 23 25 26 24 25 24 25 26 29 27 29 27 26 25 24 24 25 24 22 21 20 20 20 18 15 14 15 16 16 15 15 15 16 16 16 16 18 14 14 14 15 12 11
33 32 28 29 26 26 26 28 26 27 25 25 25 26 23 22 22 24 28 26 26 27 27 26 26 26 25 24 23 22 21 20 18 17 16 15 15 16 17 16 16 16 16 16 16 16 17 16 14 14 13 10 9 8
31 28 27 26 19 20 24 28 24 26 21 22 25 23 23 23 24 27 22 24 24 24 24 25 26 25 24 23 22 21 20 18 17 17 17 17 16 17 17 17 17 17 16 16 16 16 16 13 10 9 8 7 6 6
28 22 18 20 19 20 25 23 26 25 24 22 21 20 21 23 25 21 20 20 20 21 24 25 24 23 22 21 20 20 19 18 17 17 17 16 16 16 17 17 17 17 17 15 15 13 11 9 8 7 6 4 4 4
15 17 17 16 21 20 19 19 20 21 19 20 20 20 22 22 19 19 18 18 20 20 21 23 23 22 22 20 19 20 19 18 17 16 17 16 15 15 14 14 13 13 12 12 10 9 7 6 6 5 4 4 4 2
13 17 17 15 19 19 18 18 18 18 19 20 19 19 18 18 16 14 17 20 20 19 19 21 22 22 21 20 20 19 18 18 18 16 16 16 16 16 14 14 13 12 10 12 10 9 7 5 5 4 2 0 -2 0
13 16 20 21 22 22 19 19 18 18 19 18 20 19 18 14 11 15 19 19 20 21 21 21 22 21 20 18 17 16 16 16 16 15 13 13 13 14 15 14 12 11 8 8 7 6 5 4 3 1 -0 -4 -6 -5
19 19 17 19 20 21 19 19 19 18 18 17 18 17 15 13 14 15 16 17 20 18 17 17 18 18 18 16 13 13 12 11 11 11 11 10 8 8 9 9 9 7 6 6 5 4 3 2 1 -0 -2 -4 -8 -13
20 21 19 18 18 18 19 20 19 17 16 18 19 18 16 14 13 13 14 16 17 19 17 16 13 13 12 12 12 13 13 14 15 14 13 10 9 7 6 6 5 4 5 5 5 2 -0 -1 -3 -4 -7 -10 -15 -17
19 21 19 18 18 17 18 17 16 13 13 13 12 12 12 12 12 12 13 15 18 19 17 15 12 13 13 12 11 11 11 12 13 14 12 10 8 5 4 5 5 5 6 6 4 1 -1 -6 -7 -12 -13 -15 -15 -15
20 20 18 18 18 16 16 15 13 12 12 12 9 13 12 11 11 11 11 11 12 15 14 13 12 12 13 12 12 12 12 9 6 6 7 7 6 6 6 5 4 4 4 2 -1 -3 -6 -8 -10 -13 -15 -16 -18 -18
18 17 15 15 14 14 15 16 15 14 11 11 11 8 9 11 13 11 8 10 13 13 12 12 13 12 14 13 12 11 12 8 7 7 7 6 5 4 2 1 1 1 -0 -2 -4 -6 -8 -11 -15 -16 -16 -17 -18 -19
13 14 13 12 11 11 14 14 13 11 9 9 9 7 8 10 11 8 6 6 9 12 11 9 8 8 8 7 6 5 5 6 6 5 3 2 1 0 -0 -1 -1 -3 -4 -6 -9 -11 -14 -16 -17 -18 -18 -19 -19 -20

GFSWCAN_sfc_30mbdewp_123.txt.gz
Dewpoint
35 41 40 39 41 40 43 43 43 43 44 45 45 44 45 44 41 37 39 42 34 35 34 31 31 27 26 23 21 23 23 22 18 18 16 15 17 20 21 20 21 21 19 20 20 18 17 28 31 26 28 28 27 25
41 40 39 39 41 40 40 43 43 42 42 42 42 41 40 40 38 38 36 40 37 35 35 34 32 29 25 23 22 25 19 19 18 18 16 16 20 23 18 18 23 19 20 23 24 24 27 31 32 32 31 30 27 25
40 39 39 39 41 41 40 42 42 42 42 41 41 41 40 39 38 38 38 38 36 34 33 30 31 33 33 29 28 21 23 27 28 33 22 22 19 19 17 20 25 26 26 26 25 25 26 30 32 34 33 31 27 25
39 39 39 39 40 40 41 42 42 42 41 41 40 40 40 38 38 37 35 36 32 29 26 27 32 33 33 32 31 28 30 31 31 30 27 27 21 29 25 26 27 28 26 25 26 27 28 30 31 32 32 28 24 23
39 39 41 41 39 41 42 42 41 42 42 41 40 39 39 39 39 38 37 37 35 26 25 29 32 32 31 30 30 30 30 28 26 24 27 23 26 26 28 26 25 26 27 26 28 28 30 28 30 32 30 26 22 21
38 39 40 41 41 41 41 42 42 42 41 40 38 38 38 37 35 32 36 32 30 30 28 25 32 31 30 30 29 28 28 26 22 21 22 25 30 29 24 26 28 29 30 30 29 32 31 31 31 31 28 23 21 19
38 38 38 41 41 40 41 41 41 41 41 41 40 39 38 37 36 32 30 33 35 30 29 22 26 31 30 29 28 28 29 28 22 22 21 21 25 27 25 21 27 30 29 31 32 30 28 29 27 26 20 20 19 17
37 36 38 40 39 40 40 40 40 39 40 39 39 38 36 35 34 30 35 36 37 28 27 23 27 27 30 24 26 28 25 24 25 23 24 20 24 25 23 25 28 28 28 29 29 30 27 27 22 21 20 18 17 15
38 36 39 40 39 40 40 38 35 34 34 36 36 35 34 33 27 29 36 37 35 30 26 26 22 23 29 27 27 26 24 23 25 23 20 21 24 22 25 25 27 28 28 29 28 27 24 21 20 20 20 18 16 15
38 38 40 40 39 37 36 34 34 33 32 34 31 32 33 33 36 36 32 33 31 28 28 26 26 25 24 26 27 25 25 21 20 22 23 22 22 27 25 25 26 26 26 26 25 23 22 21 20 21 20 19 18 18
38 39 39 38 35 34 33 33 31 29 28 33 33 31 32 35 31 29 29 27 26 25 26 27 25 25 28 24 25 26 24 24 21 23 23 21 20 26 27 26 27 26 24 24 24 24 23 22 22 21 19 19 18 18
38 38 37 35 35 36 37 36 33 32 32 34 32 33 32 30 28 25 24 24 21 22 25 25 25 27 31 29 26 28 23 25 23 26 24 19 28 27 28 28 28 25 25 25 25 25 25 24 23 20 17 17 17 18
38 37 38 38 38 36 35 34 32 33 35 31 30 30 23 25 23 21 20 21 24 27 31 30 28 29 29 31 29 24 23 24 27 24 20 25 27 27 27 27 27 26 26 26 26 26 24 22 20 18 19 19 17 14
39 38 37 36 35 33 33 33 34 32 31 30 27 22 23 22 22 23 23 25 29 30 31 30 29 28 29 28 29 23 26 24 21 19 18 27 27 27 27 27 27 27 26 26 25 24 22 21 20 19 18 17 14 12
38 36 34 34 33 32 31 32 33 33 32 28 25 21 22 27 28 29 29 30 33 33 30 29 28 27 27 26 26 23 22 19 18 19 29 30 28 28 27 27 26 25 25 24 23 21 19 17 17 17 17 16 15 14
35 33 32 34 33 32 31 31 31 31 29 26 27 26 29 28 28 30 30 31 33 32 31 27 26 27 25 25 23 22 18 17 25 30 28 28 28 28 26 26 25 24 24 23 21 18 17 17 16 16 16 16 14 13
33 31 34 33 32 31 31 29 27 27 26 26 27 31 31 30 29 31 32 32 35 31 29 23 24 24 24 21 20 21 25 29 28 28 28 28 26 26 26 25 23 23 22 21 20 18 17 18 17 15 14 14 14 15
30 31 34 31 28 30 30 27 24 25 26 29 27 28 31 31 31 31 32 34 32 29 27 24 24 23 22 20 21 27 30 28 27 27 27 27 28 26 25 23 22 22 21 20 19 18 18 16 13 13 15 14 15 14
32 32 34 33 28 25 23 25 27 24 27 29 31 31 31 31 33 33 34 34 33 32 30 26 26 21 25 28 30 30 29 29 27 26 25 26 26 25 24 22 21 21 20 19 17 16 16 14 15 15 14 14 14 14
32 33 33 32 30 19 19 22 26 24 25 27 29 28 28 30 32 33 34 34 33 29 28 26 28 31 30 32 32 32 30 29 27 25 24 24 24 24 23 21 21 20 19 18 17 16 15 15 15 14 14 15 15 15
30 30 31 30 28 25 23 21 24 24 24 26 26 25 26 28 30 31 31 32 32 27 26 31 32 31 31 30 30 30 29 28 28 27 26 24 24 24 22 22 21 18 18 17 17 17 17 16 15 16 20 21 20 18
29 31 28 28 26 26 25 27 24 25 24 24 24 24 26 26 27 28 28 29 29 31 32 30 31 29 27 27 27 28 27 26 25 25 25 24 23 22 21 21 19 19 19 20 19 19 18 18 18 21 21 19 17 15
29 26 24 23 25 24 24 27 23 21 20 21 23 21 23 24 25 26 25 25 29 29 29 29 29 28 26 25 25 25 24 24 24 24 24 24 24 23 22 21 21 20 19 20 20 21 23 20 21 21 19 17 15 13
27 27 24 24 23 23 26 23 22 20 21 19 19 19 21 23 24 23 22 25 27 27 27 28 27 26 25 24 24 23 23 23 23 24 24 23 22 21 21 20 20 21 20 19 20 22 20 20 19 17 16 14 12 10
17 20 23 20 24 22 20 20 22 19 19 20 20 20 22 23 21 21 22 25 25 25 26 27 27 26 26 26 25 23 21 21 21 21 22 22 21 20 19 20 20 21 21 22 21 19 18 18 18 15 13 11 8 7
16 21 20 20 21 20 18 17 19 20 20 20 21 23 24 22 21 21 20 23 24 24 26 28 28 27 25 25 24 21 20 21 20 20 20 21 20 20 19 18 17 18 22 24 20 18 17 15 14 10 8 6 5 6
15 20 21 23 22 21 22 23 21 21 20 20 22 22 22 18 18 21 23 23 23 24 24 26 26 25 24 24 22 22 22 22 21 20 20 21 23 24 22 20 20 19 20 20 18 16 15 12 10 8 7 6 4 3
20 22 19 22 22 22 22 21 21 20 21 22 23 21 20 19 21 23 23 23 24 23 23 22 22 24 24 23 22 22 20 20 19 19 19 18 19 20 19 19 18 17 18 18 16 14 12 10 8 7 5 3 0 -1
22 23 22 19 20 21 21 21 21 22 22 23 23 21 23 21 23 23 22 23 23 24 23 23 23 23 22 22 22 22 22 22 20 19 18 17 16 16 16 15 15 13 11 10 9 9 8 8 6 4 1 -0 -2 -2
21 23 20 21 19 18 24 25 24 25 21 23 22 20 20 23 22 21 22 23 23 24 24 24 23 23 22 21 20 20 22 23 24 25 21 19 17 16 16 14 13 11 10 8 6 5 4 2 -0 -1 -2 -1 -1 -3
22 23 21 21 20 23 23 23 23 23 23 23 22 23 23 23 21 19 19 19 21 22 23 22 22 22 22 21 20 19 18 18 18 21 20 18 17 16 14 13 12 10 8 7 6 5 3 2 -1 -2 -4 -6 -6 -5
22 21 19 19 20 21 22 22 22 21 21 20 21 20 20 20 20 18 15 17 19 20 21 23 21 21 23 21 21 21 19 16 15 16 16 16 15 13 11 10 9 9 7 6 4 2 -0 -1 -2 -3 -5 -6 -7 -8
21 21 21 21 20 19 20 20 18 17 17 16 17 17 18 19 19 14 14 15 15 18 20 18 19 19 19 18 17 16 16 15 14 13 12 11 10 10 10 9 8 6 5 3 0 -2 -3 -4 -4 -5 -7 -8 -9 -9

GFSWCAN_sfc_30mbdewp_126.txt.gz
Dewpoint
33 33 34 34 35 37 38 41 42 44 45 46 46 45 42 42 43 42 40 43 39 33 31 30 28 26 29 30 29 30 25 25 24 20 12 13 15 18 18 22 23 25 22 23 23 20 20 28 29 28 29 27 27 27
33 34 34 36 35 40 39 41 44 43 45 46 46 46 46 44 43 43 40 42 42 36 37 36 34 32 31 29 28 29 25 23 22 19 18 17 17 22 18 20 24 25 24 28 26 25 28 32 34 32 29 31 29 28
35 34 35 39 40 39 42 43 42 43 43 45 47 48 48 47 44 44 43 42 41 36 35 34 32 32 32 31 32 26 25 25 22 30 26 25 20 21 21 19 22 26 26 28 25 26 28 31 34 35 34 33 32 30
35 39 39 40 39 40 43 42 42 42 43 43 43 45 46 45 45 44 42 42 37 33 31 33 36 32 33 32 32 30 30 29 31 33 29 28 26 28 28 28 28 26 25 26 28 27 27 31 32 32 32 34 31 28
40 40 39 39 39 43 43 42 42 41 41 41 41 42 43 43 41 39 38 37 34 31 30 33 33 32 31 30 32 34 32 32 30 26 26 25 28 27 28 28 26 27 27 25 28 28 27 29 31 33 31 30 28 24
40 40 39 39 41 41 41 41 42 42 42 40 40 40 40 39 38 37 37 37 36 34 32 29 32 29 30 30 31 31 31 29 26 22 26 29 31 29 24 25 29 30 31 31 29 32 31 31 32 32 30 30 27 22
40 39 39 41 42 41 41 41 41 41 41 42 41 40 40 38 37 34 34 36 33 33 30 28 31 29 29 29 29 28 28 26 24 23 22 23 26 28 27 23 29 29 30 31 30 29 28 29 28 31 28 22 19 18
40 40 40 40 40 41 41 40 40 39 39 39 38 37 36 35 36 34 37 37 39 26 25 26 27 27 27 26 26 26 26 25 26 23 23 23 25 27 24 28 28 29 30 30 29 28 27 29 28 23 20 18 17 16
40 41 40 39 37 36 35 35 36 37 39 40 39 37 35 30 28 32 35 37 37 31 27 26 23 21 30 26 27 25 24 24 25 24 22 21 25 23 27 27 27 27 27 27 30 28 27 23 21 20 19 18 16 16
40 38 36 34 34 33 31 32 32 33 34 36 33 33 33 31 34 33 35 34 31 28 27 26 26 26 28 27 26 25 25 22 21 24 23 24 28 25 24 28 29 28 28 28 27 24 23 22 21 21 20 19 18 17
37 35 35 36 36 34 29 27 31 30 31 35 35 30 31 33 34 29 30 28 27 25 30 26 25 24 27 25 26 26 24 24 20 23 21 20 23 26 26 27 28 28 28 28 27 26 24 22 22 22 21 20 19 19
36 37 38 37 36 36 35 35 34 33 33 34 30 33 32 32 30 26 24 25 21 22 26 26 26 29 31 28 27 27 24 26 25 25 24 20 29 26 28 28 27 26 25 25 25 24 25 24 24 22 20 20 20 20
38 38 36 35 35 35 33 33 33 34 34 31 32 29 24 27 24 22 20 22 24 30 31 30 29 29 30 33 30 26 23 25 27 25 20 28 28 28 28 28 27 28 27 27 27 27 26 25 23 21 21 21 19 17
36 36 35 35 34 33 34 34 34 33 33 32 29 22 24 23 24 28 27 28 30 32 31 31 29 28 30 29 30 23 26 26 21 20 21 27 28 29 29 29 29 29 29 28 27 25 23 22 21 21 19 18 15 13
34 33 32 34 34 33 32 32 33 34 33 28 26 21 24 27 29 30 31 32 33 34 32 30 29 28 27 27 27 23 22 18 19 21 29 30 30 29 29 29 27 26 26 25 24 22 21 20 19 19 18 16 15 14
33 31 31 32 32 31 32 31 32 33 29 27 28 27 28 27 28 31 33 33 34 34 32 28 26 27 25 25 23 22 18 17 27 28 30 31 30 30 29 28 27 27 26 25 23 20 19 18 18 18 19 18 15 15
31 30 34 31 30 31 30 30 30 27 26 26 28 32 31 30 29 31 34 34 37 33 28 24 24 23 24 21 20 24 27 27 29 28 30 30 30 29 28 27 25 25 24 23 21 20 19 19 19 18 16 15 15 15
27 30 34 33 30 30 30 29 27 26 26 30 28 30 31 32 31 32 34 37 32 29 27 23 24 23 22 20 25 29 28 28 29 28 29 30 29 28 27 25 24 24 23 22 21 20 20 18 16 15 15 13 14 15
32 32 33 32 30 25 24 26 27 25 28 30 31 33 32 32 34 34 34 36 33 31 31 26 26 24 28 31 30 30 29 28 27 26 28 28 27 26 25 24 24 23 22 21 19 19 18 16 16 16 16 15 15 16
31 31 32 31 26 19 21 24 27 25 25 28 31 30 32 32 33 34 35 34 33 28 28 28 30 31 30 31 32 31 30 29 26 25 25 25 26 25 24 23 23 22 21 20 19 18 17 16 16 16 16 16 18 18
27 28 29 29 26 25 24 24 24 25 26 26 27 29 31 31 31 31 31 32 31 30 29 31 30 31 32 31 32 31 29 29 28 28 25 23 25 25 24 24 23 21 20 20 19 18 18 18 17 19 21 23 23 21
27 29 26 27 25 25 25 27 23 24 24 25 25 26 28 28 28 29 29 29 31 31 32 32 30 29 28 28 29 30 28 28 28 28 27 26 25 24 24 24 22 22 22 22 21 21 20 21 23 22 23 21 20 17
27 25 25 25 25 24 24 26 23 21 21 22 23 22 23 24 25 27 25 29 29 29 30 30 29 28 26 27 27 26 26 26 26 26 26 26 26 26 25 24 24 24 23 22 24 22 25 22 22 23 20 20 17 13
27 28 26 25 23 22 26 23 20 20 21 19 19 19 21 22 24 23 24 28 28 28 28 28 27 27 26 26 25 24 25 26 25 25 25 25 25 25 24 23 24 24 24 24 26 24 23 22 21 19 19 17 17 16
17 21 25 21 24 20 19 20 21 18 17 19 19 19 21 23 21 21 23 26 27 27 27 28 27 28 27 26 25 23 23 23 23 23 23 24 24 23 24 24 26 26 26 25 23 22 22 20 21 18 16 14 11 10
18 22 20 20 21 18 17 16 19 20 20 20 21 23 23 21 20 21 23 25 26 26 27 28 29 27 26 26 24 22 21 22 22 22 23 23 23 23 22 21 20 22 23 24 22 20 19 19 17 13 10 8 8 8
16 19 21 22 21 20 21 21 21 20 20 20 22 21 20 18 21 23 23 25 25 25 26 27 26 27 25 24 23 24 24 24 23 23 23 24 25 26 24 21 19 21 25 24 22 19 18 16 12 10 9 8 7 6
19 21 19 22 22 22 20 20 20 19 22 21 22 20 21 21 22 24 24 24 24 24 24 25 25 26 25 24 24 23 23 22 22 21 21 21 21 21 20 21 22 21 22 22 20 18 15 13 11 9 7 5 3 2
22 23 22 20 21 22 22 21 20 22 23 22 22 23 21 24 24 23 23 24 25 26 24 24 24 24 24 25 25 24 23 21 20 18 17 16 17 17 19 19 17 16 15 13 13 13 12 11 10 6 3 2 1 1
21 23 19 20 19 18 25 26 26 26 24 26 25 22 23 24 23 23 23 23 23 24 26 26 25 24 23 22 22 24 25 25 25 25 21 18 17 18 17 15 14 12 11 9 8 6 5 4 3 2 2 2 1 -1
22 22 20 18 18 26 25 25 25 24 25 24 24 24 26 24 22 21 22 22 23 25 25 24 24 26 24 22 21 19 19 21 23 21 21 19 19 18 17 16 14 12 9 8 8 6 5 3 2 1 -1 -2 -3 -3
21 20 20 17 22 23 23 22 22 22 24 21 22 23 22 21 21 19 17 19 21 21 24 25 24 24 24 23 23 22 20 20 20 20 18 18 17 16 15 13 12 11 10 8 6 4 3 2 1 -2 -3 -4 -5 -6
23 22 21 21 20 20 23 21 21 20 21 18 21 22 21 21 18 15 16 18 18 19 20 20 21 22 21 21 20 19 19 19 19 18 16 15 14 13 13 12 11 9 7 5 3 2 1 -1 -1 -3 -5 -6 -6 -7

GFSWCAN_sfc_30mbdewp_129.txt.gz
Dewpoint
33 33 34 34 35 35 36 37 37 36 37 37 38 39 40 41 41 42 39 40 38 33 32 31 31 30 31 27 29 31 28 30 30 27 24 16 13 14 13 22 18 15 23 25 26 21 18 30 29 26 28 28 27 27
34 37 35 35 34 35 36 36 36 37 37 38 38 40 41 42 42 43 38 40 41 36 35 35 36 36 36 36 32 31 28 27 27 24 20 14 15 21 21 24 30 27 27 26 26 25 29 33 33 33 31 28 28 28
36 37 38 35 35 35 36 37 37 38 39 39 39 41 41 41 41 42 39 39 40 37 36 36 35 34 36 36 34 30 30 27 24 29 27 25 20 25 19 21 26 27 30 25 25 28 29 32 34 34 34 32 31 30
38 38 36 35 35 36 37 37 38 39 41 42 44 44 43 42 41 41 40 40 38 37 32 34 39 36 34 32 32 30 28 29 30 29 26 26 24 30 28 30 28 27 27 27 26 29 30 32 32 33 33 33 32 32
36 35 35 35 36 39 39 39 43 43 44 45 44 44 44 44 42 42 41 41 40 35 31 32 35 33 33 32 33 29 30 32 31 28 25 25 29 29 29 29 27 30 27 24 24 27 26 29 32 32 30 30 31 31
36 36 39 40 38 39 44 43 43 44 45 47 47 46 44 45 43 42 38 42 41 38 33 29 35 32 32 34 36 35 34 32 31 27 27 30 32 29 25 27 30 31 31 31 30 31 30 31 31 31 30 30 31 29
39 39 39 40 42 43 44 43 43 43 43 44 45 46 46 44 43 37 35 41 43 39 33 29 31 32 32 33 33 32 32 30 28 27 24 29 29 30 27 26 30 31 32 31 31 31 29 29 28 30 30 29 26 20
39 39 39 40 40 42 43 42 41 40 42 42 42 42 42 40 38 36 40 41 38 31 31 29 30 32 29 27 26 30 28 28 28 26 25 26 28 29 26 29 30 31 30 30 29 29 28 28 28 28 24 19 18 17
40 40 39 40 41 42 43 42 41 40 40 38 37 38 35 34 33 33 37 39 38 31 29 29 27 26 30 28 28 27 28 24 27 25 24 26 25 22 28 28 29 29 29 29 29 28 28 28 28 22 19 18 17 17
36 36 35 36 36 37 38 38 38 37 36 36 35 30 32 33 36 36 33 33 31 31 30 24 29 27 28 27 26 25 27 23 22 24 25 25 28 28 29 28 30 29 28 29 27 28 27 23 21 20 19 18 18 18
38 38 36 35 35 35 36 35 33 33 38 36 30 31 34 35 36 32 28 27 28 28 30 27 28 26 30 25 25 28 24 23 21 24 22 21 25 26 29 29 29 29 29 29 28 26 24 22 21 21 20 20 20 19
35 36 35 35 36 36 36 36 35 35 36 32 33 36 36 35 30 24 24 25 23 27 29 26 27 30 30 30 27 27 24 26 22 25 24 22 28 28 29 29 30 30 29 28 27 26 24 23 23 22 21 20 21 20
35 35 35 35 35 35 34 35 35 35 36 34 30 27 26 27 23 18 20 24 26 30 29 30 28 30 31 31 27 25 23 25 28 23 22 28 28 28 28 28 28 28 28 27 27 26 25 24 22 21 20 20 19 17
34 34 35 35 34 34 34 35 36 36 34 29 25 20 23 23 26 28 28 27 31 31 31 31 30 28 30 27 28 22 26 26 23 19 23 28 28 28 29 29 27 27 27 26 25 24 22 20 19 19 18 17 15 12
32 32 32 34 35 33 34 34 35 35 31 26 25 21 23 27 30 31 32 32 33 33 30 29 29 28 28 26 27 24 23 19 21 22 29 30 29 28 28 28 26 24 23 22 21 20 19 18 18 17 15 14 12 12
31 30 31 34 34 33 33 34 34 34 30 28 29 25 27 27 29 33 32 32 33 31 31 30 28 25 24 24 23 21 19 20 25 28 31 30 29 28 28 27 26 25 23 21 19 18 18 17 16 15 15 12 11 10
30 30 35 34 33 32 33 32 30 29 29 28 28 31 30 30 30 31 34 34 36 32 25 26 23 23 26 23 22 28 25 26 28 29 31 30 29 28 27 26 26 24 23 21 19 18 18 18 18 17 14 14 14 12
30 32 34 33 32 31 31 31 28 28 27 30 27 28 31 31 31 32 34 35 34 29 26 23 25 23 22 22 25 26 27 28 29 30 30 29 29 28 26 26 26 25 22 20 19 19 19 18 18 17 15 15 15 15
32 33 32 32 30 27 26 27 29 26 28 30 31 33 32 32 33 34 34 34 35 33 30 27 27 27 27 30 28 27 26 27 26 27 28 28 27 26 26 25 24 24 21 20 20 20 18 18 17 17 15 15 16 16
29 30 31 30 29 23 24 26 30 27 27 30 32 31 31 31 31 33 33 32 32 30 29 27 28 30 30 30 31 30 29 27 26 25 25 26 26 25 25 23 23 23 21 21 20 20 19 18 18 18 16 16 19 19
30 29 31 31 28 29 27 26 25 29 28 29 31 30 30 31 30 30 29 32 30 31 29 30 30 29 30 30 30 30 28 26 25 25 24 24 25 25 23 24 23 22 21 20 20 18 17 18 20 23 22 20 17 14
28 29 29 30 26 27 27 28 25 25 27 27 26 29 28 26 26 26 30 29 29 30 32 30 29 29 29 30 29 29 29 29 29 26 26 26 25 24 25 23 21 21 20 21 19 19 18 22 23 22 20 18 13 11
29 29 28 27 23 23 22 28 22 22 22 22 24 22 23 23 25 27 27 29 29 31 30 28 28 28 27 27 27 27 28 28 27 26 25 27 26 26 25 24 23 23 22 23 23 24 24 24 22 20 17 14 11 9
30 28 25 25 23 22 26 21 21 22 22 20 20 20 21 23 24 24 26 27 28 28 28 28 27 26 26 26 24 25 26 26 26 27 27 27 26 25 25 25 26 26 24 26 24 23 23 21 20 19 18 16 11 11
13 20 23 20 23 19 19 20 21 19 18 19 19 20 22 24 22 21 24 25 26 26 28 30 29 28 26 25 23 22 24 25 24 24 25 26 25 26 26 25 26 27 26 23 22 22 21 20 20 18 16 13 13 12
17 21 21 20 20 18 17 17 19 19 20 20 22 23 23 20 20 22 23 25 25 26 26 27 28 28 26 25 22 22 23 25 25 25 25 25 25 23 22 21 21 23 26 23 21 19 20 18 13 12 11 10 9 8
18 19 22 24 23 22 20 21 22 20 20 21 21 21 20 18 20 21 24 25 25 26 27 27 28 26 24 24 23 23 23 24 23 23 23 22 23 24 21 19 20 23 25 22 20 19 16 12 10 9 7 5 5 6
20 21 19 21 21 23 20 20 19 21 22 22 22 20 21 21 20 24 24 25 25 26 26 26 26 25 24 24 23 22 21 21 20 19 18 19 20 19 19 19 19 19 20 20 20 17 14 12 10 7 4 3 0 -1
22 24 20 16 20 22 22 22 22 24 25 24 23 22 21 22 24 24 23 23 26 26 24 23 24 25 25 25 24 23 21 20 18 16 15 14 14 15 16 15 14 14 14 14 14 12 11 9 6 4 2 2 1 -0
22 24 20 19 18 20 23 24 24 25 24 25 25 22 23 22 23 23 24 24 25 26 27 25 24 24 23 22 22 23 24 24 24 19 15 15 14 15 14 13 12 11 9 7 7 7 7 5 4 2 0 -2 -3 -5
22 20 19 18 21 24 24 23 24 24 23 24 24 23 24 21 22 21 19 21 22 25 25 24 25 26 24 23 22 19 18 21 20 21 19 17 16 15 14 12 10 8 6 5 4 3 3 3 2 1 -0 -2 -3 -5
20 19 20 18 22 23 23 21 21 20 22 22 21 22 23 22 19 16 16 18 20 21 23 25 24 20 22 23 23 21 20 20 19 19 18 17 16 15 13 11 11 10 9 7 6 4 2 0 -3 -5 -5 -5 -7 -9
23 20 19 20 22 20 23 20 22 21 22 19 21 21 22 19 15 14 17 19 17 17 17 18 18 18 18 17 17 18 19 19 19 18 16 14 13 13 13 11 9 8 6 5 4 2 0 -2 -3 -5 -7 -8 -8 -9

GFSWCAN_sfc_30mbdewp_135.txt.gz
Dewpoint
31 32 33 34 34 34 34 35 36 36 37 38 38 41 41 40 40 39 36 39 37 32 30 30 29 26 27 28 27 30 30 32 31 27 26 25 23 19 17 18 17 17 21 22 23 21 17 30 27 25 26 27 27 27
32 32 33 33 34 35 35 35 36 36 37 38 39 39 41 41 39 40 35 38 40 35 34 37 35 31 30 31 30 32 29 30 31 28 28 26 22 20 18 15 19 18 20 20 20 20 29 32 31 31 28 27 26 26
33 32 32 33 34 35 35 35 36 37 37 38 39 39 40 42 40 40 35 38 38 34 35 35 33 34 37 36 36 33 34 33 32 32 28 26 23 20 17 16 21 31 32 29 28 29 29 33 32 31 29 28 27 27
34 35 35 35 35 35 35 36 36 36 37 37 38 39 40 40 39 40 37 37 36 35 28 28 37 33 35 36 36 36 36 36 34 34 32 27 24 28 22 23 27 30 33 29 28 28 29 32 33 30 29 28 27 27
34 34 34 35 35 36 36 36 36 37 37 38 38 38 39 39 39 39 39 37 37 30 28 27 35 37 36 34 32 33 35 34 33 32 31 28 29 29 31 31 30 30 30 27 26 27 26 28 33 30 29 28 27 26
36 36 36 36 35 35 36 37 36 36 36 37 38 38 38 38 39 38 33 37 38 38 31 27 35 36 37 37 36 35 35 36 36 32 32 31 30 28 29 27 28 31 31 28 26 29 28 32 33 31 29 28 28 26
38 39 39 38 37 36 36 36 37 37 37 37 37 38 38 38 38 34 28 31 37 38 31 26 24 36 37 37 37 36 37 37 36 34 32 30 31 32 30 26 29 31 31 30 30 31 29 31 29 30 29 28 29 28
37 37 38 39 40 39 38 37 37 37 38 37 37 38 38 38 37 34 33 39 37 34 35 28 28 32 38 33 32 37 35 35 34 34 30 28 30 30 27 28 31 31 31 30 29 29 30 30 30 30 30 29 27 26
39 39 39 39 38 38 39 39 39 38 38 38 37 38 37 35 32 31 32 40 39 34 30 29 26 24 37 33 34 33 33 30 31 29 25 28 26 25 25 28 30 30 30 30 29 29 29 29 29 29 29 20 19 22
41 41 41 41 41 40 40 40 38 38 39 38 36 34 30 34 35 33 33 33 34 33 34 28 31 28 33 31 30 31 32 26 25 26 27 26 24 27 28 30 31 30 30 29 27 27 28 28 28 28 24 20 20 21
39 40 40 41 42 42 43 45 46 42 38 36 32 32 37 36 33 32 29 29 31 27 31 30 29 28 30 26 26 30 28 28 22 21 23 22 23 26 30 31 31 31 30 29 28 28 28 27 26 21 20 20 20 19
40 40 40 41 42 42 42 41 40 38 38 39 38 39 36 33 31 26 26 29 28 22 30 26 27 28 31 31 27 30 23 24 19 26 22 19 23 28 30 30 30 30 29 29 29 28 28 27 22 20 20 20 19 18
38 39 39 39 40 40 40 40 40 38 36 34 32 31 31 30 24 23 21 24 26 28 30 29 28 30 30 29 26 25 22 22 26 22 21 22 26 29 30 29 29 30 29 29 28 27 26 24 22 21 19 18 17 16
36 36 37 36 37 36 35 37 35 32 28 23 22 21 22 23 25 25 23 26 29 28 28 28 28 29 30 26 24 20 23 27 23 20 18 24 28 28 29 29 28 28 27 27 25 24 23 21 19 18 17 16 15 14
34 34 34 38 35 33 34 34 33 33 30 26 24 19 24 28 30 30 30 29 29 30 29 27 27 27 27 26 26 24 24 21 22 19 22 27 28 28 28 28 27 26 25 24 22 21 19 18 18 17 16 15 14 12
31 29 33 36 36 34 32 32 33 32 30 28 27 26 29 29 29 30 29 29 30 29 29 28 26 24 23 23 21 19 19 17 19 27 28 28 27 27 26 26 25 24 22 21 20 19 18 18 17 16 15 14 13 12
30 30 36 33 31 32 33 30 31 30 29 27 27 31 30 31 30 31 30 30 31 25 23 26 21 17 25 22 22 23 20 24 27 28 28 27 27 26 24 23 23 22 21 19 18 18 17 17 16 16 15 12 12 11
31 34 36 32 29 30 31 30 28 27 26 29 27 29 31 31 32 32 32 31 27 26 24 23 26 23 22 22 23 26 26 28 29 28 28 28 27 26 25 23 22 21 20 19 18 17 17 17 17 16 14 12 12 12
32 34 34 33 30 28 26 28 29 25 27 30 31 31 31 31 31 31 31 32 31 30 29 26 25 23 25 27 26 27 27 27 26 26 27 27 27 26 25 23 22 21 20 19 19 18 18 17 16 14 13 12 12 13
29 31 32 32 29 25 24 26 30 27 26 29 31 30 31 30 30 29 30 30 29 28 26 25 26 27 28 29 27 28 28 28 27 25 24 25 27 26 25 24 23 22 20 20 20 19 18 18 17 15 14 14 13 14
27 30 31 30 29 28 26 26 27 29 30 29 31 29 29 27 26 27 26 29 28 27 25 28 27 29 30 29 29 28 28 27 26 25 24 23 25 25 25 24 22 21 19 19 18 18 18 17 18 16 15 15 14 16
27 31 25 26 24 25 25 26 25 27 28 28 26 26 24 23 23 26 27 26 27 27 28 28 28 27 28 28 28 27 27 26 25 25 25 25 24 24 24 23 22 20 19 18 18 17 17 19 19 16 14 16 16 16
28 27 25 22 19 19 21 25 21 23 21 22 23 21 21 22 24 27 25 27 27 29 29 28 27 27 27 28 28 28 28 26 25 25 25 25 25 24 23 23 21 19 19 19 19 18 19 20 18 15 15 15 13 10
26 22 21 21 20 19 20 20 23 21 20 20 20 19 20 22 25 23 22 23 26 29 27 26 26 26 26 26 26 26 27 27 27 27 26 25 24 24 24 23 22 21 20 21 20 20 18 16 15 15 15 13 11 8
16 19 18 17 18 17 17 18 17 18 19 19 19 20 20 23 21 22 20 22 24 25 28 27 27 25 24 23 25 26 27 27 26 25 27 26 25 25 25 24 23 22 22 21 19 19 17 17 15 14 13 12 9 7
17 20 20 19 19 18 18 18 19 19 19 19 19 21 20 19 18 17 20 22 23 24 25 26 27 24 23 24 24 25 25 27 26 24 24 26 25 22 22 21 21 21 23 21 20 18 17 16 15 14 12 10 8 5
17 17 19 23 23 20 17 19 20 20 20 18 17 19 18 17 16 19 23 24 24 25 26 26 28 25 23 23 22 21 21 22 22 21 20 19 19 20 20 20 20 20 22 21 20 18 16 15 13 11 9 8 6 4
21 21 17 18 19 19 18 18 20 20 20 23 20 18 17 17 17 21 22 25 26 26 25 25 25 23 22 21 20 19 18 18 18 18 17 16 15 16 18 19 20 20 19 18 17 15 13 11 10 8 7 5 3 1
20 20 15 14 18 19 19 20 19 21 23 23 20 18 18 21 21 22 23 25 26 25 23 22 21 22 22 21 19 18 18 19 19 18 17 15 15 14 13 16 15 15 14 13 12 9 7 6 4 3 2 1 -2 -4
18 19 16 16 16 16 20 21 20 22 22 23 22 22 21 20 20 20 20 21 21 23 23 23 22 21 20 19 18 18 19 19 17 17 16 15 14 11 11 12 12 13 12 11 9 7 6 2 -0 -2 -3 -4 -5 -6
19 16 16 17 17 19 21 22 21 21 22 21 22 20 19 18 17 16 15 16 18 21 23 23 22 22 20 18 17 17 18 18 18 14 12 12 11 10 9 8 8 8 7 5 4 1 -0 -2 -3 -4 -5 -6 -7 -8
18 19 19 18 17 21 21 20 19 18 20 18 18 22 20 18 15 11 14 14 17 19 19 20 23 22 21 20 18 18 18 17 16 14 13 12 10 9 8 8 7 6 4 3 2 0 -2 -3 -4 -6 -7 -8 -9 -10
18 16 16 17 19 19 19 18 18 19 18 18 17 15 15 16 16 11 13 12 12 12 12 12 13 14 16 18 17 16 16 15 15 14 12 11 10 9 9 7 6 3 2 0 -1 -2 -3 -4 -5 -6 -8 -10 -12 -14